<?xml version='1.0' encoding='UTF-8'?><gpx version="1.1" creator="JPX - https://github.com/jenetics/jpx" xmlns="http://www.topografix.com/GPX/1/1"><trk><trkseg><trkpt lat="48.4505883" lon="-4.2286533"><ele>103.00000000000001</ele><time>2026-04-26T08:02:11.678Z</time></trkpt><trkpt lat="48.45065" lon="-4.2285567"><ele>103.0</ele><time>2026-04-26T08:02:53.674Z</time></trkpt><trkpt lat="48.450705" lon="-4.2284783"><ele>103.0</ele><time>2026-04-26T08:02:55.677Z</time></trkpt><trkpt lat="48.4507283" lon="-4.22835"><ele>103.0</ele><time>2026-04-26T08:02:57.677Z</time></trkpt><trkpt lat="48.450725" lon="-4.2282033"><ele>103.00000000000001</ele><time>2026-04-26T08:02:59.676Z</time></trkpt><trkpt lat="48.450725" lon="-4.228055"><ele>103.0</ele><time>2026-04-26T08:03:01.683Z</time></trkpt><trkpt lat="48.4507233" lon="-4.2279083"><ele>103.80000000000001</ele><time>2026-04-26T08:03:03.682Z</time></trkpt><trkpt lat="48.4506883" lon="-4.227795"><ele>104.6</ele><time>2026-04-26T08:03:05.677Z</time></trkpt><trkpt lat="48.450595" lon="-4.2277417"><ele>105.39999999999999</ele><time>2026-04-26T08:03:07.675Z</time></trkpt><trkpt lat="48.4505317" lon="-4.2277383"><ele>106.19999999999999</ele><time>2026-04-26T08:03:08.677Z</time></trkpt><trkpt lat="48.450415" lon="-4.2277417"><ele>107.0</ele><time>2026-04-26T08:03:10.679Z</time></trkpt><trkpt lat="48.4503017" lon="-4.2277417"><ele>107.25</ele><time>2026-04-26T08:03:12.676Z</time></trkpt><trkpt lat="48.4501783" lon="-4.2277467"><ele>107.5</ele><time>2026-04-26T08:03:14.676Z</time></trkpt><trkpt lat="48.4500583" lon="-4.2277833"><ele>107.75</ele><time>2026-04-26T08:03:16.675Z</time></trkpt><trkpt lat="48.449965" lon="-4.2278883"><ele>108.0</ele><time>2026-04-26T08:03:18.673Z</time></trkpt><trkpt lat="48.449875" lon="-4.2280083"><ele>108.0</ele><time>2026-04-26T08:03:20.676Z</time></trkpt><trkpt lat="48.44979" lon="-4.2281183"><ele>108.00000000000001</ele><time>2026-04-26T08:03:22.674Z</time></trkpt><trkpt lat="48.4497017" lon="-4.2281967"><ele>108.00000000000001</ele><time>2026-04-26T08:03:24.673Z</time></trkpt><trkpt lat="48.4495833" lon="-4.228195"><ele>108.0</ele><time>2026-04-26T08:03:26.68Z</time></trkpt><trkpt lat="48.449515" lon="-4.2281767"><ele>108.0</ele><time>2026-04-26T08:03:27.675Z</time></trkpt><trkpt lat="48.4494483" lon="-4.22818"><ele>108.33333333333333</ele><time>2026-04-26T08:03:28.679Z</time></trkpt><trkpt lat="48.449385" lon="-4.2281767"><ele>108.66666666666666</ele><time>2026-04-26T08:03:29.676Z</time></trkpt><trkpt lat="48.4493217" lon="-4.228135"><ele>109.0</ele><time>2026-04-26T08:03:30.677Z</time></trkpt><trkpt lat="48.449265" lon="-4.2280667"><ele>109.33333333333333</ele><time>2026-04-26T08:03:31.676Z</time></trkpt><trkpt lat="48.449225" lon="-4.2279633"><ele>109.66666666666666</ele><time>2026-04-26T08:03:32.677Z</time></trkpt><trkpt lat="48.4491817" lon="-4.2278533"><ele>110.0</ele><time>2026-04-26T08:03:33.678Z</time></trkpt><trkpt lat="48.4491333" lon="-4.227745"><ele>109.99999999999999</ele><time>2026-04-26T08:03:34.676Z</time></trkpt><trkpt lat="48.44908" lon="-4.2276467"><ele>110.0</ele><time>2026-04-26T08:03:35.679Z</time></trkpt><trkpt lat="48.44903" lon="-4.22756"><ele>110.0</ele><time>2026-04-26T08:03:36.678Z</time></trkpt><trkpt lat="48.4489783" lon="-4.227475"><ele>110.0</ele><time>2026-04-26T08:03:37.677Z</time></trkpt><trkpt lat="48.4489283" lon="-4.227395"><ele>110.0</ele><time>2026-04-26T08:03:38.677Z</time></trkpt><trkpt lat="48.4488833" lon="-4.2273183"><ele>109.99999999999999</ele><time>2026-04-26T08:03:39.681Z</time></trkpt><trkpt lat="48.4488417" lon="-4.2272467"><ele>110.0</ele><time>2026-04-26T08:03:40.673Z</time></trkpt><trkpt lat="48.44877" lon="-4.2271217"><ele>110.4</ele><time>2026-04-26T08:03:42.674Z</time></trkpt><trkpt lat="48.44873" lon="-4.2270217"><ele>110.8</ele><time>2026-04-26T08:03:44.675Z</time></trkpt><trkpt lat="48.448745" lon="-4.2269067"><ele>111.19999999999999</ele><time>2026-04-26T08:03:46.677Z</time></trkpt><trkpt lat="48.4488633" lon="-4.22681"><ele>111.6</ele><time>2026-04-26T08:03:48.675Z</time></trkpt><trkpt lat="48.4489417" lon="-4.226745"><ele>112.0</ele><time>2026-04-26T08:03:49.677Z</time></trkpt><trkpt lat="48.44903" lon="-4.2266767"><ele>112.75</ele><time>2026-04-26T08:03:50.678Z</time></trkpt><trkpt lat="48.4491217" lon="-4.2266017"><ele>113.5</ele><time>2026-04-26T08:03:51.676Z</time></trkpt><trkpt lat="48.4492183" lon="-4.2265167"><ele>114.25</ele><time>2026-04-26T08:03:52.676Z</time></trkpt><trkpt lat="48.44932" lon="-4.2264167"><ele>115.0</ele><time>2026-04-26T08:03:53.678Z</time></trkpt><trkpt lat="48.4494233" lon="-4.226305"><ele>115.0</ele><time>2026-04-26T08:03:54.678Z</time></trkpt><trkpt lat="48.4495233" lon="-4.2261833"><ele>115.0</ele><time>2026-04-26T08:03:55.679Z</time></trkpt><trkpt lat="48.4496183" lon="-4.226055"><ele>115.0</ele><time>2026-04-26T08:03:56.677Z</time></trkpt><trkpt lat="48.449715" lon="-4.22592"><ele>115.0</ele><time>2026-04-26T08:03:57.675Z</time></trkpt><trkpt lat="48.4498067" lon="-4.2257783"><ele>115.5</ele><time>2026-04-26T08:03:58.674Z</time></trkpt><trkpt lat="48.4498933" lon="-4.2256267"><ele>116.0</ele><time>2026-04-26T08:03:59.682Z</time></trkpt><trkpt lat="48.4499817" lon="-4.2254717"><ele>116.5</ele><time>2026-04-26T08:04:00.678Z</time></trkpt><trkpt lat="48.45007" lon="-4.2253083"><ele>117.0</ele><time>2026-04-26T08:04:01.68Z</time></trkpt><trkpt lat="48.4501567" lon="-4.22514"><ele>117.0</ele><time>2026-04-26T08:04:02.673Z</time></trkpt><trkpt lat="48.4502467" lon="-4.2249683"><ele>117.0</ele><time>2026-04-26T08:04:03.679Z</time></trkpt><trkpt lat="48.45034" lon="-4.2247983"><ele>117.0</ele><time>2026-04-26T08:04:04.675Z</time></trkpt><trkpt lat="48.4504383" lon="-4.2246333"><ele>117.0</ele><time>2026-04-26T08:04:05.68Z</time></trkpt><trkpt lat="48.45054" lon="-4.2244717"><ele>118.0</ele><time>2026-04-26T08:04:06.677Z</time></trkpt><trkpt lat="48.4506417" lon="-4.2243233"><ele>119.0</ele><time>2026-04-26T08:04:07.674Z</time></trkpt><trkpt lat="48.45074" lon="-4.2241867"><ele>120.0</ele><time>2026-04-26T08:04:08.677Z</time></trkpt><trkpt lat="48.450845" lon="-4.224055"><ele>121.0</ele><time>2026-04-26T08:04:09.676Z</time></trkpt><trkpt lat="48.4509517" lon="-4.22393"><ele>121.0</ele><time>2026-04-26T08:04:10.673Z</time></trkpt><trkpt lat="48.4510583" lon="-4.2238033"><ele>121.0</ele><time>2026-04-26T08:04:11.676Z</time></trkpt><trkpt lat="48.4511667" lon="-4.22368"><ele>121.0</ele><time>2026-04-26T08:04:12.675Z</time></trkpt><trkpt lat="48.4512733" lon="-4.2235583"><ele>121.0</ele><time>2026-04-26T08:04:13.676Z</time></trkpt><trkpt lat="48.451375" lon="-4.22345"><ele>121.25</ele><time>2026-04-26T08:04:14.676Z</time></trkpt><trkpt lat="48.45147" lon="-4.2233517"><ele>121.5</ele><time>2026-04-26T08:04:15.681Z</time></trkpt><trkpt lat="48.451565" lon="-4.2232633"><ele>121.75</ele><time>2026-04-26T08:04:16.679Z</time></trkpt><trkpt lat="48.4516617" lon="-4.2231767"><ele>122.0</ele><time>2026-04-26T08:04:17.676Z</time></trkpt><trkpt lat="48.451765" lon="-4.2230933"><ele>122.25</ele><time>2026-04-26T08:04:18.676Z</time></trkpt><trkpt lat="48.4518783" lon="-4.2230117"><ele>122.5</ele><time>2026-04-26T08:04:19.676Z</time></trkpt><trkpt lat="48.452" lon="-4.2229283"><ele>122.75</ele><time>2026-04-26T08:04:20.676Z</time></trkpt><trkpt lat="48.4521217" lon="-4.222845"><ele>123.0</ele><time>2026-04-26T08:04:21.671Z</time></trkpt><trkpt lat="48.4522417" lon="-4.2227617"><ele>123.0</ele><time>2026-04-26T08:04:22.674Z</time></trkpt><trkpt lat="48.45236" lon="-4.2226783"><ele>123.0</ele><time>2026-04-26T08:04:23.677Z</time></trkpt><trkpt lat="48.45248" lon="-4.2225883"><ele>123.0</ele><time>2026-04-26T08:04:24.676Z</time></trkpt><trkpt lat="48.4526033" lon="-4.2224983"><ele>123.0</ele><time>2026-04-26T08:04:25.675Z</time></trkpt><trkpt lat="48.45273" lon="-4.2224067"><ele>122.75</ele><time>2026-04-26T08:04:26.675Z</time></trkpt><trkpt lat="48.4528567" lon="-4.2223133"><ele>122.5</ele><time>2026-04-26T08:04:27.677Z</time></trkpt><trkpt lat="48.452985" lon="-4.2222183"><ele>122.25</ele><time>2026-04-26T08:04:28.675Z</time></trkpt><trkpt lat="48.45311" lon="-4.2221233"><ele>122.0</ele><time>2026-04-26T08:04:29.675Z</time></trkpt><trkpt lat="48.4532333" lon="-4.2220217"><ele>122.0</ele><time>2026-04-26T08:04:30.675Z</time></trkpt><trkpt lat="48.453355" lon="-4.2219183"><ele>122.0</ele><time>2026-04-26T08:04:31.674Z</time></trkpt><trkpt lat="48.4534733" lon="-4.2218117"><ele>122.0</ele><time>2026-04-26T08:04:32.673Z</time></trkpt><trkpt lat="48.45359" lon="-4.2217"><ele>122.0</ele><time>2026-04-26T08:04:33.673Z</time></trkpt><trkpt lat="48.4537067" lon="-4.2215867"><ele>122.25</ele><time>2026-04-26T08:04:34.674Z</time></trkpt><trkpt lat="48.45382" lon="-4.22147"><ele>122.5</ele><time>2026-04-26T08:04:35.676Z</time></trkpt><trkpt lat="48.4539317" lon="-4.2213517"><ele>122.75</ele><time>2026-04-26T08:04:36.684Z</time></trkpt><trkpt lat="48.454045" lon="-4.2212217"><ele>123.0</ele><time>2026-04-26T08:04:37.675Z</time></trkpt><trkpt lat="48.45416" lon="-4.221075"><ele>123.0</ele><time>2026-04-26T08:04:38.675Z</time></trkpt><trkpt lat="48.4542717" lon="-4.2209083"><ele>123.0</ele><time>2026-04-26T08:04:39.678Z</time></trkpt><trkpt lat="48.45438" lon="-4.2207217"><ele>123.0</ele><time>2026-04-26T08:04:40.676Z</time></trkpt><trkpt lat="48.45448" lon="-4.2205083"><ele>123.33333333333334</ele><time>2026-04-26T08:04:41.674Z</time></trkpt><trkpt lat="48.45457" lon="-4.220275"><ele>123.66666666666667</ele><time>2026-04-26T08:04:42.675Z</time></trkpt><trkpt lat="48.4546583" lon="-4.2200383"><ele>124.0</ele><time>2026-04-26T08:04:43.675Z</time></trkpt><trkpt lat="48.4547483" lon="-4.2198033"><ele>123.33333333333334</ele><time>2026-04-26T08:04:44.676Z</time></trkpt><trkpt lat="48.45484" lon="-4.21957"><ele>122.66666666666666</ele><time>2026-04-26T08:04:45.675Z</time></trkpt><trkpt lat="48.4549333" lon="-4.2193367"><ele>122.0</ele><time>2026-04-26T08:04:46.676Z</time></trkpt><trkpt lat="48.4550267" lon="-4.2191067"><ele>122.33333333333333</ele><time>2026-04-26T08:04:47.68Z</time></trkpt><trkpt lat="48.45512" lon="-4.2188783"><ele>122.66666666666666</ele><time>2026-04-26T08:04:48.682Z</time></trkpt><trkpt lat="48.4552133" lon="-4.2186483"><ele>123.0</ele><time>2026-04-26T08:04:49.677Z</time></trkpt><trkpt lat="48.4553067" lon="-4.2184183"><ele>123.0</ele><time>2026-04-26T08:04:50.678Z</time></trkpt><trkpt lat="48.4554" lon="-4.2181933"><ele>123.0</ele><time>2026-04-26T08:04:51.676Z</time></trkpt><trkpt lat="48.4555" lon="-4.2179783"><ele>123.0</ele><time>2026-04-26T08:04:52.675Z</time></trkpt><trkpt lat="48.4556117" lon="-4.2177783"><ele>122.66666666666666</ele><time>2026-04-26T08:04:53.673Z</time></trkpt><trkpt lat="48.455735" lon="-4.2175933"><ele>122.33333333333333</ele><time>2026-04-26T08:04:54.675Z</time></trkpt><trkpt lat="48.4558633" lon="-4.2174267"><ele>122.0</ele><time>2026-04-26T08:04:55.675Z</time></trkpt><trkpt lat="48.4559967" lon="-4.2172683"><ele>122.0</ele><time>2026-04-26T08:04:56.677Z</time></trkpt><trkpt lat="48.456135" lon="-4.2171133"><ele>122.0</ele><time>2026-04-26T08:04:57.676Z</time></trkpt><trkpt lat="48.4562733" lon="-4.216955"><ele>122.0</ele><time>2026-04-26T08:04:58.673Z</time></trkpt><trkpt lat="48.456415" lon="-4.2167983"><ele>121.0</ele><time>2026-04-26T08:04:59.678Z</time></trkpt><trkpt lat="48.456555" lon="-4.21664"><ele>120.0</ele><time>2026-04-26T08:05:00.678Z</time></trkpt><trkpt lat="48.4566933" lon="-4.2164783"><ele>119.0</ele><time>2026-04-26T08:05:01.675Z</time></trkpt><trkpt lat="48.4568283" lon="-4.2163117"><ele>119.0</ele><time>2026-04-26T08:05:02.676Z</time></trkpt><trkpt lat="48.4569617" lon="-4.2161367"><ele>119.0</ele><time>2026-04-26T08:05:03.676Z</time></trkpt><trkpt lat="48.4570883" lon="-4.2159533"><ele>119.0</ele><time>2026-04-26T08:05:04.676Z</time></trkpt><trkpt lat="48.4572083" lon="-4.215765"><ele>117.66666666666666</ele><time>2026-04-26T08:05:05.676Z</time></trkpt><trkpt lat="48.4573183" lon="-4.215575"><ele>116.33333333333334</ele><time>2026-04-26T08:05:06.68Z</time></trkpt><trkpt lat="48.4574233" lon="-4.21538"><ele>115.0</ele><time>2026-04-26T08:05:07.676Z</time></trkpt><trkpt lat="48.45752" lon="-4.2151733"><ele>115.0</ele><time>2026-04-26T08:05:08.681Z</time></trkpt><trkpt lat="48.457615" lon="-4.21496"><ele>115.0</ele><time>2026-04-26T08:05:09.673Z</time></trkpt><trkpt lat="48.457715" lon="-4.214745"><ele>115.0</ele><time>2026-04-26T08:05:10.675Z</time></trkpt><trkpt lat="48.457815" lon="-4.21453"><ele>114.66666666666667</ele><time>2026-04-26T08:05:11.676Z</time></trkpt><trkpt lat="48.4579183" lon="-4.21432"><ele>114.33333333333334</ele><time>2026-04-26T08:05:12.674Z</time></trkpt><trkpt lat="48.4580217" lon="-4.21411"><ele>114.0</ele><time>2026-04-26T08:05:13.676Z</time></trkpt><trkpt lat="48.4581283" lon="-4.2139033"><ele>115.33333333333334</ele><time>2026-04-26T08:05:14.674Z</time></trkpt><trkpt lat="48.4582383" lon="-4.2137033"><ele>116.66666666666667</ele><time>2026-04-26T08:05:15.676Z</time></trkpt><trkpt lat="48.45835" lon="-4.2135167"><ele>118.0</ele><time>2026-04-26T08:05:16.675Z</time></trkpt><trkpt lat="48.45847" lon="-4.2133367"><ele>118.0</ele><time>2026-04-26T08:05:17.676Z</time></trkpt><trkpt lat="48.4586" lon="-4.2131767"><ele>118.0</ele><time>2026-04-26T08:05:18.676Z</time></trkpt><trkpt lat="48.4587367" lon="-4.21303"><ele>118.0</ele><time>2026-04-26T08:05:19.676Z</time></trkpt><trkpt lat="48.4588733" lon="-4.2128933"><ele>118.33333333333334</ele><time>2026-04-26T08:05:20.673Z</time></trkpt><trkpt lat="48.4590133" lon="-4.2127567"><ele>118.66666666666666</ele><time>2026-04-26T08:05:21.674Z</time></trkpt><trkpt lat="48.459155" lon="-4.2126383"><ele>119.0</ele><time>2026-04-26T08:05:22.675Z</time></trkpt><trkpt lat="48.4593" lon="-4.212525"><ele>119.0</ele><time>2026-04-26T08:05:23.678Z</time></trkpt><trkpt lat="48.4594483" lon="-4.2124183"><ele>119.0</ele><time>2026-04-26T08:05:24.675Z</time></trkpt><trkpt lat="48.4596" lon="-4.21232"><ele>119.0</ele><time>2026-04-26T08:05:25.675Z</time></trkpt><trkpt lat="48.459755" lon="-4.212225"><ele>118.66666666666666</ele><time>2026-04-26T08:05:26.674Z</time></trkpt><trkpt lat="48.4599117" lon="-4.2121267"><ele>118.33333333333334</ele><time>2026-04-26T08:05:27.676Z</time></trkpt><trkpt lat="48.46007" lon="-4.21203"><ele>118.0</ele><time>2026-04-26T08:05:28.678Z</time></trkpt><trkpt lat="48.4602283" lon="-4.2119317"><ele>118.0</ele><time>2026-04-26T08:05:29.676Z</time></trkpt><trkpt lat="48.4603933" lon="-4.21183"><ele>118.0</ele><time>2026-04-26T08:05:30.681Z</time></trkpt><trkpt lat="48.46056" lon="-4.2117283"><ele>118.0</ele><time>2026-04-26T08:05:31.679Z</time></trkpt><trkpt lat="48.4607267" lon="-4.21162"><ele>118.0</ele><time>2026-04-26T08:05:32.677Z</time></trkpt><trkpt lat="48.46089" lon="-4.211505"><ele>118.0</ele><time>2026-04-26T08:05:33.675Z</time></trkpt><trkpt lat="48.4610467" lon="-4.2113717"><ele>118.0</ele><time>2026-04-26T08:05:34.676Z</time></trkpt><trkpt lat="48.4611917" lon="-4.211225"><ele>116.33333333333334</ele><time>2026-04-26T08:05:35.679Z</time></trkpt><trkpt lat="48.46133" lon="-4.211075"><ele>114.66666666666666</ele><time>2026-04-26T08:05:36.677Z</time></trkpt><trkpt lat="48.4614617" lon="-4.2109267"><ele>113.0</ele><time>2026-04-26T08:05:37.674Z</time></trkpt><trkpt lat="48.461595" lon="-4.2107767"><ele>113.0</ele><time>2026-04-26T08:05:38.706Z</time></trkpt><trkpt lat="48.4617283" lon="-4.21063"><ele>113.0</ele><time>2026-04-26T08:05:39.675Z</time></trkpt><trkpt lat="48.461865" lon="-4.2104883"><ele>113.0</ele><time>2026-04-26T08:05:40.674Z</time></trkpt><trkpt lat="48.4620033" lon="-4.2103533"><ele>111.66666666666666</ele><time>2026-04-26T08:05:41.68Z</time></trkpt><trkpt lat="48.4621433" lon="-4.210235"><ele>110.33333333333334</ele><time>2026-04-26T08:05:42.674Z</time></trkpt><trkpt lat="48.4622833" lon="-4.2101383"><ele>109.0</ele><time>2026-04-26T08:05:43.675Z</time></trkpt><trkpt lat="48.4624233" lon="-4.2100517"><ele>109.0</ele><time>2026-04-26T08:05:44.675Z</time></trkpt><trkpt lat="48.462565" lon="-4.2099783"><ele>109.0</ele><time>2026-04-26T08:05:45.678Z</time></trkpt><trkpt lat="48.4627067" lon="-4.2099183"><ele>109.0</ele><time>2026-04-26T08:05:46.674Z</time></trkpt><trkpt lat="48.4628467" lon="-4.2098767"><ele>109.0</ele><time>2026-04-26T08:05:47.676Z</time></trkpt><trkpt lat="48.4629833" lon="-4.2098483"><ele>109.25</ele><time>2026-04-26T08:05:48.676Z</time></trkpt><trkpt lat="48.4631133" lon="-4.2098217"><ele>109.5</ele><time>2026-04-26T08:05:49.676Z</time></trkpt><trkpt lat="48.4632433" lon="-4.2097933"><ele>109.75</ele><time>2026-04-26T08:05:50.676Z</time></trkpt><trkpt lat="48.4633767" lon="-4.2097667"><ele>110.0</ele><time>2026-04-26T08:05:51.676Z</time></trkpt><trkpt lat="48.463515" lon="-4.2097433"><ele>110.0</ele><time>2026-04-26T08:05:52.675Z</time></trkpt><trkpt lat="48.4636567" lon="-4.2097217"><ele>110.0</ele><time>2026-04-26T08:05:53.677Z</time></trkpt><trkpt lat="48.4637967" lon="-4.2097033"><ele>110.0</ele><time>2026-04-26T08:05:54.676Z</time></trkpt><trkpt lat="48.4639317" lon="-4.209685"><ele>110.0</ele><time>2026-04-26T08:05:55.676Z</time></trkpt><trkpt lat="48.46406" lon="-4.2096783"><ele>107.5</ele><time>2026-04-26T08:05:56.684Z</time></trkpt><trkpt lat="48.4641967" lon="-4.2096733"><ele>105.0</ele><time>2026-04-26T08:05:57.676Z</time></trkpt><trkpt lat="48.4643333" lon="-4.209655"><ele>102.5</ele><time>2026-04-26T08:05:58.676Z</time></trkpt><trkpt lat="48.4644683" lon="-4.2096333"><ele>100.0</ele><time>2026-04-26T08:05:59.679Z</time></trkpt><trkpt lat="48.464605" lon="-4.2096167"><ele>98.0</ele><time>2026-04-26T08:06:00.677Z</time></trkpt><trkpt lat="48.4647417" lon="-4.2095983"><ele>96.0</ele><time>2026-04-26T08:06:01.679Z</time></trkpt><trkpt lat="48.4648733" lon="-4.2095683"><ele>94.0</ele><time>2026-04-26T08:06:02.68Z</time></trkpt><trkpt lat="48.4650017" lon="-4.20953"><ele>92.0</ele><time>2026-04-26T08:06:03.677Z</time></trkpt><trkpt lat="48.4651267" lon="-4.2094733"><ele>92.0</ele><time>2026-04-26T08:06:04.681Z</time></trkpt><trkpt lat="48.46525" lon="-4.2094117"><ele>92.0</ele><time>2026-04-26T08:06:05.68Z</time></trkpt><trkpt lat="48.465375" lon="-4.2093267"><ele>92.0</ele><time>2026-04-26T08:06:06.677Z</time></trkpt><trkpt lat="48.4654967" lon="-4.2092067"><ele>92.0</ele><time>2026-04-26T08:06:07.677Z</time></trkpt><trkpt lat="48.4656083" lon="-4.2090867"><ele>90.5</ele><time>2026-04-26T08:06:08.676Z</time></trkpt><trkpt lat="48.4657183" lon="-4.2089717"><ele>89.0</ele><time>2026-04-26T08:06:09.676Z</time></trkpt><trkpt lat="48.4658283" lon="-4.2088633"><ele>87.5</ele><time>2026-04-26T08:06:10.673Z</time></trkpt><trkpt lat="48.4659383" lon="-4.2087483"><ele>86.0</ele><time>2026-04-26T08:06:11.674Z</time></trkpt><trkpt lat="48.4660433" lon="-4.2086417"><ele>86.0</ele><time>2026-04-26T08:06:12.677Z</time></trkpt><trkpt lat="48.4661467" lon="-4.2085383"><ele>86.0</ele><time>2026-04-26T08:06:13.675Z</time></trkpt><trkpt lat="48.466245" lon="-4.2084383"><ele>86.0</ele><time>2026-04-26T08:06:14.676Z</time></trkpt><trkpt lat="48.4663333" lon="-4.20835"><ele>86.0</ele><time>2026-04-26T08:06:15.675Z</time></trkpt><trkpt lat="48.46641" lon="-4.2082667"><ele>86.0</ele><time>2026-04-26T08:06:16.677Z</time></trkpt><trkpt lat="48.4664767" lon="-4.2081917"><ele>83.83333333333334</ele><time>2026-04-26T08:06:17.677Z</time></trkpt><trkpt lat="48.466525" lon="-4.2081267"><ele>81.66666666666667</ele><time>2026-04-26T08:06:18.673Z</time></trkpt><trkpt lat="48.466565" lon="-4.2080333"><ele>79.5</ele><time>2026-04-26T08:06:20.676Z</time></trkpt><trkpt lat="48.4665617" lon="-4.2079117"><ele>77.33333333333333</ele><time>2026-04-26T08:06:31.679Z</time></trkpt><trkpt lat="48.4665367" lon="-4.2078117"><ele>75.16666666666666</ele><time>2026-04-26T08:06:32.676Z</time></trkpt><trkpt lat="48.4665017" lon="-4.2076867"><ele>73.0</ele><time>2026-04-26T08:06:33.677Z</time></trkpt><trkpt lat="48.466465" lon="-4.207545"><ele>73.0</ele><time>2026-04-26T08:06:34.68Z</time></trkpt><trkpt lat="48.4664283" lon="-4.2073833"><ele>73.0</ele><time>2026-04-26T08:06:35.675Z</time></trkpt><trkpt lat="48.4663933" lon="-4.2072033"><ele>73.0</ele><time>2026-04-26T08:06:36.677Z</time></trkpt><trkpt lat="48.466355" lon="-4.207005"><ele>73.0</ele><time>2026-04-26T08:06:37.681Z</time></trkpt><trkpt lat="48.4663133" lon="-4.2067933"><ele>76.66666666666666</ele><time>2026-04-26T08:06:38.681Z</time></trkpt><trkpt lat="48.46627" lon="-4.20657"><ele>80.33333333333333</ele><time>2026-04-26T08:06:39.678Z</time></trkpt><trkpt lat="48.46621" lon="-4.2063467"><ele>84.0</ele><time>2026-04-26T08:06:40.676Z</time></trkpt><trkpt lat="48.4661383" lon="-4.2061233"><ele>84.0</ele><time>2026-04-26T08:06:41.677Z</time></trkpt><trkpt lat="48.4660617" lon="-4.2059"><ele>84.0</ele><time>2026-04-26T08:06:42.674Z</time></trkpt><trkpt lat="48.4659767" lon="-4.2056783"><ele>84.0</ele><time>2026-04-26T08:06:43.674Z</time></trkpt><trkpt lat="48.465895" lon="-4.2054467"><ele>80.66666666666667</ele><time>2026-04-26T08:06:44.676Z</time></trkpt><trkpt lat="48.46581" lon="-4.205225"><ele>77.33333333333334</ele><time>2026-04-26T08:06:45.677Z</time></trkpt><trkpt lat="48.46572" lon="-4.2050067"><ele>74.0</ele><time>2026-04-26T08:06:46.673Z</time></trkpt><trkpt lat="48.4656233" lon="-4.2047967"><ele>69.66666666666667</ele><time>2026-04-26T08:06:47.676Z</time></trkpt><trkpt lat="48.465515" lon="-4.2046067"><ele>65.33333333333333</ele><time>2026-04-26T08:06:48.68Z</time></trkpt><trkpt lat="48.4653933" lon="-4.20442"><ele>61.0</ele><time>2026-04-26T08:06:49.675Z</time></trkpt><trkpt lat="48.4652733" lon="-4.2042283"><ele>64.0</ele><time>2026-04-26T08:06:50.679Z</time></trkpt><trkpt lat="48.4651467" lon="-4.204035"><ele>67.0</ele><time>2026-04-26T08:06:51.675Z</time></trkpt><trkpt lat="48.46502" lon="-4.2038417"><ele>70.0</ele><time>2026-04-26T08:06:52.674Z</time></trkpt><trkpt lat="48.4648867" lon="-4.2036467"><ele>70.0</ele><time>2026-04-26T08:06:53.677Z</time></trkpt><trkpt lat="48.4647533" lon="-4.2034483"><ele>70.0</ele><time>2026-04-26T08:06:54.674Z</time></trkpt><trkpt lat="48.4646267" lon="-4.2032333"><ele>70.0</ele><time>2026-04-26T08:06:55.675Z</time></trkpt><trkpt lat="48.46452" lon="-4.2030017"><ele>76.0</ele><time>2026-04-26T08:06:56.677Z</time></trkpt><trkpt lat="48.46444" lon="-4.20275"><ele>82.0</ele><time>2026-04-26T08:06:57.679Z</time></trkpt><trkpt lat="48.4643817" lon="-4.2025067"><ele>88.0</ele><time>2026-04-26T08:06:58.673Z</time></trkpt><trkpt lat="48.4643633" lon="-4.202245"><ele>88.0</ele><time>2026-04-26T08:06:59.677Z</time></trkpt><trkpt lat="48.4643867" lon="-4.2019883"><ele>88.0</ele><time>2026-04-26T08:07:00.675Z</time></trkpt><trkpt lat="48.46443" lon="-4.201725"><ele>88.0</ele><time>2026-04-26T08:07:01.678Z</time></trkpt><trkpt lat="48.4644717" lon="-4.2014683"><ele>87.66666666666666</ele><time>2026-04-26T08:07:02.678Z</time></trkpt><trkpt lat="48.464535" lon="-4.2012017"><ele>87.33333333333333</ele><time>2026-04-26T08:07:03.674Z</time></trkpt><trkpt lat="48.4645917" lon="-4.2009367"><ele>87.0</ele><time>2026-04-26T08:07:04.673Z</time></trkpt><trkpt lat="48.464645" lon="-4.2006633"><ele>79.66666666666667</ele><time>2026-04-26T08:07:05.677Z</time></trkpt><trkpt lat="48.4646917" lon="-4.2003867"><ele>72.33333333333334</ele><time>2026-04-26T08:07:06.674Z</time></trkpt><trkpt lat="48.4647167" lon="-4.2001033"><ele>65.0</ele><time>2026-04-26T08:07:07.679Z</time></trkpt><trkpt lat="48.464715" lon="-4.199815"><ele>64.66666666666667</ele><time>2026-04-26T08:07:08.677Z</time></trkpt><trkpt lat="48.464695" lon="-4.1995233"><ele>64.33333333333333</ele><time>2026-04-26T08:07:09.678Z</time></trkpt><trkpt lat="48.4646617" lon="-4.1992317"><ele>64.0</ele><time>2026-04-26T08:07:10.676Z</time></trkpt><trkpt lat="48.4646317" lon="-4.198935"><ele>71.33333333333333</ele><time>2026-04-26T08:07:11.674Z</time></trkpt><trkpt lat="48.4646067" lon="-4.1986433"><ele>78.66666666666667</ele><time>2026-04-26T08:07:12.675Z</time></trkpt><trkpt lat="48.46459" lon="-4.1983583"><ele>86.0</ele><time>2026-04-26T08:07:13.673Z</time></trkpt><trkpt lat="48.4645867" lon="-4.1980717"><ele>86.0</ele><time>2026-04-26T08:07:14.673Z</time></trkpt><trkpt lat="48.4645817" lon="-4.1977933"><ele>86.0</ele><time>2026-04-26T08:07:15.68Z</time></trkpt><trkpt lat="48.46456" lon="-4.1975167"><ele>86.0</ele><time>2026-04-26T08:07:16.676Z</time></trkpt><trkpt lat="48.464485" lon="-4.1972183"><ele>82.66666666666667</ele><time>2026-04-26T08:07:17.677Z</time></trkpt><trkpt lat="48.4644" lon="-4.19696"><ele>79.33333333333333</ele><time>2026-04-26T08:07:18.678Z</time></trkpt><trkpt lat="48.4642917" lon="-4.1967233"><ele>76.0</ele><time>2026-04-26T08:07:19.674Z</time></trkpt><trkpt lat="48.4641717" lon="-4.1964933"><ele>76.66666666666666</ele><time>2026-04-26T08:07:20.679Z</time></trkpt><trkpt lat="48.4640383" lon="-4.1962767"><ele>77.33333333333333</ele><time>2026-04-26T08:07:21.679Z</time></trkpt><trkpt lat="48.46389" lon="-4.1960817"><ele>78.0</ele><time>2026-04-26T08:07:22.677Z</time></trkpt><trkpt lat="48.463715" lon="-4.1959133"><ele>78.0</ele><time>2026-04-26T08:07:23.676Z</time></trkpt><trkpt lat="48.4635467" lon="-4.195735"><ele>78.0</ele><time>2026-04-26T08:07:24.68Z</time></trkpt><trkpt lat="48.4633783" lon="-4.19554"><ele>78.0</ele><time>2026-04-26T08:07:25.675Z</time></trkpt><trkpt lat="48.4631967" lon="-4.19536"><ele>78.33333333333333</ele><time>2026-04-26T08:07:26.678Z</time></trkpt><trkpt lat="48.463035" lon="-4.1951833"><ele>78.66666666666666</ele><time>2026-04-26T08:07:27.676Z</time></trkpt><trkpt lat="48.4628783" lon="-4.1950067"><ele>79.0</ele><time>2026-04-26T08:07:28.672Z</time></trkpt><trkpt lat="48.4627183" lon="-4.1948317"><ele>74.33333333333333</ele><time>2026-04-26T08:07:29.674Z</time></trkpt><trkpt lat="48.4625617" lon="-4.1946683"><ele>69.66666666666667</ele><time>2026-04-26T08:07:30.68Z</time></trkpt><trkpt lat="48.4623933" lon="-4.19453"><ele>65.0</ele><time>2026-04-26T08:07:31.68Z</time></trkpt><trkpt lat="48.4622183" lon="-4.194415"><ele>67.66666666666667</ele><time>2026-04-26T08:07:32.675Z</time></trkpt><trkpt lat="48.4620317" lon="-4.1943233"><ele>70.33333333333333</ele><time>2026-04-26T08:07:33.673Z</time></trkpt><trkpt lat="48.4618417" lon="-4.1942417"><ele>73.0</ele><time>2026-04-26T08:07:34.675Z</time></trkpt><trkpt lat="48.4616467" lon="-4.1941633"><ele>73.0</ele><time>2026-04-26T08:07:35.673Z</time></trkpt><trkpt lat="48.461455" lon="-4.1940883"><ele>73.0</ele><time>2026-04-26T08:07:36.674Z</time></trkpt><trkpt lat="48.4612667" lon="-4.194005"><ele>73.0</ele><time>2026-04-26T08:07:37.681Z</time></trkpt><trkpt lat="48.46108" lon="-4.19392"><ele>72.0</ele><time>2026-04-26T08:07:38.679Z</time></trkpt><trkpt lat="48.4608983" lon="-4.1938267"><ele>71.0</ele><time>2026-04-26T08:07:39.674Z</time></trkpt><trkpt lat="48.4607217" lon="-4.1937217"><ele>70.0</ele><time>2026-04-26T08:07:40.675Z</time></trkpt><trkpt lat="48.4605533" lon="-4.193625"><ele>72.66666666666666</ele><time>2026-04-26T08:07:41.675Z</time></trkpt><trkpt lat="48.4603867" lon="-4.1935217"><ele>75.33333333333333</ele><time>2026-04-26T08:07:42.677Z</time></trkpt><trkpt lat="48.46022" lon="-4.1934417"><ele>78.0</ele><time>2026-04-26T08:07:43.675Z</time></trkpt><trkpt lat="48.4600517" lon="-4.1933917"><ele>78.0</ele><time>2026-04-26T08:07:44.706Z</time></trkpt><trkpt lat="48.4598867" lon="-4.19336"><ele>78.0</ele><time>2026-04-26T08:07:45.676Z</time></trkpt><trkpt lat="48.4597233" lon="-4.1933433"><ele>78.0</ele><time>2026-04-26T08:07:46.673Z</time></trkpt><trkpt lat="48.4595717" lon="-4.1933317"><ele>79.25</ele><time>2026-04-26T08:07:47.675Z</time></trkpt><trkpt lat="48.45942" lon="-4.1933233"><ele>80.5</ele><time>2026-04-26T08:07:48.676Z</time></trkpt><trkpt lat="48.4592717" lon="-4.1933117"><ele>81.75</ele><time>2026-04-26T08:07:49.675Z</time></trkpt><trkpt lat="48.45913" lon="-4.1932867"><ele>83.0</ele><time>2026-04-26T08:07:50.675Z</time></trkpt><trkpt lat="48.458995" lon="-4.1932633"><ele>83.0</ele><time>2026-04-26T08:07:51.678Z</time></trkpt><trkpt lat="48.45886" lon="-4.1932367"><ele>83.0</ele><time>2026-04-26T08:07:52.676Z</time></trkpt><trkpt lat="48.4587283" lon="-4.1931883"><ele>83.0</ele><time>2026-04-26T08:07:53.678Z</time></trkpt><trkpt lat="48.4586067" lon="-4.193125"><ele>83.0</ele><time>2026-04-26T08:07:54.678Z</time></trkpt><trkpt lat="48.458495" lon="-4.1930383"><ele>80.25</ele><time>2026-04-26T08:07:55.674Z</time></trkpt><trkpt lat="48.4584067" lon="-4.1929"><ele>77.5</ele><time>2026-04-26T08:07:56.678Z</time></trkpt><trkpt lat="48.4583433" lon="-4.1927283"><ele>74.75</ele><time>2026-04-26T08:07:57.672Z</time></trkpt><trkpt lat="48.4582917" lon="-4.192545"><ele>72.0</ele><time>2026-04-26T08:07:58.673Z</time></trkpt><trkpt lat="48.4582467" lon="-4.1923633"><ele>74.25</ele><time>2026-04-26T08:07:59.673Z</time></trkpt><trkpt lat="48.4581967" lon="-4.1921917"><ele>76.5</ele><time>2026-04-26T08:08:00.676Z</time></trkpt><trkpt lat="48.4581383" lon="-4.192025"><ele>78.75</ele><time>2026-04-26T08:08:01.674Z</time></trkpt><trkpt lat="48.4580667" lon="-4.1918617"><ele>81.0</ele><time>2026-04-26T08:08:02.676Z</time></trkpt><trkpt lat="48.4579733" lon="-4.1917083"><ele>81.66666666666667</ele><time>2026-04-26T08:08:03.675Z</time></trkpt><trkpt lat="48.457865" lon="-4.191555"><ele>82.33333333333334</ele><time>2026-04-26T08:08:04.673Z</time></trkpt><trkpt lat="48.457745" lon="-4.1913883"><ele>83.0</ele><time>2026-04-26T08:08:05.678Z</time></trkpt><trkpt lat="48.457605" lon="-4.191205"><ele>83.0</ele><time>2026-04-26T08:08:06.679Z</time></trkpt><trkpt lat="48.457455" lon="-4.1910233"><ele>83.0</ele><time>2026-04-26T08:08:07.681Z</time></trkpt><trkpt lat="48.45731" lon="-4.1908267"><ele>83.0</ele><time>2026-04-26T08:08:08.674Z</time></trkpt><trkpt lat="48.45716" lon="-4.1906333"><ele>84.0</ele><time>2026-04-26T08:08:09.675Z</time></trkpt><trkpt lat="48.45701" lon="-4.1904367"><ele>85.0</ele><time>2026-04-26T08:08:10.68Z</time></trkpt><trkpt lat="48.45686" lon="-4.1902383"><ele>86.0</ele><time>2026-04-26T08:08:11.676Z</time></trkpt><trkpt lat="48.45671" lon="-4.19004"><ele>86.0</ele><time>2026-04-26T08:08:12.673Z</time></trkpt><trkpt lat="48.4565567" lon="-4.18985"><ele>86.0</ele><time>2026-04-26T08:08:13.672Z</time></trkpt><trkpt lat="48.4564067" lon="-4.1896583"><ele>86.0</ele><time>2026-04-26T08:08:14.675Z</time></trkpt><trkpt lat="48.4562583" lon="-4.189465"><ele>85.66666666666667</ele><time>2026-04-26T08:08:15.674Z</time></trkpt><trkpt lat="48.4561083" lon="-4.1892717"><ele>85.33333333333333</ele><time>2026-04-26T08:08:16.673Z</time></trkpt><trkpt lat="48.45596" lon="-4.1890817"><ele>85.0</ele><time>2026-04-26T08:08:17.679Z</time></trkpt><trkpt lat="48.4558133" lon="-4.1888883"><ele>85.0</ele><time>2026-04-26T08:08:18.677Z</time></trkpt><trkpt lat="48.4556717" lon="-4.1886867"><ele>85.0</ele><time>2026-04-26T08:08:19.676Z</time></trkpt><trkpt lat="48.455535" lon="-4.18848"><ele>85.0</ele><time>2026-04-26T08:08:20.677Z</time></trkpt><trkpt lat="48.4554033" lon="-4.1882683"><ele>88.0</ele><time>2026-04-26T08:08:21.677Z</time></trkpt><trkpt lat="48.4552733" lon="-4.188055"><ele>91.0</ele><time>2026-04-26T08:08:22.681Z</time></trkpt><trkpt lat="48.4551433" lon="-4.187835"><ele>94.0</ele><time>2026-04-26T08:08:23.678Z</time></trkpt><trkpt lat="48.4550133" lon="-4.1876183"><ele>94.0</ele><time>2026-04-26T08:08:24.673Z</time></trkpt><trkpt lat="48.45488" lon="-4.1873983"><ele>94.0</ele><time>2026-04-26T08:08:25.673Z</time></trkpt><trkpt lat="48.454755" lon="-4.1871817"><ele>94.0</ele><time>2026-04-26T08:08:26.675Z</time></trkpt><trkpt lat="48.4546283" lon="-4.1869617"><ele>93.33333333333333</ele><time>2026-04-26T08:08:27.673Z</time></trkpt><trkpt lat="48.4545033" lon="-4.186745"><ele>92.66666666666667</ele><time>2026-04-26T08:08:28.673Z</time></trkpt><trkpt lat="48.4543767" lon="-4.1865267"><ele>92.0</ele><time>2026-04-26T08:08:29.673Z</time></trkpt><trkpt lat="48.4542483" lon="-4.1863067"><ele>94.66666666666667</ele><time>2026-04-26T08:08:30.673Z</time></trkpt><trkpt lat="48.45412" lon="-4.1860917"><ele>97.33333333333334</ele><time>2026-04-26T08:08:31.675Z</time></trkpt><trkpt lat="48.4539883" lon="-4.18588"><ele>100.0</ele><time>2026-04-26T08:08:32.675Z</time></trkpt><trkpt lat="48.4538433" lon="-4.1856917"><ele>101.0</ele><time>2026-04-26T08:08:33.675Z</time></trkpt><trkpt lat="48.4536817" lon="-4.185535"><ele>102.0</ele><time>2026-04-26T08:08:34.678Z</time></trkpt><trkpt lat="48.4535117" lon="-4.1853983"><ele>103.0</ele><time>2026-04-26T08:08:35.678Z</time></trkpt><trkpt lat="48.4533367" lon="-4.1852783"><ele>103.0</ele><time>2026-04-26T08:08:36.682Z</time></trkpt><trkpt lat="48.4531567" lon="-4.185165"><ele>103.0</ele><time>2026-04-26T08:08:37.676Z</time></trkpt><trkpt lat="48.4529767" lon="-4.1850483"><ele>103.0</ele><time>2026-04-26T08:08:38.676Z</time></trkpt><trkpt lat="48.452795" lon="-4.1849317"><ele>104.66666666666667</ele><time>2026-04-26T08:08:39.677Z</time></trkpt><trkpt lat="48.452615" lon="-4.1848217"><ele>106.33333333333334</ele><time>2026-04-26T08:08:40.673Z</time></trkpt><trkpt lat="48.452435" lon="-4.18471"><ele>108.0</ele><time>2026-04-26T08:08:41.676Z</time></trkpt><trkpt lat="48.4522567" lon="-4.1845883"><ele>107.66666666666666</ele><time>2026-04-26T08:08:42.675Z</time></trkpt><trkpt lat="48.4520783" lon="-4.1844717"><ele>107.33333333333333</ele><time>2026-04-26T08:08:43.674Z</time></trkpt><trkpt lat="48.4518983" lon="-4.1843533"><ele>107.0</ele><time>2026-04-26T08:08:44.673Z</time></trkpt><trkpt lat="48.4517183" lon="-4.1842367"><ele>107.0</ele><time>2026-04-26T08:08:45.677Z</time></trkpt><trkpt lat="48.45154" lon="-4.1841217"><ele>107.0</ele><time>2026-04-26T08:08:46.676Z</time></trkpt><trkpt lat="48.4513583" lon="-4.1840033"><ele>107.0</ele><time>2026-04-26T08:08:47.674Z</time></trkpt><trkpt lat="48.45118" lon="-4.1838817"><ele>109.0</ele><time>2026-04-26T08:08:48.681Z</time></trkpt><trkpt lat="48.451" lon="-4.1837617"><ele>111.0</ele><time>2026-04-26T08:08:49.676Z</time></trkpt><trkpt lat="48.4508167" lon="-4.1836483"><ele>113.0</ele><time>2026-04-26T08:08:50.676Z</time></trkpt><trkpt lat="48.4506333" lon="-4.1835283"><ele>113.33333333333333</ele><time>2026-04-26T08:08:51.677Z</time></trkpt><trkpt lat="48.45045" lon="-4.1834117"><ele>113.66666666666666</ele><time>2026-04-26T08:08:52.676Z</time></trkpt><trkpt lat="48.4502667" lon="-4.1832967"><ele>114.0</ele><time>2026-04-26T08:08:53.674Z</time></trkpt><trkpt lat="48.4500867" lon="-4.1831817"><ele>115.66666666666666</ele><time>2026-04-26T08:08:54.678Z</time></trkpt><trkpt lat="48.4499067" lon="-4.183065"><ele>117.33333333333333</ele><time>2026-04-26T08:08:55.674Z</time></trkpt><trkpt lat="48.44973" lon="-4.182945"><ele>119.0</ele><time>2026-04-26T08:08:56.675Z</time></trkpt><trkpt lat="48.4495617" lon="-4.1828267"><ele>119.0</ele><time>2026-04-26T08:08:57.674Z</time></trkpt><trkpt lat="48.4494033" lon="-4.182715"><ele>119.0</ele><time>2026-04-26T08:08:58.677Z</time></trkpt><trkpt lat="48.4492533" lon="-4.1826133"><ele>119.0</ele><time>2026-04-26T08:08:59.675Z</time></trkpt><trkpt lat="48.44911" lon="-4.182525"><ele>119.0</ele><time>2026-04-26T08:09:00.674Z</time></trkpt><trkpt lat="48.4489633" lon="-4.1824467"><ele>119.0</ele><time>2026-04-26T08:09:01.678Z</time></trkpt><trkpt lat="48.44881" lon="-4.1823883"><ele>119.0</ele><time>2026-04-26T08:09:02.684Z</time></trkpt><trkpt lat="48.4486467" lon="-4.18236"><ele>120.0</ele><time>2026-04-26T08:09:03.674Z</time></trkpt><trkpt lat="48.4484767" lon="-4.1823467"><ele>121.0</ele><time>2026-04-26T08:09:04.676Z</time></trkpt><trkpt lat="48.4483017" lon="-4.182345"><ele>122.0</ele><time>2026-04-26T08:09:05.674Z</time></trkpt><trkpt lat="48.4481267" lon="-4.1823733"><ele>123.0</ele><time>2026-04-26T08:09:06.676Z</time></trkpt><trkpt lat="48.44795" lon="-4.182435"><ele>124.0</ele><time>2026-04-26T08:09:07.674Z</time></trkpt><trkpt lat="48.4477733" lon="-4.1825383"><ele>125.0</ele><time>2026-04-26T08:09:08.679Z</time></trkpt><trkpt lat="48.4475933" lon="-4.1826667"><ele>125.0</ele><time>2026-04-26T08:09:09.676Z</time></trkpt><trkpt lat="48.4474083" lon="-4.1828"><ele>125.0</ele><time>2026-04-26T08:09:10.677Z</time></trkpt><trkpt lat="48.4472283" lon="-4.1829367"><ele>125.0</ele><time>2026-04-26T08:09:11.673Z</time></trkpt><trkpt lat="48.4470517" lon="-4.1830783"><ele>126.0</ele><time>2026-04-26T08:09:12.678Z</time></trkpt><trkpt lat="48.446875" lon="-4.1832233"><ele>127.0</ele><time>2026-04-26T08:09:13.673Z</time></trkpt><trkpt lat="48.4467" lon="-4.1833667"><ele>128.0</ele><time>2026-04-26T08:09:14.675Z</time></trkpt><trkpt lat="48.4465267" lon="-4.1835033"><ele>128.0</ele><time>2026-04-26T08:09:15.676Z</time></trkpt><trkpt lat="48.44635" lon="-4.1836283"><ele>128.0</ele><time>2026-04-26T08:09:16.675Z</time></trkpt><trkpt lat="48.4461717" lon="-4.1837333"><ele>128.0</ele><time>2026-04-26T08:09:17.677Z</time></trkpt><trkpt lat="48.4459867" lon="-4.183815"><ele>129.66666666666666</ele><time>2026-04-26T08:09:18.676Z</time></trkpt><trkpt lat="48.4458033" lon="-4.1838767"><ele>131.33333333333334</ele><time>2026-04-26T08:09:19.676Z</time></trkpt><trkpt lat="48.4456183" lon="-4.1839117"><ele>133.0</ele><time>2026-04-26T08:09:20.675Z</time></trkpt><trkpt lat="48.4454283" lon="-4.1839183"><ele>134.33333333333334</ele><time>2026-04-26T08:09:21.676Z</time></trkpt><trkpt lat="48.4452367" lon="-4.1839033"><ele>135.66666666666666</ele><time>2026-04-26T08:09:22.674Z</time></trkpt><trkpt lat="48.4450417" lon="-4.1838733"><ele>137.0</ele><time>2026-04-26T08:09:23.676Z</time></trkpt><trkpt lat="48.4448417" lon="-4.1838367"><ele>137.0</ele><time>2026-04-26T08:09:24.676Z</time></trkpt><trkpt lat="48.4446367" lon="-4.1837933"><ele>137.0</ele><time>2026-04-26T08:09:25.676Z</time></trkpt><trkpt lat="48.4444317" lon="-4.18375"><ele>137.0</ele><time>2026-04-26T08:09:26.675Z</time></trkpt><trkpt lat="48.4442267" lon="-4.1837067"><ele>138.33333333333331</ele><time>2026-04-26T08:09:27.676Z</time></trkpt><trkpt lat="48.444025" lon="-4.1836633"><ele>139.66666666666666</ele><time>2026-04-26T08:09:28.679Z</time></trkpt><trkpt lat="48.443825" lon="-4.18362"><ele>141.0</ele><time>2026-04-26T08:09:29.675Z</time></trkpt><trkpt lat="48.443625" lon="-4.1835733"><ele>141.33333333333334</ele><time>2026-04-26T08:09:30.676Z</time></trkpt><trkpt lat="48.4434283" lon="-4.18353"><ele>141.66666666666669</ele><time>2026-04-26T08:09:31.675Z</time></trkpt><trkpt lat="48.4432333" lon="-4.1834833"><ele>142.0</ele><time>2026-04-26T08:09:32.675Z</time></trkpt><trkpt lat="48.4430383" lon="-4.18344"><ele>143.0</ele><time>2026-04-26T08:09:33.679Z</time></trkpt><trkpt lat="48.442845" lon="-4.183395"><ele>144.0</ele><time>2026-04-26T08:09:34.672Z</time></trkpt><trkpt lat="48.4426533" lon="-4.183355"><ele>145.0</ele><time>2026-04-26T08:09:35.673Z</time></trkpt><trkpt lat="48.4424617" lon="-4.1833133"><ele>145.0</ele><time>2026-04-26T08:09:36.674Z</time></trkpt><trkpt lat="48.4422733" lon="-4.1832733"><ele>145.0</ele><time>2026-04-26T08:09:37.678Z</time></trkpt><trkpt lat="48.4420833" lon="-4.1832283"><ele>145.0</ele><time>2026-04-26T08:09:38.675Z</time></trkpt><trkpt lat="48.441895" lon="-4.1831883"><ele>146.33333333333334</ele><time>2026-04-26T08:09:39.679Z</time></trkpt><trkpt lat="48.4417067" lon="-4.1831483"><ele>147.66666666666666</ele><time>2026-04-26T08:09:40.674Z</time></trkpt><trkpt lat="48.4415183" lon="-4.183105"><ele>149.0</ele><time>2026-04-26T08:09:41.677Z</time></trkpt><trkpt lat="48.4413283" lon="-4.1830633"><ele>150.0</ele><time>2026-04-26T08:09:42.673Z</time></trkpt><trkpt lat="48.4411383" lon="-4.1830217"><ele>151.0</ele><time>2026-04-26T08:09:43.676Z</time></trkpt><trkpt lat="48.4409467" lon="-4.18298"><ele>152.0</ele><time>2026-04-26T08:09:44.677Z</time></trkpt><trkpt lat="48.4407567" lon="-4.18294"><ele>152.0</ele><time>2026-04-26T08:09:45.676Z</time></trkpt><trkpt lat="48.4405667" lon="-4.1828983"><ele>152.0</ele><time>2026-04-26T08:09:46.681Z</time></trkpt><trkpt lat="48.4403783" lon="-4.182855"><ele>152.0</ele><time>2026-04-26T08:09:47.676Z</time></trkpt><trkpt lat="48.4401917" lon="-4.1828133"><ele>153.66666666666666</ele><time>2026-04-26T08:09:48.674Z</time></trkpt><trkpt lat="48.4400117" lon="-4.18277"><ele>155.33333333333334</ele><time>2026-04-26T08:09:49.679Z</time></trkpt><trkpt lat="48.4398383" lon="-4.1827183"><ele>157.0</ele><time>2026-04-26T08:09:50.674Z</time></trkpt><trkpt lat="48.4396767" lon="-4.1826517"><ele>157.5</ele><time>2026-04-26T08:09:51.679Z</time></trkpt><trkpt lat="48.4395283" lon="-4.182565"><ele>158.0</ele><time>2026-04-26T08:09:52.678Z</time></trkpt><trkpt lat="48.439395" lon="-4.1824617"><ele>158.5</ele><time>2026-04-26T08:09:53.678Z</time></trkpt><trkpt lat="48.43928" lon="-4.18235"><ele>159.0</ele><time>2026-04-26T08:09:54.675Z</time></trkpt><trkpt lat="48.4391817" lon="-4.1822417"><ele>159.4</ele><time>2026-04-26T08:09:55.68Z</time></trkpt><trkpt lat="48.4391017" lon="-4.18215"><ele>159.8</ele><time>2026-04-26T08:09:56.678Z</time></trkpt><trkpt lat="48.439025" lon="-4.182075"><ele>160.20000000000002</ele><time>2026-04-26T08:09:57.685Z</time></trkpt><trkpt lat="48.4389467" lon="-4.1820133"><ele>160.60000000000002</ele><time>2026-04-26T08:09:58.672Z</time></trkpt><trkpt lat="48.4388733" lon="-4.18194"><ele>161.0</ele><time>2026-04-26T08:09:59.676Z</time></trkpt><trkpt lat="48.4388267" lon="-4.1818317"><ele>161.0</ele><time>2026-04-26T08:10:00.674Z</time></trkpt><trkpt lat="48.4388033" lon="-4.1817017"><ele>161.0</ele><time>2026-04-26T08:10:01.676Z</time></trkpt><trkpt lat="48.438775" lon="-4.18157"><ele>161.0</ele><time>2026-04-26T08:10:02.68Z</time></trkpt><trkpt lat="48.43874" lon="-4.1814183"><ele>161.0</ele><time>2026-04-26T08:10:03.674Z</time></trkpt><trkpt lat="48.4387067" lon="-4.1812417"><ele>161.0</ele><time>2026-04-26T08:10:04.673Z</time></trkpt><trkpt lat="48.438675" lon="-4.1810467"><ele>161.0</ele><time>2026-04-26T08:10:05.675Z</time></trkpt><trkpt lat="48.43865" lon="-4.1808317"><ele>161.0</ele><time>2026-04-26T08:10:06.676Z</time></trkpt><trkpt lat="48.4386317" lon="-4.18058"><ele>161.0</ele><time>2026-04-26T08:10:07.675Z</time></trkpt><trkpt lat="48.4386233" lon="-4.1803"><ele>161.0</ele><time>2026-04-26T08:10:08.687Z</time></trkpt><trkpt lat="48.4386217" lon="-4.1800133"><ele>161.0</ele><time>2026-04-26T08:10:09.678Z</time></trkpt><trkpt lat="48.4386217" lon="-4.17973"><ele>161.0</ele><time>2026-04-26T08:10:10.672Z</time></trkpt><trkpt lat="48.4386217" lon="-4.1794467"><ele>160.66666666666666</ele><time>2026-04-26T08:10:11.675Z</time></trkpt><trkpt lat="48.43862" lon="-4.179165"><ele>160.33333333333334</ele><time>2026-04-26T08:10:12.695Z</time></trkpt><trkpt lat="48.4386183" lon="-4.1788833"><ele>160.0</ele><time>2026-04-26T08:10:13.677Z</time></trkpt><trkpt lat="48.4386167" lon="-4.1786017"><ele>160.0</ele><time>2026-04-26T08:10:14.683Z</time></trkpt><trkpt lat="48.438615" lon="-4.1783167"><ele>160.0</ele><time>2026-04-26T08:10:15.675Z</time></trkpt><trkpt lat="48.4386133" lon="-4.1780233"><ele>160.0</ele><time>2026-04-26T08:10:16.674Z</time></trkpt><trkpt lat="48.4386117" lon="-4.17773"><ele>159.66666666666669</ele><time>2026-04-26T08:10:17.674Z</time></trkpt><trkpt lat="48.43861" lon="-4.1774383"><ele>159.33333333333334</ele><time>2026-04-26T08:10:18.677Z</time></trkpt><trkpt lat="48.43861" lon="-4.1771483"><ele>159.0</ele><time>2026-04-26T08:10:19.677Z</time></trkpt><trkpt lat="48.4386067" lon="-4.1768583"><ele>158.66666666666666</ele><time>2026-04-26T08:10:20.674Z</time></trkpt><trkpt lat="48.438605" lon="-4.1765683"><ele>158.33333333333331</ele><time>2026-04-26T08:10:21.676Z</time></trkpt><trkpt lat="48.438605" lon="-4.1762767"><ele>158.0</ele><time>2026-04-26T08:10:22.673Z</time></trkpt><trkpt lat="48.4386033" lon="-4.1759833"><ele>158.0</ele><time>2026-04-26T08:10:23.677Z</time></trkpt><trkpt lat="48.4385983" lon="-4.175685"><ele>158.0</ele><time>2026-04-26T08:10:24.677Z</time></trkpt><trkpt lat="48.4385883" lon="-4.17538"><ele>158.0</ele><time>2026-04-26T08:10:25.68Z</time></trkpt><trkpt lat="48.4385733" lon="-4.1750767"><ele>157.33333333333331</ele><time>2026-04-26T08:10:26.676Z</time></trkpt><trkpt lat="48.4385483" lon="-4.1747717"><ele>156.66666666666666</ele><time>2026-04-26T08:10:27.678Z</time></trkpt><trkpt lat="48.4385133" lon="-4.1744683"><ele>156.0</ele><time>2026-04-26T08:10:28.672Z</time></trkpt><trkpt lat="48.43847" lon="-4.1741633"><ele>155.66666666666666</ele><time>2026-04-26T08:10:29.676Z</time></trkpt><trkpt lat="48.4384217" lon="-4.1738617"><ele>155.33333333333331</ele><time>2026-04-26T08:10:30.679Z</time></trkpt><trkpt lat="48.4383667" lon="-4.1735567"><ele>155.0</ele><time>2026-04-26T08:10:31.674Z</time></trkpt><trkpt lat="48.4383033" lon="-4.1732567"><ele>154.66666666666666</ele><time>2026-04-26T08:10:32.676Z</time></trkpt><trkpt lat="48.4382333" lon="-4.1729583"><ele>154.33333333333334</ele><time>2026-04-26T08:10:33.676Z</time></trkpt><trkpt lat="48.4381583" lon="-4.1726633"><ele>154.0</ele><time>2026-04-26T08:10:34.677Z</time></trkpt><trkpt lat="48.4380817" lon="-4.1723683"><ele>154.0</ele><time>2026-04-26T08:10:35.677Z</time></trkpt><trkpt lat="48.4380033" lon="-4.17208"><ele>154.0</ele><time>2026-04-26T08:10:36.679Z</time></trkpt><trkpt lat="48.4379217" lon="-4.1717883"><ele>154.0</ele><time>2026-04-26T08:10:37.719Z</time></trkpt><trkpt lat="48.437845" lon="-4.1715017"><ele>152.33333333333334</ele><time>2026-04-26T08:10:38.672Z</time></trkpt><trkpt lat="48.4377683" lon="-4.1712183"><ele>150.66666666666666</ele><time>2026-04-26T08:10:39.675Z</time></trkpt><trkpt lat="48.4376933" lon="-4.1709333"><ele>149.0</ele><time>2026-04-26T08:10:40.674Z</time></trkpt><trkpt lat="48.43762" lon="-4.1706483"><ele>148.66666666666666</ele><time>2026-04-26T08:10:41.675Z</time></trkpt><trkpt lat="48.43755" lon="-4.1703617"><ele>148.33333333333334</ele><time>2026-04-26T08:10:42.675Z</time></trkpt><trkpt lat="48.4374867" lon="-4.170075"><ele>148.0</ele><time>2026-04-26T08:10:43.68Z</time></trkpt><trkpt lat="48.43743" lon="-4.1697817"><ele>147.66666666666669</ele><time>2026-04-26T08:10:44.673Z</time></trkpt><trkpt lat="48.4373817" lon="-4.1694833"><ele>147.33333333333334</ele><time>2026-04-26T08:10:45.68Z</time></trkpt><trkpt lat="48.4373417" lon="-4.1691783"><ele>147.0</ele><time>2026-04-26T08:10:46.676Z</time></trkpt><trkpt lat="48.4373083" lon="-4.16887"><ele>146.66666666666666</ele><time>2026-04-26T08:10:47.678Z</time></trkpt><trkpt lat="48.43728" lon="-4.1685583"><ele>146.33333333333331</ele><time>2026-04-26T08:10:48.676Z</time></trkpt><trkpt lat="48.4372533" lon="-4.168245"><ele>146.0</ele><time>2026-04-26T08:10:49.678Z</time></trkpt><trkpt lat="48.4372217" lon="-4.1679283"><ele>145.66666666666666</ele><time>2026-04-26T08:10:50.676Z</time></trkpt><trkpt lat="48.4371917" lon="-4.1676083"><ele>145.33333333333334</ele><time>2026-04-26T08:10:51.678Z</time></trkpt><trkpt lat="48.437165" lon="-4.167295"><ele>145.0</ele><time>2026-04-26T08:10:52.675Z</time></trkpt><trkpt lat="48.4371367" lon="-4.1669867"><ele>145.0</ele><time>2026-04-26T08:10:53.676Z</time></trkpt><trkpt lat="48.4371083" lon="-4.1666833"><ele>145.0</ele><time>2026-04-26T08:10:54.679Z</time></trkpt><trkpt lat="48.4370783" lon="-4.1663817"><ele>145.0</ele><time>2026-04-26T08:10:55.675Z</time></trkpt><trkpt lat="48.4370483" lon="-4.1660867"><ele>145.66666666666669</ele><time>2026-04-26T08:10:56.68Z</time></trkpt><trkpt lat="48.4370233" lon="-4.1657917"><ele>146.33333333333334</ele><time>2026-04-26T08:10:57.678Z</time></trkpt><trkpt lat="48.4370017" lon="-4.1655017"><ele>147.0</ele><time>2026-04-26T08:10:58.676Z</time></trkpt><trkpt lat="48.4369767" lon="-4.1652183"><ele>147.33333333333334</ele><time>2026-04-26T08:10:59.675Z</time></trkpt><trkpt lat="48.436945" lon="-4.1649317"><ele>147.66666666666669</ele><time>2026-04-26T08:11:00.677Z</time></trkpt><trkpt lat="48.43691" lon="-4.16464"><ele>148.0</ele><time>2026-04-26T08:11:01.677Z</time></trkpt><trkpt lat="48.4368733" lon="-4.1643533"><ele>149.0</ele><time>2026-04-26T08:11:02.682Z</time></trkpt><trkpt lat="48.4368267" lon="-4.1640633"><ele>150.0</ele><time>2026-04-26T08:11:03.676Z</time></trkpt><trkpt lat="48.4367683" lon="-4.16377"><ele>151.0</ele><time>2026-04-26T08:11:04.68Z</time></trkpt><trkpt lat="48.436705" lon="-4.163485"><ele>151.0</ele><time>2026-04-26T08:11:05.675Z</time></trkpt><trkpt lat="48.436625" lon="-4.1631933"><ele>151.0</ele><time>2026-04-26T08:11:06.675Z</time></trkpt><trkpt lat="48.4365367" lon="-4.1629133"><ele>151.0</ele><time>2026-04-26T08:11:07.675Z</time></trkpt><trkpt lat="48.4364433" lon="-4.1626317"><ele>151.33333333333334</ele><time>2026-04-26T08:11:08.676Z</time></trkpt><trkpt lat="48.436355" lon="-4.1623433"><ele>151.66666666666666</ele><time>2026-04-26T08:11:09.677Z</time></trkpt><trkpt lat="48.43627" lon="-4.16205"><ele>152.0</ele><time>2026-04-26T08:11:10.678Z</time></trkpt><trkpt lat="48.4361833" lon="-4.16176"><ele>150.0</ele><time>2026-04-26T08:11:11.676Z</time></trkpt><trkpt lat="48.4360983" lon="-4.1614717"><ele>148.0</ele><time>2026-04-26T08:11:12.676Z</time></trkpt><trkpt lat="48.4360133" lon="-4.1611817"><ele>146.0</ele><time>2026-04-26T08:11:13.677Z</time></trkpt><trkpt lat="48.4359267" lon="-4.1608933"><ele>146.33333333333331</ele><time>2026-04-26T08:11:14.676Z</time></trkpt><trkpt lat="48.4358367" lon="-4.1606067"><ele>146.66666666666666</ele><time>2026-04-26T08:11:15.676Z</time></trkpt><trkpt lat="48.4357467" lon="-4.1603217"><ele>147.0</ele><time>2026-04-26T08:11:16.674Z</time></trkpt><trkpt lat="48.4356583" lon="-4.1600383"><ele>147.33333333333334</ele><time>2026-04-26T08:11:17.675Z</time></trkpt><trkpt lat="48.4355717" lon="-4.159755"><ele>147.66666666666669</ele><time>2026-04-26T08:11:18.675Z</time></trkpt><trkpt lat="48.4354817" lon="-4.1594683"><ele>148.0</ele><time>2026-04-26T08:11:19.674Z</time></trkpt><trkpt lat="48.435395" lon="-4.1591883"><ele>146.33333333333334</ele><time>2026-04-26T08:11:20.677Z</time></trkpt><trkpt lat="48.43531" lon="-4.1589067"><ele>144.66666666666666</ele><time>2026-04-26T08:11:21.677Z</time></trkpt><trkpt lat="48.4352233" lon="-4.1586183"><ele>143.0</ele><time>2026-04-26T08:11:22.674Z</time></trkpt><trkpt lat="48.4351367" lon="-4.15833"><ele>143.66666666666666</ele><time>2026-04-26T08:11:23.675Z</time></trkpt><trkpt lat="48.4350483" lon="-4.1580383"><ele>144.33333333333334</ele><time>2026-04-26T08:11:24.675Z</time></trkpt><trkpt lat="48.4349617" lon="-4.1577467"><ele>145.0</ele><time>2026-04-26T08:11:25.678Z</time></trkpt><trkpt lat="48.434875" lon="-4.1574583"><ele>145.66666666666669</ele><time>2026-04-26T08:11:26.677Z</time></trkpt><trkpt lat="48.43479" lon="-4.1571683"><ele>146.33333333333334</ele><time>2026-04-26T08:11:27.678Z</time></trkpt><trkpt lat="48.4347017" lon="-4.156875"><ele>147.0</ele><time>2026-04-26T08:11:28.676Z</time></trkpt><trkpt lat="48.4346133" lon="-4.156585"><ele>144.33333333333334</ele><time>2026-04-26T08:11:29.677Z</time></trkpt><trkpt lat="48.434525" lon="-4.1562967"><ele>141.66666666666669</ele><time>2026-04-26T08:11:30.675Z</time></trkpt><trkpt lat="48.4344367" lon="-4.1560083"><ele>139.0</ele><time>2026-04-26T08:11:31.679Z</time></trkpt><trkpt lat="48.4343483" lon="-4.15572"><ele>140.0</ele><time>2026-04-26T08:11:32.678Z</time></trkpt><trkpt lat="48.4342617" lon="-4.1554317"><ele>141.0</ele><time>2026-04-26T08:11:33.675Z</time></trkpt><trkpt lat="48.434175" lon="-4.1551467"><ele>142.0</ele><time>2026-04-26T08:11:34.675Z</time></trkpt><trkpt lat="48.43409" lon="-4.154865"><ele>143.0</ele><time>2026-04-26T08:11:35.681Z</time></trkpt><trkpt lat="48.4340067" lon="-4.1545967"><ele>144.0</ele><time>2026-04-26T08:11:36.678Z</time></trkpt><trkpt lat="48.433925" lon="-4.1543417"><ele>145.0</ele><time>2026-04-26T08:11:37.681Z</time></trkpt><trkpt lat="48.4338483" lon="-4.1540983"><ele>143.33333333333334</ele><time>2026-04-26T08:11:38.676Z</time></trkpt><trkpt lat="48.4337733" lon="-4.15386"><ele>141.66666666666666</ele><time>2026-04-26T08:11:39.675Z</time></trkpt><trkpt lat="48.433695" lon="-4.153625"><ele>140.0</ele><time>2026-04-26T08:11:40.673Z</time></trkpt><trkpt lat="48.4336133" lon="-4.15339"><ele>141.0</ele><time>2026-04-26T08:11:41.682Z</time></trkpt><trkpt lat="48.4335333" lon="-4.1531533"><ele>142.0</ele><time>2026-04-26T08:11:42.675Z</time></trkpt><trkpt lat="48.43345" lon="-4.1529117"><ele>143.0</ele><time>2026-04-26T08:11:43.675Z</time></trkpt><trkpt lat="48.4333667" lon="-4.15267"><ele>143.0</ele><time>2026-04-26T08:11:44.679Z</time></trkpt><trkpt lat="48.4332817" lon="-4.1524267"><ele>143.0</ele><time>2026-04-26T08:11:45.681Z</time></trkpt><trkpt lat="48.4331967" lon="-4.1521817"><ele>143.0</ele><time>2026-04-26T08:11:46.676Z</time></trkpt><trkpt lat="48.4331117" lon="-4.151935"><ele>143.0</ele><time>2026-04-26T08:11:47.677Z</time></trkpt><trkpt lat="48.4330283" lon="-4.151685"><ele>143.0</ele><time>2026-04-26T08:11:48.675Z</time></trkpt><trkpt lat="48.4329483" lon="-4.1514367"><ele>143.0</ele><time>2026-04-26T08:11:49.676Z</time></trkpt><trkpt lat="48.4328733" lon="-4.1511883"><ele>143.0</ele><time>2026-04-26T08:11:50.674Z</time></trkpt><trkpt lat="48.4328067" lon="-4.1509367"><ele>143.0</ele><time>2026-04-26T08:11:51.678Z</time></trkpt><trkpt lat="48.4327433" lon="-4.1506833"><ele>143.0</ele><time>2026-04-26T08:11:52.674Z</time></trkpt><trkpt lat="48.4326817" lon="-4.150425"><ele>143.0</ele><time>2026-04-26T08:11:53.681Z</time></trkpt><trkpt lat="48.4326233" lon="-4.1501683"><ele>143.0</ele><time>2026-04-26T08:11:54.675Z</time></trkpt><trkpt lat="48.4325633" lon="-4.14991"><ele>143.0</ele><time>2026-04-26T08:11:55.673Z</time></trkpt><trkpt lat="48.432505" lon="-4.149645"><ele>142.66666666666666</ele><time>2026-04-26T08:11:56.677Z</time></trkpt><trkpt lat="48.432445" lon="-4.1493783"><ele>142.33333333333334</ele><time>2026-04-26T08:11:57.682Z</time></trkpt><trkpt lat="48.4323867" lon="-4.1491117"><ele>142.0</ele><time>2026-04-26T08:11:58.676Z</time></trkpt><trkpt lat="48.4323283" lon="-4.1488417"><ele>141.66666666666669</ele><time>2026-04-26T08:11:59.677Z</time></trkpt><trkpt lat="48.4322683" lon="-4.1485617"><ele>141.33333333333334</ele><time>2026-04-26T08:12:00.675Z</time></trkpt><trkpt lat="48.4322083" lon="-4.14827"><ele>141.0</ele><time>2026-04-26T08:12:01.682Z</time></trkpt><trkpt lat="48.4321533" lon="-4.1479683"><ele>140.66666666666666</ele><time>2026-04-26T08:12:02.675Z</time></trkpt><trkpt lat="48.432105" lon="-4.14767"><ele>140.33333333333331</ele><time>2026-04-26T08:12:03.675Z</time></trkpt><trkpt lat="48.4320633" lon="-4.1473667"><ele>140.0</ele><time>2026-04-26T08:12:04.677Z</time></trkpt><trkpt lat="48.4320283" lon="-4.1470567"><ele>140.0</ele><time>2026-04-26T08:12:05.676Z</time></trkpt><trkpt lat="48.4319967" lon="-4.14675"><ele>140.0</ele><time>2026-04-26T08:12:06.677Z</time></trkpt><trkpt lat="48.4319617" lon="-4.146445"><ele>140.0</ele><time>2026-04-26T08:12:07.677Z</time></trkpt><trkpt lat="48.43193" lon="-4.1461433"><ele>140.0</ele><time>2026-04-26T08:12:08.678Z</time></trkpt><trkpt lat="48.431895" lon="-4.1458433"><ele>140.0</ele><time>2026-04-26T08:12:09.68Z</time></trkpt><trkpt lat="48.4318583" lon="-4.1455433"><ele>140.0</ele><time>2026-04-26T08:12:10.677Z</time></trkpt><trkpt lat="48.4318233" lon="-4.145245"><ele>139.0</ele><time>2026-04-26T08:12:11.675Z</time></trkpt><trkpt lat="48.4317867" lon="-4.1449467"><ele>138.0</ele><time>2026-04-26T08:12:12.676Z</time></trkpt><trkpt lat="48.43175" lon="-4.1446467"><ele>137.0</ele><time>2026-04-26T08:12:13.674Z</time></trkpt><trkpt lat="48.4317133" lon="-4.1443433"><ele>134.66666666666666</ele><time>2026-04-26T08:12:14.678Z</time></trkpt><trkpt lat="48.43168" lon="-4.1440367"><ele>132.33333333333334</ele><time>2026-04-26T08:12:15.677Z</time></trkpt><trkpt lat="48.4316483" lon="-4.14373"><ele>130.0</ele><time>2026-04-26T08:12:16.675Z</time></trkpt><trkpt lat="48.4316183" lon="-4.14342"><ele>130.0</ele><time>2026-04-26T08:12:17.676Z</time></trkpt><trkpt lat="48.43159" lon="-4.14311"><ele>130.0</ele><time>2026-04-26T08:12:18.676Z</time></trkpt><trkpt lat="48.4315617" lon="-4.1428017"><ele>130.0</ele><time>2026-04-26T08:12:19.674Z</time></trkpt><trkpt lat="48.4315317" lon="-4.1424933"><ele>129.0</ele><time>2026-04-26T08:12:20.68Z</time></trkpt><trkpt lat="48.4315033" lon="-4.1421883"><ele>128.0</ele><time>2026-04-26T08:12:21.677Z</time></trkpt><trkpt lat="48.431475" lon="-4.1418817"><ele>127.0</ele><time>2026-04-26T08:12:22.676Z</time></trkpt><trkpt lat="48.4314467" lon="-4.1415767"><ele>125.66666666666667</ele><time>2026-04-26T08:12:23.673Z</time></trkpt><trkpt lat="48.4314183" lon="-4.1412733"><ele>124.33333333333334</ele><time>2026-04-26T08:12:24.676Z</time></trkpt><trkpt lat="48.4313917" lon="-4.1409717"><ele>123.0</ele><time>2026-04-26T08:12:25.68Z</time></trkpt><trkpt lat="48.4313633" lon="-4.1406717"><ele>122.66666666666666</ele><time>2026-04-26T08:12:26.677Z</time></trkpt><trkpt lat="48.4313367" lon="-4.14037"><ele>122.33333333333333</ele><time>2026-04-26T08:12:27.678Z</time></trkpt><trkpt lat="48.4313083" lon="-4.14007"><ele>122.0</ele><time>2026-04-26T08:12:28.679Z</time></trkpt><trkpt lat="48.4312817" lon="-4.1397717"><ele>120.33333333333333</ele><time>2026-04-26T08:12:29.676Z</time></trkpt><trkpt lat="48.4312533" lon="-4.1394783"><ele>118.66666666666666</ele><time>2026-04-26T08:12:30.682Z</time></trkpt><trkpt lat="48.431225" lon="-4.1391883"><ele>117.0</ele><time>2026-04-26T08:12:31.676Z</time></trkpt><trkpt lat="48.4311983" lon="-4.1388983"><ele>116.33333333333334</ele><time>2026-04-26T08:12:32.677Z</time></trkpt><trkpt lat="48.43116" lon="-4.1386133"><ele>115.66666666666667</ele><time>2026-04-26T08:12:33.677Z</time></trkpt><trkpt lat="48.431105" lon="-4.138335"><ele>115.0</ele><time>2026-04-26T08:12:34.674Z</time></trkpt><trkpt lat="48.431035" lon="-4.1380583"><ele>115.0</ele><time>2026-04-26T08:12:35.68Z</time></trkpt><trkpt lat="48.4309517" lon="-4.1377833"><ele>115.0</ele><time>2026-04-26T08:12:36.677Z</time></trkpt><trkpt lat="48.430855" lon="-4.1375133"><ele>115.0</ele><time>2026-04-26T08:12:37.676Z</time></trkpt><trkpt lat="48.4307467" lon="-4.137255"><ele>114.33333333333334</ele><time>2026-04-26T08:12:38.674Z</time></trkpt><trkpt lat="48.43063" lon="-4.1369983"><ele>113.66666666666666</ele><time>2026-04-26T08:12:39.675Z</time></trkpt><trkpt lat="48.4305133" lon="-4.1367467"><ele>113.0</ele><time>2026-04-26T08:12:40.677Z</time></trkpt><trkpt lat="48.4303967" lon="-4.1364983"><ele>111.0</ele><time>2026-04-26T08:12:41.679Z</time></trkpt><trkpt lat="48.4302833" lon="-4.1362467"><ele>109.0</ele><time>2026-04-26T08:12:42.684Z</time></trkpt><trkpt lat="48.4301733" lon="-4.1359967"><ele>107.0</ele><time>2026-04-26T08:12:43.68Z</time></trkpt><trkpt lat="48.4300633" lon="-4.1357483"><ele>107.33333333333333</ele><time>2026-04-26T08:12:44.676Z</time></trkpt><trkpt lat="48.4299583" lon="-4.1355017"><ele>107.66666666666666</ele><time>2026-04-26T08:12:45.675Z</time></trkpt><trkpt lat="48.4298583" lon="-4.13525"><ele>108.0</ele><time>2026-04-26T08:12:46.675Z</time></trkpt><trkpt lat="48.429765" lon="-4.1349917"><ele>108.0</ele><time>2026-04-26T08:12:47.676Z</time></trkpt><trkpt lat="48.4296733" lon="-4.1347217"><ele>108.0</ele><time>2026-04-26T08:12:48.677Z</time></trkpt><trkpt lat="48.4295867" lon="-4.1344417"><ele>108.0</ele><time>2026-04-26T08:12:49.676Z</time></trkpt><trkpt lat="48.4295033" lon="-4.1341517"><ele>106.33333333333334</ele><time>2026-04-26T08:12:50.675Z</time></trkpt><trkpt lat="48.42942" lon="-4.1338617"><ele>104.66666666666667</ele><time>2026-04-26T08:12:51.676Z</time></trkpt><trkpt lat="48.4293383" lon="-4.1335683"><ele>103.0</ele><time>2026-04-26T08:12:52.674Z</time></trkpt><trkpt lat="48.429255" lon="-4.1332717"><ele>101.66666666666667</ele><time>2026-04-26T08:12:53.679Z</time></trkpt><trkpt lat="48.4291717" lon="-4.1329783"><ele>100.33333333333334</ele><time>2026-04-26T08:12:54.677Z</time></trkpt><trkpt lat="48.4290783" lon="-4.1326967"><ele>99.0</ele><time>2026-04-26T08:12:55.674Z</time></trkpt><trkpt lat="48.4289867" lon="-4.132415"><ele>97.66666666666667</ele><time>2026-04-26T08:12:56.678Z</time></trkpt><trkpt lat="48.4288917" lon="-4.1321367"><ele>96.33333333333334</ele><time>2026-04-26T08:12:57.675Z</time></trkpt><trkpt lat="48.42879" lon="-4.131865"><ele>95.0</ele><time>2026-04-26T08:12:58.679Z</time></trkpt><trkpt lat="48.4286867" lon="-4.1315933"><ele>92.66666666666667</ele><time>2026-04-26T08:12:59.676Z</time></trkpt><trkpt lat="48.4285833" lon="-4.1313233"><ele>90.33333333333333</ele><time>2026-04-26T08:13:00.678Z</time></trkpt><trkpt lat="48.4284833" lon="-4.131055"><ele>88.0</ele><time>2026-04-26T08:13:01.675Z</time></trkpt><trkpt lat="48.4283783" lon="-4.1307833"><ele>88.0</ele><time>2026-04-26T08:13:02.674Z</time></trkpt><trkpt lat="48.428275" lon="-4.1305117"><ele>88.0</ele><time>2026-04-26T08:13:03.675Z</time></trkpt><trkpt lat="48.4281733" lon="-4.13025"><ele>88.0</ele><time>2026-04-26T08:13:04.675Z</time></trkpt><trkpt lat="48.4280717" lon="-4.1299833"><ele>87.33333333333333</ele><time>2026-04-26T08:13:05.675Z</time></trkpt><trkpt lat="48.42797" lon="-4.1297183"><ele>86.66666666666667</ele><time>2026-04-26T08:13:06.674Z</time></trkpt><trkpt lat="48.4278717" lon="-4.1294583"><ele>86.0</ele><time>2026-04-26T08:13:07.676Z</time></trkpt><trkpt lat="48.4277717" lon="-4.1291983"><ele>87.33333333333334</ele><time>2026-04-26T08:13:08.683Z</time></trkpt><trkpt lat="48.4276733" lon="-4.1289417"><ele>88.66666666666667</ele><time>2026-04-26T08:13:09.682Z</time></trkpt><trkpt lat="48.4275767" lon="-4.12868"><ele>90.0</ele><time>2026-04-26T08:13:10.673Z</time></trkpt><trkpt lat="48.4274833" lon="-4.1284133"><ele>90.33333333333333</ele><time>2026-04-26T08:13:11.677Z</time></trkpt><trkpt lat="48.4273917" lon="-4.1281433"><ele>90.66666666666666</ele><time>2026-04-26T08:13:12.675Z</time></trkpt><trkpt lat="48.4273" lon="-4.127875"><ele>91.0</ele><time>2026-04-26T08:13:13.678Z</time></trkpt><trkpt lat="48.427215" lon="-4.127605"><ele>88.0</ele><time>2026-04-26T08:13:14.676Z</time></trkpt><trkpt lat="48.4271333" lon="-4.12733"><ele>85.0</ele><time>2026-04-26T08:13:15.677Z</time></trkpt><trkpt lat="48.427065" lon="-4.1270417"><ele>82.0</ele><time>2026-04-26T08:13:16.674Z</time></trkpt><trkpt lat="48.42701" lon="-4.1267483"><ele>82.0</ele><time>2026-04-26T08:13:17.676Z</time></trkpt><trkpt lat="48.4269717" lon="-4.1264517"><ele>82.0</ele><time>2026-04-26T08:13:18.676Z</time></trkpt><trkpt lat="48.4269467" lon="-4.1261483"><ele>82.0</ele><time>2026-04-26T08:13:19.674Z</time></trkpt><trkpt lat="48.4269367" lon="-4.12585"><ele>82.66666666666666</ele><time>2026-04-26T08:13:20.676Z</time></trkpt><trkpt lat="48.4269267" lon="-4.125555"><ele>83.33333333333333</ele><time>2026-04-26T08:13:21.676Z</time></trkpt><trkpt lat="48.426915" lon="-4.1252617"><ele>84.0</ele><time>2026-04-26T08:13:22.674Z</time></trkpt><trkpt lat="48.4269017" lon="-4.12497"><ele>85.33333333333333</ele><time>2026-04-26T08:13:23.676Z</time></trkpt><trkpt lat="48.4268817" lon="-4.12468"><ele>86.66666666666666</ele><time>2026-04-26T08:13:24.678Z</time></trkpt><trkpt lat="48.4268567" lon="-4.1243933"><ele>88.0</ele><time>2026-04-26T08:13:25.677Z</time></trkpt><trkpt lat="48.4268233" lon="-4.12411"><ele>89.0</ele><time>2026-04-26T08:13:26.678Z</time></trkpt><trkpt lat="48.4267833" lon="-4.1238283"><ele>90.0</ele><time>2026-04-26T08:13:27.676Z</time></trkpt><trkpt lat="48.4267417" lon="-4.12355"><ele>91.0</ele><time>2026-04-26T08:13:28.677Z</time></trkpt><trkpt lat="48.4267" lon="-4.123275"><ele>91.33333333333333</ele><time>2026-04-26T08:13:29.677Z</time></trkpt><trkpt lat="48.426675" lon="-4.1229967"><ele>91.66666666666667</ele><time>2026-04-26T08:13:30.677Z</time></trkpt><trkpt lat="48.4266683" lon="-4.1227033"><ele>92.0</ele><time>2026-04-26T08:13:31.683Z</time></trkpt><trkpt lat="48.4266817" lon="-4.1224067"><ele>92.33333333333334</ele><time>2026-04-26T08:13:32.677Z</time></trkpt><trkpt lat="48.4267067" lon="-4.1221183"><ele>92.66666666666667</ele><time>2026-04-26T08:13:33.676Z</time></trkpt><trkpt lat="48.4267367" lon="-4.1218333"><ele>93.0</ele><time>2026-04-26T08:13:34.675Z</time></trkpt><trkpt lat="48.426765" lon="-4.12155"><ele>94.0</ele><time>2026-04-26T08:13:35.676Z</time></trkpt><trkpt lat="48.4267933" lon="-4.12127"><ele>95.0</ele><time>2026-04-26T08:13:36.676Z</time></trkpt><trkpt lat="48.4268267" lon="-4.1209883"><ele>96.0</ele><time>2026-04-26T08:13:37.678Z</time></trkpt><trkpt lat="48.42686" lon="-4.120705"><ele>96.33333333333334</ele><time>2026-04-26T08:13:38.674Z</time></trkpt><trkpt lat="48.4268833" lon="-4.1204167"><ele>96.66666666666667</ele><time>2026-04-26T08:13:39.675Z</time></trkpt><trkpt lat="48.42689" lon="-4.1201217"><ele>97.0</ele><time>2026-04-26T08:13:40.675Z</time></trkpt><trkpt lat="48.4268917" lon="-4.11983"><ele>97.0</ele><time>2026-04-26T08:13:41.676Z</time></trkpt><trkpt lat="48.4268967" lon="-4.119535"><ele>97.0</ele><time>2026-04-26T08:13:42.673Z</time></trkpt><trkpt lat="48.426905" lon="-4.1192383"><ele>97.0</ele><time>2026-04-26T08:13:43.677Z</time></trkpt><trkpt lat="48.426915" lon="-4.1189433"><ele>97.0</ele><time>2026-04-26T08:13:44.675Z</time></trkpt><trkpt lat="48.4269233" lon="-4.1186467"><ele>97.0</ele><time>2026-04-26T08:13:45.677Z</time></trkpt><trkpt lat="48.4269317" lon="-4.1183467"><ele>97.0</ele><time>2026-04-26T08:13:46.677Z</time></trkpt><trkpt lat="48.426935" lon="-4.1180467"><ele>97.0</ele><time>2026-04-26T08:13:47.68Z</time></trkpt><trkpt lat="48.426935" lon="-4.1177433"><ele>97.0</ele><time>2026-04-26T08:13:48.682Z</time></trkpt><trkpt lat="48.4269283" lon="-4.1174383"><ele>97.0</ele><time>2026-04-26T08:13:49.674Z</time></trkpt><trkpt lat="48.42692" lon="-4.1171317"><ele>97.0</ele><time>2026-04-26T08:13:50.677Z</time></trkpt><trkpt lat="48.426905" lon="-4.11682"><ele>97.0</ele><time>2026-04-26T08:13:51.674Z</time></trkpt><trkpt lat="48.4268833" lon="-4.1165083"><ele>97.0</ele><time>2026-04-26T08:13:52.673Z</time></trkpt><trkpt lat="48.426855" lon="-4.116205"><ele>97.0</ele><time>2026-04-26T08:13:53.674Z</time></trkpt><trkpt lat="48.4268217" lon="-4.1159033"><ele>97.0</ele><time>2026-04-26T08:13:54.675Z</time></trkpt><trkpt lat="48.42679" lon="-4.115605"><ele>97.0</ele><time>2026-04-26T08:13:55.676Z</time></trkpt><trkpt lat="48.4267533" lon="-4.1153133"><ele>98.0</ele><time>2026-04-26T08:13:56.676Z</time></trkpt><trkpt lat="48.42671" lon="-4.1150233"><ele>99.0</ele><time>2026-04-26T08:13:57.675Z</time></trkpt><trkpt lat="48.4266517" lon="-4.1147433"><ele>100.0</ele><time>2026-04-26T08:13:58.674Z</time></trkpt><trkpt lat="48.4265783" lon="-4.114475"><ele>100.0</ele><time>2026-04-26T08:13:59.677Z</time></trkpt><trkpt lat="48.4265083" lon="-4.1142067"><ele>100.0</ele><time>2026-04-26T08:14:00.675Z</time></trkpt><trkpt lat="48.42644" lon="-4.113935"><ele>100.0</ele><time>2026-04-26T08:14:01.68Z</time></trkpt><trkpt lat="48.4263717" lon="-4.1136633"><ele>100.0</ele><time>2026-04-26T08:14:02.676Z</time></trkpt><trkpt lat="48.426305" lon="-4.113395"><ele>100.0</ele><time>2026-04-26T08:14:03.676Z</time></trkpt><trkpt lat="48.42624" lon="-4.113125"><ele>100.0</ele><time>2026-04-26T08:14:04.676Z</time></trkpt><trkpt lat="48.426175" lon="-4.1128567"><ele>100.0</ele><time>2026-04-26T08:14:05.674Z</time></trkpt><trkpt lat="48.4261067" lon="-4.1125917"><ele>100.0</ele><time>2026-04-26T08:14:06.675Z</time></trkpt><trkpt lat="48.42604" lon="-4.11233"><ele>100.0</ele><time>2026-04-26T08:14:07.675Z</time></trkpt><trkpt lat="48.4259683" lon="-4.11207"><ele>100.33333333333334</ele><time>2026-04-26T08:14:08.677Z</time></trkpt><trkpt lat="48.4258933" lon="-4.1118133"><ele>100.66666666666666</ele><time>2026-04-26T08:14:09.677Z</time></trkpt><trkpt lat="48.425815" lon="-4.11156"><ele>101.0</ele><time>2026-04-26T08:14:10.682Z</time></trkpt><trkpt lat="48.4257283" lon="-4.1113117"><ele>102.0</ele><time>2026-04-26T08:14:11.681Z</time></trkpt><trkpt lat="48.4256317" lon="-4.1110667"><ele>103.0</ele><time>2026-04-26T08:14:12.675Z</time></trkpt><trkpt lat="48.4255267" lon="-4.1108267"><ele>104.0</ele><time>2026-04-26T08:14:13.677Z</time></trkpt><trkpt lat="48.4254167" lon="-4.110585"><ele>104.33333333333333</ele><time>2026-04-26T08:14:14.677Z</time></trkpt><trkpt lat="48.4252967" lon="-4.1103483"><ele>104.66666666666666</ele><time>2026-04-26T08:14:15.68Z</time></trkpt><trkpt lat="48.42517" lon="-4.1101217"><ele>105.0</ele><time>2026-04-26T08:14:16.675Z</time></trkpt><trkpt lat="48.4250333" lon="-4.1099033"><ele>105.0</ele><time>2026-04-26T08:14:17.676Z</time></trkpt><trkpt lat="48.42489" lon="-4.1096883"><ele>105.0</ele><time>2026-04-26T08:14:18.678Z</time></trkpt><trkpt lat="48.4247417" lon="-4.1094783"><ele>105.0</ele><time>2026-04-26T08:14:19.688Z</time></trkpt><trkpt lat="48.42459" lon="-4.1092717"><ele>104.33333333333334</ele><time>2026-04-26T08:14:20.674Z</time></trkpt><trkpt lat="48.42444" lon="-4.1090617"><ele>103.66666666666667</ele><time>2026-04-26T08:14:21.682Z</time></trkpt><trkpt lat="48.42429" lon="-4.1088517"><ele>103.0</ele><time>2026-04-26T08:14:22.679Z</time></trkpt><trkpt lat="48.4241467" lon="-4.1086367"><ele>103.0</ele><time>2026-04-26T08:14:23.675Z</time></trkpt><trkpt lat="48.4240017" lon="-4.1084183"><ele>103.0</ele><time>2026-04-26T08:14:24.676Z</time></trkpt><trkpt lat="48.4238567" lon="-4.1082017"><ele>103.0</ele><time>2026-04-26T08:14:25.676Z</time></trkpt><trkpt lat="48.4237183" lon="-4.107975"><ele>101.66666666666667</ele><time>2026-04-26T08:14:26.681Z</time></trkpt><trkpt lat="48.423585" lon="-4.10776"><ele>100.33333333333334</ele><time>2026-04-26T08:14:27.676Z</time></trkpt><trkpt lat="48.4234567" lon="-4.10755"><ele>99.0</ele><time>2026-04-26T08:14:28.675Z</time></trkpt><trkpt lat="48.4233383" lon="-4.1073467"><ele>97.0</ele><time>2026-04-26T08:14:29.678Z</time></trkpt><trkpt lat="48.4232267" lon="-4.1071433"><ele>95.0</ele><time>2026-04-26T08:14:30.674Z</time></trkpt><trkpt lat="48.4231217" lon="-4.10695"><ele>93.0</ele><time>2026-04-26T08:14:31.677Z</time></trkpt><trkpt lat="48.4230183" lon="-4.1067683"><ele>92.66666666666667</ele><time>2026-04-26T08:14:32.679Z</time></trkpt><trkpt lat="48.4229183" lon="-4.10659"><ele>92.33333333333334</ele><time>2026-04-26T08:14:33.681Z</time></trkpt><trkpt lat="48.4228183" lon="-4.1064133"><ele>92.0</ele><time>2026-04-26T08:14:34.675Z</time></trkpt><trkpt lat="48.422725" lon="-4.1062467"><ele>92.0</ele><time>2026-04-26T08:14:35.677Z</time></trkpt><trkpt lat="48.4226367" lon="-4.1060883"><ele>92.0</ele><time>2026-04-26T08:14:36.675Z</time></trkpt><trkpt lat="48.42255" lon="-4.1059333"><ele>92.0</ele><time>2026-04-26T08:14:37.675Z</time></trkpt><trkpt lat="48.4224683" lon="-4.105785"><ele>92.0</ele><time>2026-04-26T08:14:38.677Z</time></trkpt><trkpt lat="48.422395" lon="-4.10565"><ele>91.19999999999999</ele><time>2026-04-26T08:14:39.675Z</time></trkpt><trkpt lat="48.4223467" lon="-4.105545"><ele>90.4</ele><time>2026-04-26T08:14:40.679Z</time></trkpt><trkpt lat="48.4223117" lon="-4.1054333"><ele>89.6</ele><time>2026-04-26T08:14:41.679Z</time></trkpt><trkpt lat="48.4223667" lon="-4.10527"><ele>88.80000000000001</ele><time>2026-04-26T08:14:43.675Z</time></trkpt><trkpt lat="48.4224317" lon="-4.1052217"><ele>88.0</ele><time>2026-04-26T08:14:44.675Z</time></trkpt><trkpt lat="48.4225217" lon="-4.1052067"><ele>88.0</ele><time>2026-04-26T08:14:45.676Z</time></trkpt><trkpt lat="48.4226383" lon="-4.1052183"><ele>88.0</ele><time>2026-04-26T08:14:46.675Z</time></trkpt><trkpt lat="48.4227533" lon="-4.1052383"><ele>88.0</ele><time>2026-04-26T08:14:47.674Z</time></trkpt><trkpt lat="48.4228717" lon="-4.1052583"><ele>88.0</ele><time>2026-04-26T08:14:48.68Z</time></trkpt><trkpt lat="48.4229967" lon="-4.10528"><ele>86.25</ele><time>2026-04-26T08:14:49.68Z</time></trkpt><trkpt lat="48.423125" lon="-4.1053083"><ele>84.5</ele><time>2026-04-26T08:14:50.675Z</time></trkpt><trkpt lat="48.4232567" lon="-4.1053383"><ele>82.75</ele><time>2026-04-26T08:14:51.677Z</time></trkpt><trkpt lat="48.4233883" lon="-4.1053667"><ele>81.0</ele><time>2026-04-26T08:14:52.678Z</time></trkpt><trkpt lat="48.42352" lon="-4.1053967"><ele>81.0</ele><time>2026-04-26T08:14:53.677Z</time></trkpt><trkpt lat="48.4236567" lon="-4.1054267"><ele>81.0</ele><time>2026-04-26T08:14:54.68Z</time></trkpt><trkpt lat="48.4238" lon="-4.1054583"><ele>81.0</ele><time>2026-04-26T08:14:55.675Z</time></trkpt><trkpt lat="48.423955" lon="-4.1054967"><ele>81.0</ele><time>2026-04-26T08:14:56.674Z</time></trkpt><trkpt lat="48.4241167" lon="-4.1055367"><ele>80.33333333333333</ele><time>2026-04-26T08:14:57.678Z</time></trkpt><trkpt lat="48.4242917" lon="-4.1055817"><ele>79.66666666666666</ele><time>2026-04-26T08:14:58.673Z</time></trkpt><trkpt lat="48.424475" lon="-4.1056317"><ele>79.0</ele><time>2026-04-26T08:14:59.673Z</time></trkpt><trkpt lat="48.42466" lon="-4.105685"><ele>78.0</ele><time>2026-04-26T08:15:00.68Z</time></trkpt><trkpt lat="48.4248467" lon="-4.105745"><ele>77.0</ele><time>2026-04-26T08:15:01.678Z</time></trkpt><trkpt lat="48.425035" lon="-4.1058067"><ele>76.0</ele><time>2026-04-26T08:15:02.674Z</time></trkpt><trkpt lat="48.4252267" lon="-4.1058717"><ele>77.0</ele><time>2026-04-26T08:15:03.676Z</time></trkpt><trkpt lat="48.42542" lon="-4.1059383"><ele>78.0</ele><time>2026-04-26T08:15:04.678Z</time></trkpt><trkpt lat="48.425615" lon="-4.1060083"><ele>79.0</ele><time>2026-04-26T08:15:05.676Z</time></trkpt><trkpt lat="48.4258117" lon="-4.1060783"><ele>79.0</ele><time>2026-04-26T08:15:06.676Z</time></trkpt><trkpt lat="48.426005" lon="-4.1061517"><ele>79.0</ele><time>2026-04-26T08:15:07.675Z</time></trkpt><trkpt lat="48.4262" lon="-4.1062267"><ele>79.0</ele><time>2026-04-26T08:15:08.677Z</time></trkpt><trkpt lat="48.4263933" lon="-4.106305"><ele>78.33333333333333</ele><time>2026-04-26T08:15:09.674Z</time></trkpt><trkpt lat="48.42659" lon="-4.1063867"><ele>77.66666666666667</ele><time>2026-04-26T08:15:10.676Z</time></trkpt><trkpt lat="48.4267883" lon="-4.10647"><ele>77.0</ele><time>2026-04-26T08:15:11.677Z</time></trkpt><trkpt lat="48.4269883" lon="-4.10655"><ele>77.66666666666667</ele><time>2026-04-26T08:15:12.679Z</time></trkpt><trkpt lat="48.42719" lon="-4.10663"><ele>78.33333333333333</ele><time>2026-04-26T08:15:13.678Z</time></trkpt><trkpt lat="48.4273933" lon="-4.1067033"><ele>79.0</ele><time>2026-04-26T08:15:14.675Z</time></trkpt><trkpt lat="48.427595" lon="-4.1067733"><ele>79.0</ele><time>2026-04-26T08:15:15.678Z</time></trkpt><trkpt lat="48.4278017" lon="-4.106835"><ele>79.0</ele><time>2026-04-26T08:15:16.677Z</time></trkpt><trkpt lat="48.42801" lon="-4.106885"><ele>79.0</ele><time>2026-04-26T08:15:17.676Z</time></trkpt><trkpt lat="48.4282133" lon="-4.1069333"><ele>78.66666666666666</ele><time>2026-04-26T08:15:18.68Z</time></trkpt><trkpt lat="48.42842" lon="-4.1069733"><ele>78.33333333333333</ele><time>2026-04-26T08:15:19.675Z</time></trkpt><trkpt lat="48.4286233" lon="-4.1070067"><ele>78.0</ele><time>2026-04-26T08:15:20.674Z</time></trkpt><trkpt lat="48.4288283" lon="-4.10704"><ele>76.0</ele><time>2026-04-26T08:15:21.675Z</time></trkpt><trkpt lat="48.4290267" lon="-4.1070817"><ele>74.0</ele><time>2026-04-26T08:15:22.675Z</time></trkpt><trkpt lat="48.4292283" lon="-4.1071133"><ele>72.0</ele><time>2026-04-26T08:15:23.677Z</time></trkpt><trkpt lat="48.4294317" lon="-4.1071367"><ele>72.0</ele><time>2026-04-26T08:15:24.676Z</time></trkpt><trkpt lat="48.429635" lon="-4.10715"><ele>72.0</ele><time>2026-04-26T08:15:25.677Z</time></trkpt><trkpt lat="48.42984" lon="-4.1071483"><ele>72.0</ele><time>2026-04-26T08:15:26.683Z</time></trkpt><trkpt lat="48.430045" lon="-4.1071317"><ele>72.0</ele><time>2026-04-26T08:15:27.677Z</time></trkpt><trkpt lat="48.4302517" lon="-4.1071033"><ele>72.0</ele><time>2026-04-26T08:15:28.68Z</time></trkpt><trkpt lat="48.4304567" lon="-4.10706"><ele>72.0</ele><time>2026-04-26T08:15:29.674Z</time></trkpt><trkpt lat="48.4306617" lon="-4.107005"><ele>72.66666666666667</ele><time>2026-04-26T08:15:30.676Z</time></trkpt><trkpt lat="48.4308667" lon="-4.1069383"><ele>73.33333333333334</ele><time>2026-04-26T08:15:31.676Z</time></trkpt><trkpt lat="48.4310667" lon="-4.1068533"><ele>74.0</ele><time>2026-04-26T08:15:32.678Z</time></trkpt><trkpt lat="48.431265" lon="-4.1067533"><ele>73.66666666666667</ele><time>2026-04-26T08:15:33.679Z</time></trkpt><trkpt lat="48.4314583" lon="-4.106645"><ele>73.33333333333333</ele><time>2026-04-26T08:15:34.677Z</time></trkpt><trkpt lat="48.43165" lon="-4.1065317"><ele>73.0</ele><time>2026-04-26T08:15:35.679Z</time></trkpt><trkpt lat="48.4318367" lon="-4.1064133"><ele>73.0</ele><time>2026-04-26T08:15:36.679Z</time></trkpt><trkpt lat="48.4320217" lon="-4.1062967"><ele>73.0</ele><time>2026-04-26T08:15:37.676Z</time></trkpt><trkpt lat="48.4322" lon="-4.1061767"><ele>73.0</ele><time>2026-04-26T08:15:38.678Z</time></trkpt><trkpt lat="48.4323717" lon="-4.1060683"><ele>74.66666666666666</ele><time>2026-04-26T08:15:39.676Z</time></trkpt><trkpt lat="48.43253" lon="-4.105965"><ele>76.33333333333333</ele><time>2026-04-26T08:15:40.675Z</time></trkpt><trkpt lat="48.4326783" lon="-4.10587"><ele>78.0</ele><time>2026-04-26T08:15:41.68Z</time></trkpt><trkpt lat="48.4328117" lon="-4.1057883"><ele>77.5</ele><time>2026-04-26T08:15:42.679Z</time></trkpt><trkpt lat="48.43294" lon="-4.1057033"><ele>77.0</ele><time>2026-04-26T08:15:43.675Z</time></trkpt><trkpt lat="48.43305" lon="-4.105625"><ele>76.5</ele><time>2026-04-26T08:15:44.678Z</time></trkpt><trkpt lat="48.4331533" lon="-4.1055633"><ele>76.0</ele><time>2026-04-26T08:15:45.677Z</time></trkpt><trkpt lat="48.433245" lon="-4.1055067"><ele>76.0</ele><time>2026-04-26T08:15:46.675Z</time></trkpt><trkpt lat="48.4333333" lon="-4.1054617"><ele>76.0</ele><time>2026-04-26T08:15:47.673Z</time></trkpt><trkpt lat="48.4334083" lon="-4.1054133"><ele>76.0</ele><time>2026-04-26T08:15:48.68Z</time></trkpt><trkpt lat="48.433465" lon="-4.1053583"><ele>76.0</ele><time>2026-04-26T08:15:49.679Z</time></trkpt><trkpt lat="48.4335067" lon="-4.105285"><ele>76.0</ele><time>2026-04-26T08:15:50.679Z</time></trkpt><trkpt lat="48.43354" lon="-4.105195"><ele>76.0</ele><time>2026-04-26T08:15:51.678Z</time></trkpt><trkpt lat="48.4335733" lon="-4.105095"><ele>76.0</ele><time>2026-04-26T08:15:52.678Z</time></trkpt><trkpt lat="48.43362" lon="-4.1049917"><ele>75.39999999999999</ele><time>2026-04-26T08:15:53.677Z</time></trkpt><trkpt lat="48.4336833" lon="-4.1048867"><ele>74.8</ele><time>2026-04-26T08:15:54.674Z</time></trkpt><trkpt lat="48.4337567" lon="-4.1047833"><ele>74.19999999999999</ele><time>2026-04-26T08:15:55.676Z</time></trkpt><trkpt lat="48.4338333" lon="-4.104675"><ele>73.6</ele><time>2026-04-26T08:15:56.676Z</time></trkpt><trkpt lat="48.43391" lon="-4.1045583"><ele>73.0</ele><time>2026-04-26T08:15:57.674Z</time></trkpt><trkpt lat="48.4339817" lon="-4.104445"><ele>73.0</ele><time>2026-04-26T08:15:58.672Z</time></trkpt><trkpt lat="48.4340517" lon="-4.1043283"><ele>73.0</ele><time>2026-04-26T08:15:59.674Z</time></trkpt><trkpt lat="48.43412" lon="-4.1042167"><ele>73.0</ele><time>2026-04-26T08:16:00.681Z</time></trkpt><trkpt lat="48.4341833" lon="-4.10411"><ele>73.0</ele><time>2026-04-26T08:16:01.674Z</time></trkpt><trkpt lat="48.4342333" lon="-4.104015"><ele>73.0</ele><time>2026-04-26T08:16:02.681Z</time></trkpt><trkpt lat="48.4342633" lon="-4.1039133"><ele>72.6</ele><time>2026-04-26T08:16:03.68Z</time></trkpt><trkpt lat="48.43427" lon="-4.103815"><ele>72.19999999999999</ele><time>2026-04-26T08:16:04.673Z</time></trkpt><trkpt lat="48.43425" lon="-4.103645"><ele>71.8</ele><time>2026-04-26T08:16:06.675Z</time></trkpt><trkpt lat="48.43421" lon="-4.1034883"><ele>71.39999999999999</ele><time>2026-04-26T08:16:08.678Z</time></trkpt><trkpt lat="48.4341933" lon="-4.1033217"><ele>71.0</ele><time>2026-04-26T08:16:10.678Z</time></trkpt><trkpt lat="48.4342067" lon="-4.1032233"><ele>71.0</ele><time>2026-04-26T08:16:11.677Z</time></trkpt><trkpt lat="48.4342417" lon="-4.1031117"><ele>71.0</ele><time>2026-04-26T08:16:12.675Z</time></trkpt><trkpt lat="48.434285" lon="-4.1029983"><ele>71.0</ele><time>2026-04-26T08:16:13.678Z</time></trkpt><trkpt lat="48.4343317" lon="-4.102875"><ele>71.0</ele><time>2026-04-26T08:16:14.676Z</time></trkpt><trkpt lat="48.434375" lon="-4.1027583"><ele>71.0</ele><time>2026-04-26T08:16:15.676Z</time></trkpt><trkpt lat="48.4344017" lon="-4.1026317"><ele>71.0</ele><time>2026-04-26T08:16:16.674Z</time></trkpt><trkpt lat="48.4344217" lon="-4.1025067"><ele>71.66666666666667</ele><time>2026-04-26T08:16:17.683Z</time></trkpt><trkpt lat="48.4344333" lon="-4.1023933"><ele>72.33333333333334</ele><time>2026-04-26T08:16:18.674Z</time></trkpt><trkpt lat="48.4344433" lon="-4.1022917"><ele>73.0</ele><time>2026-04-26T08:16:19.682Z</time></trkpt><trkpt lat="48.434455" lon="-4.1021233"><ele>73.66666666666667</ele><time>2026-04-26T08:16:21.681Z</time></trkpt><trkpt lat="48.4344383" lon="-4.1020217"><ele>74.33333333333333</ele><time>2026-04-26T08:16:23.677Z</time></trkpt><trkpt lat="48.4344733" lon="-4.1019083"><ele>75.0</ele><time>2026-04-26T08:16:29.68Z</time></trkpt><trkpt lat="48.4345933" lon="-4.1019"><ele>74.83333333333333</ele><time>2026-04-26T08:16:31.679Z</time></trkpt><trkpt lat="48.43467" lon="-4.101915"><ele>74.66666666666667</ele><time>2026-04-26T08:16:32.676Z</time></trkpt><trkpt lat="48.4347467" lon="-4.10192"><ele>74.5</ele><time>2026-04-26T08:16:33.678Z</time></trkpt><trkpt lat="48.4348333" lon="-4.1019217"><ele>74.33333333333334</ele><time>2026-04-26T08:16:34.674Z</time></trkpt><trkpt lat="48.43493" lon="-4.1019283"><ele>74.16666666666667</ele><time>2026-04-26T08:16:35.678Z</time></trkpt><trkpt lat="48.43503" lon="-4.1019367"><ele>74.0</ele><time>2026-04-26T08:16:36.675Z</time></trkpt><trkpt lat="48.4351333" lon="-4.1019433"><ele>74.0</ele><time>2026-04-26T08:16:37.676Z</time></trkpt><trkpt lat="48.4352417" lon="-4.1019517"><ele>74.0</ele><time>2026-04-26T08:16:38.675Z</time></trkpt><trkpt lat="48.435345" lon="-4.101965"><ele>74.0</ele><time>2026-04-26T08:16:39.675Z</time></trkpt><trkpt lat="48.435455" lon="-4.101975"><ele>74.0</ele><time>2026-04-26T08:16:40.673Z</time></trkpt><trkpt lat="48.4355717" lon="-4.1019683"><ele>74.0</ele><time>2026-04-26T08:16:41.675Z</time></trkpt><trkpt lat="48.4356883" lon="-4.1019317"><ele>73.5</ele><time>2026-04-26T08:16:42.675Z</time></trkpt><trkpt lat="48.43581" lon="-4.101865"><ele>73.0</ele><time>2026-04-26T08:16:43.676Z</time></trkpt><trkpt lat="48.435925" lon="-4.1017617"><ele>72.5</ele><time>2026-04-26T08:16:44.681Z</time></trkpt><trkpt lat="48.4360267" lon="-4.101615"><ele>72.0</ele><time>2026-04-26T08:16:45.673Z</time></trkpt><trkpt lat="48.4361283" lon="-4.1014617"><ele>71.75</ele><time>2026-04-26T08:16:46.675Z</time></trkpt><trkpt lat="48.43623" lon="-4.1013183"><ele>71.5</ele><time>2026-04-26T08:16:47.674Z</time></trkpt><trkpt lat="48.4363267" lon="-4.1011717"><ele>71.25</ele><time>2026-04-26T08:16:48.675Z</time></trkpt><trkpt lat="48.43642" lon="-4.1010233"><ele>71.0</ele><time>2026-04-26T08:16:49.676Z</time></trkpt><trkpt lat="48.4365183" lon="-4.1008667"><ele>72.25</ele><time>2026-04-26T08:16:50.678Z</time></trkpt><trkpt lat="48.4366117" lon="-4.1006967"><ele>73.5</ele><time>2026-04-26T08:16:51.677Z</time></trkpt><trkpt lat="48.436695" lon="-4.100515"><ele>74.75</ele><time>2026-04-26T08:16:52.673Z</time></trkpt><trkpt lat="48.4367767" lon="-4.1003283"><ele>76.0</ele><time>2026-04-26T08:16:53.677Z</time></trkpt><trkpt lat="48.4368467" lon="-4.100135"><ele>76.0</ele><time>2026-04-26T08:16:54.675Z</time></trkpt><trkpt lat="48.4369067" lon="-4.099935"><ele>76.0</ele><time>2026-04-26T08:16:55.678Z</time></trkpt><trkpt lat="48.43695" lon="-4.0997233"><ele>76.0</ele><time>2026-04-26T08:16:56.674Z</time></trkpt><trkpt lat="48.43698" lon="-4.0994917"><ele>76.0</ele><time>2026-04-26T08:16:57.672Z</time></trkpt><trkpt lat="48.4370017" lon="-4.0992367"><ele>76.0</ele><time>2026-04-26T08:16:58.675Z</time></trkpt><trkpt lat="48.4370183" lon="-4.0989733"><ele>76.0</ele><time>2026-04-26T08:16:59.672Z</time></trkpt><trkpt lat="48.4370367" lon="-4.0987133"><ele>76.0</ele><time>2026-04-26T08:17:00.681Z</time></trkpt><trkpt lat="48.4370567" lon="-4.0984583"><ele>76.33333333333333</ele><time>2026-04-26T08:17:01.673Z</time></trkpt><trkpt lat="48.437085" lon="-4.098215"><ele>76.66666666666667</ele><time>2026-04-26T08:17:02.677Z</time></trkpt><trkpt lat="48.437125" lon="-4.0979817"><ele>77.0</ele><time>2026-04-26T08:17:03.68Z</time></trkpt><trkpt lat="48.4371817" lon="-4.0977633"><ele>76.66666666666667</ele><time>2026-04-26T08:17:04.677Z</time></trkpt><trkpt lat="48.4372417" lon="-4.0975483"><ele>76.33333333333333</ele><time>2026-04-26T08:17:05.675Z</time></trkpt><trkpt lat="48.4373117" lon="-4.097335"><ele>76.0</ele><time>2026-04-26T08:17:06.679Z</time></trkpt><trkpt lat="48.4373933" lon="-4.097125"><ele>76.0</ele><time>2026-04-26T08:17:07.677Z</time></trkpt><trkpt lat="48.43748" lon="-4.0969267"><ele>76.0</ele><time>2026-04-26T08:17:08.675Z</time></trkpt><trkpt lat="48.4375767" lon="-4.096745"><ele>76.0</ele><time>2026-04-26T08:17:09.673Z</time></trkpt><trkpt lat="48.437685" lon="-4.0965783"><ele>75.66666666666666</ele><time>2026-04-26T08:17:10.679Z</time></trkpt><trkpt lat="48.437805" lon="-4.0964267"><ele>75.33333333333333</ele><time>2026-04-26T08:17:11.676Z</time></trkpt><trkpt lat="48.4379367" lon="-4.09628"><ele>75.0</ele><time>2026-04-26T08:17:12.675Z</time></trkpt><trkpt lat="48.438075" lon="-4.096135"><ele>75.0</ele><time>2026-04-26T08:17:13.677Z</time></trkpt><trkpt lat="48.438205" lon="-4.0959917"><ele>75.0</ele><time>2026-04-26T08:17:14.674Z</time></trkpt><trkpt lat="48.4383383" lon="-4.0958483"><ele>75.0</ele><time>2026-04-26T08:17:15.675Z</time></trkpt><trkpt lat="48.4384683" lon="-4.0957033"><ele>75.66666666666667</ele><time>2026-04-26T08:17:16.675Z</time></trkpt><trkpt lat="48.4386017" lon="-4.09557"><ele>76.33333333333334</ele><time>2026-04-26T08:17:17.682Z</time></trkpt><trkpt lat="48.4387383" lon="-4.0954467"><ele>77.0</ele><time>2026-04-26T08:17:18.675Z</time></trkpt><trkpt lat="48.438875" lon="-4.0953117"><ele>77.0</ele><time>2026-04-26T08:17:19.677Z</time></trkpt><trkpt lat="48.439015" lon="-4.0951917"><ele>77.0</ele><time>2026-04-26T08:17:20.678Z</time></trkpt><trkpt lat="48.43915" lon="-4.09509"><ele>77.0</ele><time>2026-04-26T08:17:21.672Z</time></trkpt><trkpt lat="48.4392767" lon="-4.095005"><ele>77.0</ele><time>2026-04-26T08:17:22.677Z</time></trkpt><trkpt lat="48.4393917" lon="-4.0949517"><ele>77.0</ele><time>2026-04-26T08:17:23.677Z</time></trkpt><trkpt lat="48.4394917" lon="-4.0949317"><ele>77.0</ele><time>2026-04-26T08:17:24.673Z</time></trkpt><trkpt lat="48.4395767" lon="-4.0949517"><ele>77.0</ele><time>2026-04-26T08:17:25.683Z</time></trkpt><trkpt lat="48.4396383" lon="-4.0949767"><ele>77.0</ele><time>2026-04-26T08:17:26.674Z</time></trkpt><trkpt lat="48.4397083" lon="-4.0949967"><ele>77.0</ele><time>2026-04-26T08:17:28.677Z</time></trkpt><trkpt lat="48.4397767" lon="-4.094955"><ele>77.8</ele><time>2026-04-26T08:17:31.678Z</time></trkpt><trkpt lat="48.439875" lon="-4.0948333"><ele>78.6</ele><time>2026-04-26T08:17:33.675Z</time></trkpt><trkpt lat="48.439935" lon="-4.0947533"><ele>79.39999999999999</ele><time>2026-04-26T08:17:34.676Z</time></trkpt><trkpt lat="48.4400017" lon="-4.0946633"><ele>80.2</ele><time>2026-04-26T08:17:35.679Z</time></trkpt><trkpt lat="48.4400767" lon="-4.0945633"><ele>81.0</ele><time>2026-04-26T08:17:36.675Z</time></trkpt><trkpt lat="48.440155" lon="-4.094455"><ele>81.0</ele><time>2026-04-26T08:17:37.677Z</time></trkpt><trkpt lat="48.4402383" lon="-4.09434"><ele>81.0</ele><time>2026-04-26T08:17:38.676Z</time></trkpt><trkpt lat="48.4403267" lon="-4.0942133"><ele>81.0</ele><time>2026-04-26T08:17:39.677Z</time></trkpt><trkpt lat="48.4404267" lon="-4.0940833"><ele>81.0</ele><time>2026-04-26T08:17:40.676Z</time></trkpt><trkpt lat="48.4405267" lon="-4.0939517"><ele>80.25</ele><time>2026-04-26T08:17:41.679Z</time></trkpt><trkpt lat="48.440635" lon="-4.0938217"><ele>79.5</ele><time>2026-04-26T08:17:42.674Z</time></trkpt><trkpt lat="48.4407483" lon="-4.0936867"><ele>78.75</ele><time>2026-04-26T08:17:43.676Z</time></trkpt><trkpt lat="48.440865" lon="-4.09355"><ele>78.0</ele><time>2026-04-26T08:17:44.679Z</time></trkpt><trkpt lat="48.44099" lon="-4.0934117"><ele>78.0</ele><time>2026-04-26T08:17:45.674Z</time></trkpt><trkpt lat="48.4411233" lon="-4.09328"><ele>78.0</ele><time>2026-04-26T08:17:46.676Z</time></trkpt><trkpt lat="48.4412683" lon="-4.0931517"><ele>78.0</ele><time>2026-04-26T08:17:47.678Z</time></trkpt><trkpt lat="48.441425" lon="-4.0930267"><ele>77.0</ele><time>2026-04-26T08:17:48.678Z</time></trkpt><trkpt lat="48.4415883" lon="-4.0929167"><ele>76.0</ele><time>2026-04-26T08:17:49.679Z</time></trkpt><trkpt lat="48.4417617" lon="-4.092815"><ele>75.0</ele><time>2026-04-26T08:17:50.676Z</time></trkpt><trkpt lat="48.4419417" lon="-4.0927383"><ele>75.0</ele><time>2026-04-26T08:17:51.684Z</time></trkpt><trkpt lat="48.4421217" lon="-4.0926717"><ele>75.0</ele><time>2026-04-26T08:17:52.677Z</time></trkpt><trkpt lat="48.4423083" lon="-4.092625"><ele>75.0</ele><time>2026-04-26T08:17:53.675Z</time></trkpt><trkpt lat="48.4425017" lon="-4.092585"><ele>73.33333333333333</ele><time>2026-04-26T08:17:54.678Z</time></trkpt><trkpt lat="48.4427017" lon="-4.0925467"><ele>71.66666666666666</ele><time>2026-04-26T08:17:55.676Z</time></trkpt><trkpt lat="48.4429033" lon="-4.09251"><ele>70.0</ele><time>2026-04-26T08:17:56.674Z</time></trkpt><trkpt lat="48.4430983" lon="-4.0924833"><ele>70.0</ele><time>2026-04-26T08:17:57.677Z</time></trkpt><trkpt lat="48.4432983" lon="-4.09245"><ele>70.0</ele><time>2026-04-26T08:17:58.674Z</time></trkpt><trkpt lat="48.4434983" lon="-4.092405"><ele>70.0</ele><time>2026-04-26T08:17:59.676Z</time></trkpt><trkpt lat="48.4437017" lon="-4.09233"><ele>70.66666666666666</ele><time>2026-04-26T08:18:00.675Z</time></trkpt><trkpt lat="48.4439017" lon="-4.0922333"><ele>71.33333333333333</ele><time>2026-04-26T08:18:01.683Z</time></trkpt><trkpt lat="48.4441017" lon="-4.09211"><ele>72.0</ele><time>2026-04-26T08:18:02.676Z</time></trkpt><trkpt lat="48.4442983" lon="-4.09198"><ele>72.0</ele><time>2026-04-26T08:18:03.677Z</time></trkpt><trkpt lat="48.444495" lon="-4.09185"><ele>72.0</ele><time>2026-04-26T08:18:04.674Z</time></trkpt><trkpt lat="48.4446983" lon="-4.091725"><ele>72.0</ele><time>2026-04-26T08:18:05.676Z</time></trkpt><trkpt lat="48.4448983" lon="-4.09159"><ele>71.33333333333333</ele><time>2026-04-26T08:18:06.676Z</time></trkpt><trkpt lat="48.4450933" lon="-4.0914517"><ele>70.66666666666666</ele><time>2026-04-26T08:18:07.677Z</time></trkpt><trkpt lat="48.44529" lon="-4.0913117"><ele>70.0</ele><time>2026-04-26T08:18:08.678Z</time></trkpt><trkpt lat="48.4454867" lon="-4.0911733"><ele>70.0</ele><time>2026-04-26T08:18:09.679Z</time></trkpt><trkpt lat="48.4456783" lon="-4.0910233"><ele>70.0</ele><time>2026-04-26T08:18:10.678Z</time></trkpt><trkpt lat="48.4458617" lon="-4.09085"><ele>70.0</ele><time>2026-04-26T08:18:11.671Z</time></trkpt><trkpt lat="48.44604" lon="-4.0906633"><ele>69.33333333333333</ele><time>2026-04-26T08:18:12.68Z</time></trkpt><trkpt lat="48.4462183" lon="-4.09047"><ele>68.66666666666667</ele><time>2026-04-26T08:18:13.676Z</time></trkpt><trkpt lat="48.4463967" lon="-4.0902783"><ele>68.0</ele><time>2026-04-26T08:18:14.675Z</time></trkpt><trkpt lat="48.446575" lon="-4.09009"><ele>72.0</ele><time>2026-04-26T08:18:15.673Z</time></trkpt><trkpt lat="48.4467533" lon="-4.0899033"><ele>76.0</ele><time>2026-04-26T08:18:16.675Z</time></trkpt><trkpt lat="48.4469283" lon="-4.0897167"><ele>80.0</ele><time>2026-04-26T08:18:17.68Z</time></trkpt><trkpt lat="48.4471" lon="-4.089525"><ele>80.66666666666667</ele><time>2026-04-26T08:18:18.677Z</time></trkpt><trkpt lat="48.4472683" lon="-4.0893317"><ele>81.33333333333333</ele><time>2026-04-26T08:18:19.678Z</time></trkpt><trkpt lat="48.4474383" lon="-4.0891417"><ele>82.0</ele><time>2026-04-26T08:18:20.679Z</time></trkpt><trkpt lat="48.4476117" lon="-4.088955"><ele>82.0</ele><time>2026-04-26T08:18:21.678Z</time></trkpt><trkpt lat="48.44779" lon="-4.088775"><ele>82.0</ele><time>2026-04-26T08:18:22.676Z</time></trkpt><trkpt lat="48.4479667" lon="-4.0885917"><ele>82.0</ele><time>2026-04-26T08:18:23.678Z</time></trkpt><trkpt lat="48.44814" lon="-4.0884033"><ele>82.66666666666666</ele><time>2026-04-26T08:18:24.681Z</time></trkpt><trkpt lat="48.448315" lon="-4.0882217"><ele>83.33333333333333</ele><time>2026-04-26T08:18:25.676Z</time></trkpt><trkpt lat="48.4484883" lon="-4.0880467"><ele>84.0</ele><time>2026-04-26T08:18:26.673Z</time></trkpt><trkpt lat="48.4486567" lon="-4.0878667"><ele>83.0</ele><time>2026-04-26T08:18:27.674Z</time></trkpt><trkpt lat="48.4488317" lon="-4.087685"><ele>82.0</ele><time>2026-04-26T08:18:28.686Z</time></trkpt><trkpt lat="48.4490033" lon="-4.087505"><ele>81.0</ele><time>2026-04-26T08:18:29.676Z</time></trkpt><trkpt lat="48.4491733" lon="-4.0873183"><ele>81.0</ele><time>2026-04-26T08:18:30.674Z</time></trkpt><trkpt lat="48.4493417" lon="-4.0871317"><ele>81.0</ele><time>2026-04-26T08:18:31.674Z</time></trkpt><trkpt lat="48.449505" lon="-4.08695"><ele>81.0</ele><time>2026-04-26T08:18:32.679Z</time></trkpt><trkpt lat="48.4496633" lon="-4.0867817"><ele>81.0</ele><time>2026-04-26T08:18:33.676Z</time></trkpt><trkpt lat="48.449815" lon="-4.0866267"><ele>81.0</ele><time>2026-04-26T08:18:34.679Z</time></trkpt><trkpt lat="48.44996" lon="-4.0864783"><ele>81.0</ele><time>2026-04-26T08:18:35.674Z</time></trkpt><trkpt lat="48.4501017" lon="-4.08632"><ele>81.0</ele><time>2026-04-26T08:18:36.674Z</time></trkpt><trkpt lat="48.450245" lon="-4.08616"><ele>81.0</ele><time>2026-04-26T08:18:37.68Z</time></trkpt><trkpt lat="48.45038" lon="-4.0859733"><ele>81.0</ele><time>2026-04-26T08:18:38.673Z</time></trkpt><trkpt lat="48.450505" lon="-4.0857583"><ele>76.33333333333333</ele><time>2026-04-26T08:18:39.681Z</time></trkpt><trkpt lat="48.4506117" lon="-4.085515"><ele>71.66666666666666</ele><time>2026-04-26T08:18:40.674Z</time></trkpt><trkpt lat="48.450705" lon="-4.0852467"><ele>67.0</ele><time>2026-04-26T08:18:41.673Z</time></trkpt><trkpt lat="48.4507833" lon="-4.084955"><ele>67.0</ele><time>2026-04-26T08:18:42.675Z</time></trkpt><trkpt lat="48.45085" lon="-4.0846533"><ele>67.0</ele><time>2026-04-26T08:18:43.674Z</time></trkpt><trkpt lat="48.45091" lon="-4.0843517"><ele>67.0</ele><time>2026-04-26T08:18:44.675Z</time></trkpt><trkpt lat="48.4509633" lon="-4.0840533"><ele>67.33333333333333</ele><time>2026-04-26T08:18:45.677Z</time></trkpt><trkpt lat="48.451015" lon="-4.0837517"><ele>67.66666666666667</ele><time>2026-04-26T08:18:46.674Z</time></trkpt><trkpt lat="48.4510683" lon="-4.0834533"><ele>68.0</ele><time>2026-04-26T08:18:47.675Z</time></trkpt><trkpt lat="48.451125" lon="-4.0831583"><ele>67.66666666666667</ele><time>2026-04-26T08:18:48.673Z</time></trkpt><trkpt lat="48.4511967" lon="-4.0828783"><ele>67.33333333333333</ele><time>2026-04-26T08:18:49.674Z</time></trkpt><trkpt lat="48.451285" lon="-4.0826033"><ele>67.0</ele><time>2026-04-26T08:18:50.682Z</time></trkpt><trkpt lat="48.451385" lon="-4.082335"><ele>67.0</ele><time>2026-04-26T08:18:51.675Z</time></trkpt><trkpt lat="48.4514917" lon="-4.0820733"><ele>67.0</ele><time>2026-04-26T08:18:52.674Z</time></trkpt><trkpt lat="48.4516067" lon="-4.0818133"><ele>67.0</ele><time>2026-04-26T08:18:53.677Z</time></trkpt><trkpt lat="48.45172" lon="-4.0815483"><ele>68.33333333333333</ele><time>2026-04-26T08:18:54.677Z</time></trkpt><trkpt lat="48.4518283" lon="-4.0812817"><ele>69.66666666666667</ele><time>2026-04-26T08:18:55.675Z</time></trkpt><trkpt lat="48.4519333" lon="-4.0810133"><ele>71.0</ele><time>2026-04-26T08:18:56.676Z</time></trkpt><trkpt lat="48.452035" lon="-4.08075"><ele>68.66666666666667</ele><time>2026-04-26T08:18:57.675Z</time></trkpt><trkpt lat="48.4521467" lon="-4.080485"><ele>66.33333333333333</ele><time>2026-04-26T08:18:58.675Z</time></trkpt><trkpt lat="48.4522617" lon="-4.0802233"><ele>64.0</ele><time>2026-04-26T08:18:59.679Z</time></trkpt><trkpt lat="48.45238" lon="-4.0799633"><ele>65.33333333333333</ele><time>2026-04-26T08:19:00.675Z</time></trkpt><trkpt lat="48.4525033" lon="-4.0797117"><ele>66.66666666666667</ele><time>2026-04-26T08:19:01.673Z</time></trkpt><trkpt lat="48.45264" lon="-4.079475"><ele>68.0</ele><time>2026-04-26T08:19:02.682Z</time></trkpt><trkpt lat="48.452785" lon="-4.0792567"><ele>67.33333333333334</ele><time>2026-04-26T08:19:03.674Z</time></trkpt><trkpt lat="48.4529383" lon="-4.079055"><ele>66.66666666666667</ele><time>2026-04-26T08:19:04.682Z</time></trkpt><trkpt lat="48.4531" lon="-4.078865"><ele>66.0</ele><time>2026-04-26T08:19:05.68Z</time></trkpt><trkpt lat="48.4532683" lon="-4.07868"><ele>66.0</ele><time>2026-04-26T08:19:06.679Z</time></trkpt><trkpt lat="48.4534383" lon="-4.0785"><ele>66.0</ele><time>2026-04-26T08:19:07.681Z</time></trkpt><trkpt lat="48.45361" lon="-4.0783217"><ele>66.0</ele><time>2026-04-26T08:19:08.679Z</time></trkpt><trkpt lat="48.453775" lon="-4.0781517"><ele>65.0</ele><time>2026-04-26T08:19:09.68Z</time></trkpt><trkpt lat="48.453935" lon="-4.0779867"><ele>64.0</ele><time>2026-04-26T08:19:10.677Z</time></trkpt><trkpt lat="48.454085" lon="-4.0778317"><ele>63.0</ele><time>2026-04-26T08:19:11.68Z</time></trkpt><trkpt lat="48.4542267" lon="-4.0776783"><ele>63.0</ele><time>2026-04-26T08:19:12.676Z</time></trkpt><trkpt lat="48.4543583" lon="-4.07753"><ele>63.0</ele><time>2026-04-26T08:19:13.679Z</time></trkpt><trkpt lat="48.4544833" lon="-4.0774017"><ele>63.0</ele><time>2026-04-26T08:19:14.676Z</time></trkpt><trkpt lat="48.4545883" lon="-4.0772833"><ele>63.0</ele><time>2026-04-26T08:19:15.673Z</time></trkpt><trkpt lat="48.4546817" lon="-4.077175"><ele>62.2</ele><time>2026-04-26T08:19:16.675Z</time></trkpt><trkpt lat="48.4547733" lon="-4.0770933"><ele>61.4</ele><time>2026-04-26T08:19:17.675Z</time></trkpt><trkpt lat="48.454845" lon="-4.077025"><ele>60.60000000000001</ele><time>2026-04-26T08:19:18.68Z</time></trkpt><trkpt lat="48.4548883" lon="-4.0769167"><ele>59.800000000000004</ele><time>2026-04-26T08:19:20.674Z</time></trkpt><trkpt lat="48.454835" lon="-4.076845"><ele>59.0</ele><time>2026-04-26T08:19:22.675Z</time></trkpt><trkpt lat="48.454715" lon="-4.0767833"><ele>59.00000000000001</ele><time>2026-04-26T08:19:24.682Z</time></trkpt><trkpt lat="48.454655" lon="-4.07673"><ele>59.0</ele><time>2026-04-26T08:19:25.675Z</time></trkpt><trkpt lat="48.45459" lon="-4.0766683"><ele>59.0</ele><time>2026-04-26T08:19:26.677Z</time></trkpt><trkpt lat="48.45451" lon="-4.0765983"><ele>59.0</ele><time>2026-04-26T08:19:27.677Z</time></trkpt><trkpt lat="48.45442" lon="-4.0765217"><ele>59.00000000000001</ele><time>2026-04-26T08:19:28.676Z</time></trkpt><trkpt lat="48.4543283" lon="-4.0764417"><ele>59.0</ele><time>2026-04-26T08:19:29.679Z</time></trkpt><trkpt lat="48.4542267" lon="-4.0763583"><ele>59.2</ele><time>2026-04-26T08:19:30.677Z</time></trkpt><trkpt lat="48.454125" lon="-4.076285"><ele>59.400000000000006</ele><time>2026-04-26T08:19:31.676Z</time></trkpt><trkpt lat="48.4540317" lon="-4.076225"><ele>59.6</ele><time>2026-04-26T08:19:32.683Z</time></trkpt><trkpt lat="48.4539467" lon="-4.0761883"><ele>59.8</ele><time>2026-04-26T08:19:33.679Z</time></trkpt><trkpt lat="48.453865" lon="-4.0761683"><ele>60.0</ele><time>2026-04-26T08:19:34.672Z</time></trkpt><trkpt lat="48.453795" lon="-4.076165"><ele>60.333333333333336</ele><time>2026-04-26T08:19:35.679Z</time></trkpt><trkpt lat="48.4537017" lon="-4.076185"><ele>60.66666666666667</ele><time>2026-04-26T08:19:37.68Z</time></trkpt><trkpt lat="48.4536267" lon="-4.076145"><ele>61.0</ele><time>2026-04-26T08:19:40.678Z</time></trkpt><trkpt lat="48.4536417" lon="-4.076035"><ele>61.333333333333336</ele><time>2026-04-26T08:19:42.676Z</time></trkpt><trkpt lat="48.4536883" lon="-4.0758933"><ele>61.66666666666667</ele><time>2026-04-26T08:19:44.675Z</time></trkpt><trkpt lat="48.4537317" lon="-4.075805"><ele>62.0</ele><time>2026-04-26T08:19:45.676Z</time></trkpt><trkpt lat="48.45377" lon="-4.0757117"><ele>61.8</ele><time>2026-04-26T08:19:46.675Z</time></trkpt><trkpt lat="48.45382" lon="-4.075615"><ele>61.6</ele><time>2026-04-26T08:19:47.676Z</time></trkpt><trkpt lat="48.4538867" lon="-4.0755217"><ele>61.39999999999999</ele><time>2026-04-26T08:19:48.677Z</time></trkpt><trkpt lat="48.453955" lon="-4.0754283"><ele>61.199999999999996</ele><time>2026-04-26T08:19:49.677Z</time></trkpt><trkpt lat="48.4540233" lon="-4.075335"><ele>61.0</ele><time>2026-04-26T08:19:50.675Z</time></trkpt><trkpt lat="48.4540917" lon="-4.0752383"><ele>60.99999999999999</ele><time>2026-04-26T08:19:51.677Z</time></trkpt><trkpt lat="48.4541533" lon="-4.0751367"><ele>61.0</ele><time>2026-04-26T08:19:52.678Z</time></trkpt><trkpt lat="48.4542083" lon="-4.07503"><ele>61.0</ele><time>2026-04-26T08:19:53.678Z</time></trkpt><trkpt lat="48.45426" lon="-4.07493"><ele>61.0</ele><time>2026-04-26T08:19:54.676Z</time></trkpt><trkpt lat="48.4543133" lon="-4.0748367"><ele>60.99999999999999</ele><time>2026-04-26T08:19:55.678Z</time></trkpt><trkpt lat="48.4543767" lon="-4.0747433"><ele>61.0</ele><time>2026-04-26T08:19:56.683Z</time></trkpt><trkpt lat="48.4544283" lon="-4.074635"><ele>61.33333333333333</ele><time>2026-04-26T08:19:57.68Z</time></trkpt><trkpt lat="48.4544767" lon="-4.07452"><ele>61.666666666666664</ele><time>2026-04-26T08:19:58.675Z</time></trkpt><trkpt lat="48.454525" lon="-4.0744033"><ele>62.0</ele><time>2026-04-26T08:19:59.676Z</time></trkpt><trkpt lat="48.4545733" lon="-4.074295"><ele>62.33333333333333</ele><time>2026-04-26T08:20:00.676Z</time></trkpt><trkpt lat="48.4546217" lon="-4.0741917"><ele>62.666666666666664</ele><time>2026-04-26T08:20:01.675Z</time></trkpt><trkpt lat="48.454665" lon="-4.0740883"><ele>63.0</ele><time>2026-04-26T08:20:02.676Z</time></trkpt><trkpt lat="48.4547083" lon="-4.0739883"><ele>64.5</ele><time>2026-04-26T08:20:03.675Z</time></trkpt><trkpt lat="48.4547567" lon="-4.07389"><ele>66.0</ele><time>2026-04-26T08:20:04.673Z</time></trkpt><trkpt lat="48.45481" lon="-4.073795"><ele>67.5</ele><time>2026-04-26T08:20:05.673Z</time></trkpt><trkpt lat="48.4548667" lon="-4.0737017"><ele>69.0</ele><time>2026-04-26T08:20:06.675Z</time></trkpt><trkpt lat="48.4549283" lon="-4.0736183"><ele>70.5</ele><time>2026-04-26T08:20:07.675Z</time></trkpt><trkpt lat="48.4549917" lon="-4.073545"><ele>72.0</ele><time>2026-04-26T08:20:08.679Z</time></trkpt><trkpt lat="48.4550633" lon="-4.073485"><ele>72.0</ele><time>2026-04-26T08:20:09.68Z</time></trkpt><trkpt lat="48.4551383" lon="-4.0734333"><ele>72.0</ele><time>2026-04-26T08:20:10.678Z</time></trkpt><trkpt lat="48.45522" lon="-4.0734017"><ele>72.0</ele><time>2026-04-26T08:20:11.678Z</time></trkpt><trkpt lat="48.455305" lon="-4.0733717"><ele>72.0</ele><time>2026-04-26T08:20:12.675Z</time></trkpt><trkpt lat="48.4553917" lon="-4.0733533"><ele>72.0</ele><time>2026-04-26T08:20:13.677Z</time></trkpt><trkpt lat="48.4554717" lon="-4.0733233"><ele>72.0</ele><time>2026-04-26T08:20:14.676Z</time></trkpt><trkpt lat="48.4555417" lon="-4.0733067"><ele>74.8</ele><time>2026-04-26T08:20:15.68Z</time></trkpt><trkpt lat="48.4556233" lon="-4.0731983"><ele>77.6</ele><time>2026-04-26T08:20:17.678Z</time></trkpt><trkpt lat="48.4556667" lon="-4.07307"><ele>80.39999999999999</ele><time>2026-04-26T08:20:19.675Z</time></trkpt><trkpt lat="48.4556517" lon="-4.07293"><ele>83.2</ele><time>2026-04-26T08:20:21.678Z</time></trkpt><trkpt lat="48.4556067" lon="-4.072825"><ele>86.0</ele><time>2026-04-26T08:20:23.681Z</time></trkpt><trkpt lat="48.4555583" lon="-4.0727183"><ele>86.00000000000001</ele><time>2026-04-26T08:20:25.676Z</time></trkpt><trkpt lat="48.4555217" lon="-4.0725667"><ele>86.0</ele><time>2026-04-26T08:20:27.68Z</time></trkpt><trkpt lat="48.4555" lon="-4.0724767"><ele>86.0</ele><time>2026-04-26T08:20:28.675Z</time></trkpt><trkpt lat="48.455475" lon="-4.072385"><ele>86.0</ele><time>2026-04-26T08:20:29.679Z</time></trkpt><trkpt lat="48.4554433" lon="-4.0722967"><ele>86.0</ele><time>2026-04-26T08:20:30.677Z</time></trkpt><trkpt lat="48.45541" lon="-4.072215"><ele>86.00000000000001</ele><time>2026-04-26T08:20:31.676Z</time></trkpt><trkpt lat="48.4553683" lon="-4.0721233"><ele>86.0</ele><time>2026-04-26T08:20:32.677Z</time></trkpt><trkpt lat="48.4553017" lon="-4.0719567"><ele>87.0</ele><time>2026-04-26T08:20:34.674Z</time></trkpt><trkpt lat="48.4552767" lon="-4.07186"><ele>88.0</ele><time>2026-04-26T08:20:35.682Z</time></trkpt><trkpt lat="48.4552683" lon="-4.071675"><ele>89.0</ele><time>2026-04-26T08:20:37.677Z</time></trkpt><trkpt lat="48.4552733" lon="-4.07151"><ele>90.0</ele><time>2026-04-26T08:20:39.681Z</time></trkpt><trkpt lat="48.4553" lon="-4.0713717"><ele>91.0</ele><time>2026-04-26T08:20:41.678Z</time></trkpt><trkpt lat="48.45534" lon="-4.0712217"><ele>91.0</ele><time>2026-04-26T08:20:43.674Z</time></trkpt><trkpt lat="48.4553633" lon="-4.0710567"><ele>91.0</ele><time>2026-04-26T08:20:45.677Z</time></trkpt><trkpt lat="48.45537" lon="-4.0708983"><ele>91.0</ele><time>2026-04-26T08:20:47.674Z</time></trkpt><trkpt lat="48.45537" lon="-4.0707433"><ele>91.0</ele><time>2026-04-26T08:20:49.675Z</time></trkpt><trkpt lat="48.4553683" lon="-4.0705983"><ele>91.0</ele><time>2026-04-26T08:20:51.678Z</time></trkpt><trkpt lat="48.4553767" lon="-4.070475"><ele>91.0</ele><time>2026-04-26T08:20:53.674Z</time></trkpt><trkpt lat="48.455395" lon="-4.0703733"><ele>91.0</ele><time>2026-04-26T08:20:55.677Z</time></trkpt><trkpt lat="48.4554933" lon="-4.0703217"><ele>91.0</ele><time>2026-04-26T08:24:55.675Z</time></trkpt><trkpt lat="48.45557" lon="-4.0703617"><ele>91.0</ele><time>2026-04-26T08:24:58.675Z</time></trkpt><trkpt lat="48.455655" lon="-4.0703967"><ele>91.0</ele><time>2026-04-26T08:25:01.676Z</time></trkpt><trkpt lat="48.4557433" lon="-4.07042"><ele>91.0</ele><time>2026-04-26T08:25:04.675Z</time></trkpt><trkpt lat="48.4558067" lon="-4.0704383"><ele>91.16666666666666</ele><time>2026-04-26T08:25:06.676Z</time></trkpt><trkpt lat="48.4559" lon="-4.07042"><ele>91.33333333333333</ele><time>2026-04-26T08:25:09.676Z</time></trkpt><trkpt lat="48.4559583" lon="-4.070345"><ele>91.5</ele><time>2026-04-26T08:25:12.673Z</time></trkpt><trkpt lat="48.4559933" lon="-4.07026"><ele>91.66666666666667</ele><time>2026-04-26T08:25:14.682Z</time></trkpt><trkpt lat="48.4560217" lon="-4.0701633"><ele>91.83333333333334</ele><time>2026-04-26T08:25:16.673Z</time></trkpt><trkpt lat="48.4560567" lon="-4.0700617"><ele>92.0</ele><time>2026-04-26T08:25:18.675Z</time></trkpt><trkpt lat="48.4561" lon="-4.069975"><ele>91.6</ele><time>2026-04-26T08:25:20.676Z</time></trkpt><trkpt lat="48.4561267" lon="-4.0698813"><ele>91.19999999999999</ele><time>2026-04-26T08:25:23.675Z</time></trkpt><trkpt lat="48.4562055" lon="-4.069622"><ele>90.8</ele><time>2026-04-26T08:25:56.674Z</time></trkpt><trkpt lat="48.456238" lon="-4.0695114"><ele>90.4</ele><time>2026-04-26T08:25:57.676Z</time></trkpt><trkpt lat="48.4562618" lon="-4.0694216"><ele>90.0</ele><time>2026-04-26T08:25:58.675Z</time></trkpt><trkpt lat="48.45631" lon="-4.0692519"><ele>89.4</ele><time>2026-04-26T08:26:00.676Z</time></trkpt><trkpt lat="48.4563633" lon="-4.069085"><ele>88.8</ele><time>2026-04-26T08:26:02.674Z</time></trkpt><trkpt lat="48.4563883" lon="-4.0689067"><ele>88.19999999999999</ele><time>2026-04-26T08:26:04.675Z</time></trkpt><trkpt lat="48.45639" lon="-4.0688083"><ele>87.6</ele><time>2026-04-26T08:26:05.679Z</time></trkpt><trkpt lat="48.456355" lon="-4.068615"><ele>87.0</ele><time>2026-04-26T08:26:07.676Z</time></trkpt><trkpt lat="48.45632" lon="-4.0685033"><ele>87.19999999999999</ele><time>2026-04-26T08:26:08.681Z</time></trkpt><trkpt lat="48.4562767" lon="-4.0683883"><ele>87.4</ele><time>2026-04-26T08:26:09.676Z</time></trkpt><trkpt lat="48.4562233" lon="-4.0682683"><ele>87.6</ele><time>2026-04-26T08:26:10.673Z</time></trkpt><trkpt lat="48.4561683" lon="-4.06815"><ele>87.80000000000001</ele><time>2026-04-26T08:26:11.676Z</time></trkpt><trkpt lat="48.4561133" lon="-4.0680233"><ele>88.0</ele><time>2026-04-26T08:26:12.677Z</time></trkpt><trkpt lat="48.4560567" lon="-4.0679"><ele>88.0</ele><time>2026-04-26T08:26:13.675Z</time></trkpt><trkpt lat="48.4560017" lon="-4.0677767"><ele>88.0</ele><time>2026-04-26T08:26:14.674Z</time></trkpt><trkpt lat="48.4559467" lon="-4.06765"><ele>88.0</ele><time>2026-04-26T08:26:15.678Z</time></trkpt><trkpt lat="48.4558933" lon="-4.067525"><ele>88.0</ele><time>2026-04-26T08:26:16.679Z</time></trkpt><trkpt lat="48.4558367" lon="-4.0674"><ele>88.0</ele><time>2026-04-26T08:26:17.679Z</time></trkpt><trkpt lat="48.45578" lon="-4.0672817"><ele>88.33333333333333</ele><time>2026-04-26T08:26:18.681Z</time></trkpt><trkpt lat="48.4557267" lon="-4.0671633"><ele>88.66666666666666</ele><time>2026-04-26T08:26:19.675Z</time></trkpt><trkpt lat="48.4556783" lon="-4.0670533"><ele>89.0</ele><time>2026-04-26T08:26:20.676Z</time></trkpt><trkpt lat="48.45563" lon="-4.0669467"><ele>89.33333333333333</ele><time>2026-04-26T08:26:21.677Z</time></trkpt><trkpt lat="48.455585" lon="-4.0668467"><ele>89.66666666666667</ele><time>2026-04-26T08:26:22.674Z</time></trkpt><trkpt lat="48.455535" lon="-4.066755"><ele>90.0</ele><time>2026-04-26T08:26:23.677Z</time></trkpt><trkpt lat="48.4554733" lon="-4.06668"><ele>90.66666666666667</ele><time>2026-04-26T08:26:24.675Z</time></trkpt><trkpt lat="48.455395" lon="-4.0666367"><ele>91.33333333333333</ele><time>2026-04-26T08:26:25.674Z</time></trkpt><trkpt lat="48.455315" lon="-4.066625"><ele>92.0</ele><time>2026-04-26T08:26:26.674Z</time></trkpt><trkpt lat="48.455235" lon="-4.0666283"><ele>92.66666666666666</ele><time>2026-04-26T08:26:27.678Z</time></trkpt><trkpt lat="48.45515" lon="-4.06663"><ele>93.33333333333333</ele><time>2026-04-26T08:26:28.675Z</time></trkpt><trkpt lat="48.45506" lon="-4.066635"><ele>94.0</ele><time>2026-04-26T08:26:29.677Z</time></trkpt><trkpt lat="48.454965" lon="-4.066625"><ele>95.0</ele><time>2026-04-26T08:26:30.673Z</time></trkpt><trkpt lat="48.454865" lon="-4.06661"><ele>96.0</ele><time>2026-04-26T08:26:31.678Z</time></trkpt><trkpt lat="48.454765" lon="-4.0665883"><ele>97.0</ele><time>2026-04-26T08:26:32.676Z</time></trkpt><trkpt lat="48.454665" lon="-4.0665567"><ele>98.0</ele><time>2026-04-26T08:26:33.674Z</time></trkpt><trkpt lat="48.4545667" lon="-4.06652"><ele>99.0</ele><time>2026-04-26T08:26:34.673Z</time></trkpt><trkpt lat="48.4544717" lon="-4.06648"><ele>99.80000000000001</ele><time>2026-04-26T08:26:35.673Z</time></trkpt><trkpt lat="48.4543783" lon="-4.066425"><ele>100.60000000000001</ele><time>2026-04-26T08:26:36.675Z</time></trkpt><trkpt lat="48.4542917" lon="-4.06636"><ele>101.4</ele><time>2026-04-26T08:26:37.679Z</time></trkpt><trkpt lat="48.45421" lon="-4.0662833"><ele>102.2</ele><time>2026-04-26T08:26:38.674Z</time></trkpt><trkpt lat="48.4541333" lon="-4.0661967"><ele>103.0</ele><time>2026-04-26T08:26:39.673Z</time></trkpt><trkpt lat="48.4540583" lon="-4.0661133"><ele>103.00000000000001</ele><time>2026-04-26T08:26:40.676Z</time></trkpt><trkpt lat="48.45399" lon="-4.06603"><ele>103.0</ele><time>2026-04-26T08:26:41.675Z</time></trkpt><trkpt lat="48.453925" lon="-4.0659483"><ele>103.0</ele><time>2026-04-26T08:26:42.673Z</time></trkpt><trkpt lat="48.4538633" lon="-4.0658717"><ele>103.0</ele><time>2026-04-26T08:26:43.681Z</time></trkpt><trkpt lat="48.4538083" lon="-4.0658"><ele>103.00000000000001</ele><time>2026-04-26T08:26:44.674Z</time></trkpt><trkpt lat="48.4537367" lon="-4.065675"><ele>103.0</ele><time>2026-04-26T08:26:46.673Z</time></trkpt><trkpt lat="48.4536833" lon="-4.06558"><ele>104.4</ele><time>2026-04-26T08:26:48.678Z</time></trkpt><trkpt lat="48.4535867" lon="-4.0655"><ele>105.80000000000001</ele><time>2026-04-26T08:26:50.676Z</time></trkpt><trkpt lat="48.4534683" lon="-4.06545"><ele>107.2</ele><time>2026-04-26T08:26:52.678Z</time></trkpt><trkpt lat="48.4534033" lon="-4.0654283"><ele>108.6</ele><time>2026-04-26T08:26:53.676Z</time></trkpt><trkpt lat="48.45333" lon="-4.0653983"><ele>110.0</ele><time>2026-04-26T08:26:54.675Z</time></trkpt><trkpt lat="48.4532517" lon="-4.0653683"><ele>110.0</ele><time>2026-04-26T08:26:55.675Z</time></trkpt><trkpt lat="48.4531717" lon="-4.0653383"><ele>110.0</ele><time>2026-04-26T08:26:56.676Z</time></trkpt><trkpt lat="48.4531067" lon="-4.0653183"><ele>110.0</ele><time>2026-04-26T08:26:57.678Z</time></trkpt><trkpt lat="48.4530017" lon="-4.0652817"><ele>110.0</ele><time>2026-04-26T08:26:59.676Z</time></trkpt><trkpt lat="48.4529167" lon="-4.06525"><ele>110.0</ele><time>2026-04-26T08:27:01.682Z</time></trkpt><trkpt lat="48.4528083" lon="-4.0652033"><ele>110.42857142857142</ele><time>2026-04-26T08:27:03.677Z</time></trkpt><trkpt lat="48.4527433" lon="-4.0651833"><ele>110.85714285714286</ele><time>2026-04-26T08:27:04.673Z</time></trkpt><trkpt lat="48.452675" lon="-4.0651567"><ele>111.28571428571428</ele><time>2026-04-26T08:27:05.677Z</time></trkpt><trkpt lat="48.4526083" lon="-4.065135"><ele>111.71428571428571</ele><time>2026-04-26T08:27:06.677Z</time></trkpt><trkpt lat="48.45254" lon="-4.0651167"><ele>112.14285714285714</ele><time>2026-04-26T08:27:07.679Z</time></trkpt><trkpt lat="48.4524767" lon="-4.0651"><ele>112.57142857142857</ele><time>2026-04-26T08:27:08.676Z</time></trkpt><trkpt lat="48.4524117" lon="-4.0650867"><ele>113.0</ele><time>2026-04-26T08:27:09.676Z</time></trkpt><trkpt lat="48.452345" lon="-4.0650733"><ele>113.0</ele><time>2026-04-26T08:27:10.675Z</time></trkpt><trkpt lat="48.452275" lon="-4.0650617"><ele>113.0</ele><time>2026-04-26T08:27:11.678Z</time></trkpt><trkpt lat="48.4522017" lon="-4.0650467"><ele>113.0</ele><time>2026-04-26T08:27:12.676Z</time></trkpt><trkpt lat="48.4521317" lon="-4.065045"><ele>113.0</ele><time>2026-04-26T08:27:13.676Z</time></trkpt><trkpt lat="48.4520583" lon="-4.065055"><ele>113.0</ele><time>2026-04-26T08:27:14.676Z</time></trkpt><trkpt lat="48.451985" lon="-4.0650783"><ele>113.0</ele><time>2026-04-26T08:27:15.674Z</time></trkpt><trkpt lat="48.4519133" lon="-4.0651033"><ele>113.0</ele><time>2026-04-26T08:27:16.673Z</time></trkpt><trkpt lat="48.4518417" lon="-4.065125"><ele>113.49999999999999</ele><time>2026-04-26T08:27:17.676Z</time></trkpt><trkpt lat="48.4517667" lon="-4.0651417"><ele>114.0</ele><time>2026-04-26T08:27:18.675Z</time></trkpt><trkpt lat="48.4516933" lon="-4.0651583"><ele>114.5</ele><time>2026-04-26T08:27:19.674Z</time></trkpt><trkpt lat="48.4516233" lon="-4.0651767"><ele>115.0</ele><time>2026-04-26T08:27:20.683Z</time></trkpt><trkpt lat="48.45156" lon="-4.065195"><ele>115.49999999999999</ele><time>2026-04-26T08:27:21.675Z</time></trkpt><trkpt lat="48.4514633" lon="-4.0652117"><ele>116.0</ele><time>2026-04-26T08:27:23.675Z</time></trkpt><trkpt lat="48.4513983" lon="-4.065175"><ele>116.0</ele><time>2026-04-26T08:27:25.676Z</time></trkpt><trkpt lat="48.4514767" lon="-4.0651517"><ele>116.0</ele><time>2026-04-26T08:27:31.675Z</time></trkpt><trkpt lat="48.451555" lon="-4.0651567"><ele>116.0</ele><time>2026-04-26T08:27:33.683Z</time></trkpt><trkpt lat="48.45167" lon="-4.06513"><ele>116.0</ele><time>2026-04-26T08:27:35.68Z</time></trkpt><trkpt lat="48.4517967" lon="-4.0651017"><ele>116.0</ele><time>2026-04-26T08:27:37.676Z</time></trkpt><trkpt lat="48.4518617" lon="-4.0650867"><ele>115.99999999999999</ele><time>2026-04-26T08:27:38.673Z</time></trkpt><trkpt lat="48.4519367" lon="-4.0650717"><ele>116.0</ele><time>2026-04-26T08:27:39.676Z</time></trkpt><trkpt lat="48.4520183" lon="-4.0650567"><ele>116.0</ele><time>2026-04-26T08:27:40.678Z</time></trkpt><trkpt lat="48.4521017" lon="-4.065045"><ele>116.0</ele><time>2026-04-26T08:27:41.683Z</time></trkpt><trkpt lat="48.45218" lon="-4.0650367"><ele>115.99999999999999</ele><time>2026-04-26T08:27:42.676Z</time></trkpt><trkpt lat="48.4522567" lon="-4.06504"><ele>116.0</ele><time>2026-04-26T08:27:43.674Z</time></trkpt><trkpt lat="48.4523333" lon="-4.0650583"><ele>115.49999999999999</ele><time>2026-04-26T08:27:44.689Z</time></trkpt><trkpt lat="48.45241" lon="-4.065075"><ele>115.0</ele><time>2026-04-26T08:27:45.674Z</time></trkpt><trkpt lat="48.4524867" lon="-4.065095"><ele>114.5</ele><time>2026-04-26T08:27:46.677Z</time></trkpt><trkpt lat="48.4525617" lon="-4.0651167"><ele>114.0</ele><time>2026-04-26T08:27:47.672Z</time></trkpt><trkpt lat="48.4526383" lon="-4.0651433"><ele>113.49999999999999</ele><time>2026-04-26T08:27:48.678Z</time></trkpt><trkpt lat="48.4527183" lon="-4.065165"><ele>113.0</ele><time>2026-04-26T08:27:49.682Z</time></trkpt><trkpt lat="48.452795" lon="-4.06519"><ele>112.99999999999999</ele><time>2026-04-26T08:27:50.682Z</time></trkpt><trkpt lat="48.45287" lon="-4.06521"><ele>113.0</ele><time>2026-04-26T08:27:51.678Z</time></trkpt><trkpt lat="48.4529383" lon="-4.0652283"><ele>113.0</ele><time>2026-04-26T08:27:52.674Z</time></trkpt><trkpt lat="48.4530433" lon="-4.0652383"><ele>113.0</ele><time>2026-04-26T08:27:54.678Z</time></trkpt><trkpt lat="48.4530783" lon="-4.0651367"><ele>112.99999999999999</ele><time>2026-04-26T08:27:56.677Z</time></trkpt><trkpt lat="48.4530717" lon="-4.064975"><ele>113.0</ele><time>2026-04-26T08:27:58.677Z</time></trkpt><trkpt lat="48.45306" lon="-4.0648783"><ele>113.28571428571429</ele><time>2026-04-26T08:27:59.675Z</time></trkpt><trkpt lat="48.4530467" lon="-4.0647783"><ele>113.57142857142856</ele><time>2026-04-26T08:28:00.675Z</time></trkpt><trkpt lat="48.45303" lon="-4.06467"><ele>113.85714285714285</ele><time>2026-04-26T08:28:01.675Z</time></trkpt><trkpt lat="48.4530083" lon="-4.0645617"><ele>114.14285714285714</ele><time>2026-04-26T08:28:02.673Z</time></trkpt><trkpt lat="48.4529867" lon="-4.0644517"><ele>114.42857142857142</ele><time>2026-04-26T08:28:03.674Z</time></trkpt><trkpt lat="48.4529633" lon="-4.0643483"><ele>114.7142857142857</ele><time>2026-04-26T08:28:04.676Z</time></trkpt><trkpt lat="48.4529317" lon="-4.06425"><ele>114.99999999999999</ele><time>2026-04-26T08:28:05.677Z</time></trkpt><trkpt lat="48.4529" lon="-4.0641567"><ele>115.33333333333334</ele><time>2026-04-26T08:28:06.674Z</time></trkpt><trkpt lat="48.4528633" lon="-4.0640617"><ele>115.66666666666667</ele><time>2026-04-26T08:28:07.676Z</time></trkpt><trkpt lat="48.452825" lon="-4.06397"><ele>116.0</ele><time>2026-04-26T08:28:08.672Z</time></trkpt><trkpt lat="48.4527817" lon="-4.0638833"><ele>116.33333333333334</ele><time>2026-04-26T08:28:09.678Z</time></trkpt><trkpt lat="48.4527333" lon="-4.0637967"><ele>116.66666666666667</ele><time>2026-04-26T08:28:10.678Z</time></trkpt><trkpt lat="48.4526733" lon="-4.0637217"><ele>117.0</ele><time>2026-04-26T08:28:11.679Z</time></trkpt><trkpt lat="48.4526067" lon="-4.0636533"><ele>117.0</ele><time>2026-04-26T08:28:12.679Z</time></trkpt><trkpt lat="48.45253" lon="-4.0635967"><ele>116.99999999999999</ele><time>2026-04-26T08:28:13.675Z</time></trkpt><trkpt lat="48.4524483" lon="-4.0635367"><ele>116.99999999999999</ele><time>2026-04-26T08:28:14.677Z</time></trkpt><trkpt lat="48.4523617" lon="-4.0634767"><ele>117.0</ele><time>2026-04-26T08:28:15.677Z</time></trkpt><trkpt lat="48.45227" lon="-4.0634233"><ele>117.0</ele><time>2026-04-26T08:28:16.676Z</time></trkpt><trkpt lat="48.4521783" lon="-4.063365"><ele>118.5</ele><time>2026-04-26T08:28:17.68Z</time></trkpt><trkpt lat="48.4520783" lon="-4.063305"><ele>120.0</ele><time>2026-04-26T08:28:18.677Z</time></trkpt><trkpt lat="48.451975" lon="-4.0632383"><ele>121.5</ele><time>2026-04-26T08:28:19.675Z</time></trkpt><trkpt lat="48.451865" lon="-4.0631633"><ele>123.0</ele><time>2026-04-26T08:28:20.68Z</time></trkpt><trkpt lat="48.4517483" lon="-4.0630767"><ele>124.0</ele><time>2026-04-26T08:28:21.677Z</time></trkpt><trkpt lat="48.4516183" lon="-4.0629667"><ele>125.0</ele><time>2026-04-26T08:28:22.677Z</time></trkpt><trkpt lat="48.4514867" lon="-4.062835"><ele>126.0</ele><time>2026-04-26T08:28:23.679Z</time></trkpt><trkpt lat="48.4513567" lon="-4.0626967"><ele>125.66666666666666</ele><time>2026-04-26T08:28:24.679Z</time></trkpt><trkpt lat="48.4512283" lon="-4.0625483"><ele>125.33333333333333</ele><time>2026-04-26T08:28:25.677Z</time></trkpt><trkpt lat="48.4511017" lon="-4.062395"><ele>125.0</ele><time>2026-04-26T08:28:26.685Z</time></trkpt><trkpt lat="48.4509767" lon="-4.0622417"><ele>124.66666666666666</ele><time>2026-04-26T08:28:27.678Z</time></trkpt><trkpt lat="48.45085" lon="-4.0620883"><ele>124.33333333333334</ele><time>2026-04-26T08:28:28.676Z</time></trkpt><trkpt lat="48.4507267" lon="-4.0619367"><ele>124.0</ele><time>2026-04-26T08:28:29.676Z</time></trkpt><trkpt lat="48.4506017" lon="-4.0617883"><ele>124.0</ele><time>2026-04-26T08:28:30.676Z</time></trkpt><trkpt lat="48.45048" lon="-4.06164"><ele>124.0</ele><time>2026-04-26T08:28:31.676Z</time></trkpt><trkpt lat="48.4503617" lon="-4.0614867"><ele>124.0</ele><time>2026-04-26T08:28:32.676Z</time></trkpt><trkpt lat="48.4502383" lon="-4.06133"><ele>126.0</ele><time>2026-04-26T08:28:33.674Z</time></trkpt><trkpt lat="48.4501017" lon="-4.0611633"><ele>128.0</ele><time>2026-04-26T08:28:34.673Z</time></trkpt><trkpt lat="48.44995" lon="-4.0609783"><ele>130.0</ele><time>2026-04-26T08:28:35.675Z</time></trkpt><trkpt lat="48.449795" lon="-4.06079"><ele>129.66666666666669</ele><time>2026-04-26T08:28:36.674Z</time></trkpt><trkpt lat="48.4496433" lon="-4.0606067"><ele>129.33333333333334</ele><time>2026-04-26T08:28:37.675Z</time></trkpt><trkpt lat="48.4494933" lon="-4.0604233"><ele>129.0</ele><time>2026-04-26T08:28:38.678Z</time></trkpt><trkpt lat="48.4493467" lon="-4.0602467"><ele>132.0</ele><time>2026-04-26T08:28:39.683Z</time></trkpt><trkpt lat="48.4492017" lon="-4.0600717"><ele>135.0</ele><time>2026-04-26T08:28:40.677Z</time></trkpt><trkpt lat="48.4490617" lon="-4.0598983"><ele>138.0</ele><time>2026-04-26T08:28:41.676Z</time></trkpt><trkpt lat="48.4489233" lon="-4.0597267"><ele>140.66666666666666</ele><time>2026-04-26T08:28:42.676Z</time></trkpt><trkpt lat="48.4487917" lon="-4.05955"><ele>143.33333333333331</ele><time>2026-04-26T08:28:43.675Z</time></trkpt><trkpt lat="48.448665" lon="-4.059365"><ele>146.0</ele><time>2026-04-26T08:28:44.675Z</time></trkpt><trkpt lat="48.4485483" lon="-4.0591667"><ele>145.33333333333331</ele><time>2026-04-26T08:28:45.675Z</time></trkpt><trkpt lat="48.4484383" lon="-4.0589583"><ele>144.66666666666666</ele><time>2026-04-26T08:28:46.676Z</time></trkpt><trkpt lat="48.4483367" lon="-4.0587383"><ele>144.0</ele><time>2026-04-26T08:28:47.675Z</time></trkpt><trkpt lat="48.448245" lon="-4.0585083"><ele>144.0</ele><time>2026-04-26T08:28:48.68Z</time></trkpt><trkpt lat="48.4481583" lon="-4.05827"><ele>144.0</ele><time>2026-04-26T08:28:49.674Z</time></trkpt><trkpt lat="48.448075" lon="-4.058025"><ele>144.0</ele><time>2026-04-26T08:28:50.673Z</time></trkpt><trkpt lat="48.4479983" lon="-4.0577767"><ele>147.66666666666666</ele><time>2026-04-26T08:28:51.676Z</time></trkpt><trkpt lat="48.44793" lon="-4.0575217"><ele>151.33333333333331</ele><time>2026-04-26T08:28:52.672Z</time></trkpt><trkpt lat="48.4478633" lon="-4.057255"><ele>155.0</ele><time>2026-04-26T08:28:53.682Z</time></trkpt><trkpt lat="48.4478" lon="-4.0569883"><ele>155.0</ele><time>2026-04-26T08:28:54.677Z</time></trkpt><trkpt lat="48.4477333" lon="-4.0567183"><ele>155.0</ele><time>2026-04-26T08:28:55.674Z</time></trkpt><trkpt lat="48.4476667" lon="-4.05645"><ele>155.0</ele><time>2026-04-26T08:28:56.675Z</time></trkpt><trkpt lat="48.4476" lon="-4.05618"><ele>154.66666666666666</ele><time>2026-04-26T08:28:57.675Z</time></trkpt><trkpt lat="48.4475367" lon="-4.0559067"><ele>154.33333333333334</ele><time>2026-04-26T08:28:58.677Z</time></trkpt><trkpt lat="48.4474783" lon="-4.0556333"><ele>154.0</ele><time>2026-04-26T08:28:59.675Z</time></trkpt><trkpt lat="48.4474267" lon="-4.055365"><ele>154.0</ele><time>2026-04-26T08:29:00.676Z</time></trkpt><trkpt lat="48.4473883" lon="-4.0551017"><ele>154.0</ele><time>2026-04-26T08:29:01.678Z</time></trkpt><trkpt lat="48.4473617" lon="-4.0548367"><ele>154.0</ele><time>2026-04-26T08:29:02.677Z</time></trkpt><trkpt lat="48.4473517" lon="-4.0545683"><ele>154.0</ele><time>2026-04-26T08:29:03.678Z</time></trkpt><trkpt lat="48.447355" lon="-4.0542983"><ele>154.0</ele><time>2026-04-26T08:29:04.676Z</time></trkpt><trkpt lat="48.44737" lon="-4.0540233"><ele>154.0</ele><time>2026-04-26T08:29:05.676Z</time></trkpt><trkpt lat="48.4473917" lon="-4.0537467"><ele>154.0</ele><time>2026-04-26T08:29:06.681Z</time></trkpt><trkpt lat="48.4474183" lon="-4.05347"><ele>154.0</ele><time>2026-04-26T08:29:07.677Z</time></trkpt><trkpt lat="48.447445" lon="-4.05319"><ele>154.0</ele><time>2026-04-26T08:29:08.676Z</time></trkpt><trkpt lat="48.447475" lon="-4.0529117"><ele>154.66666666666669</ele><time>2026-04-26T08:29:09.678Z</time></trkpt><trkpt lat="48.4475133" lon="-4.0526367"><ele>155.33333333333334</ele><time>2026-04-26T08:29:10.677Z</time></trkpt><trkpt lat="48.4475633" lon="-4.0523633"><ele>156.0</ele><time>2026-04-26T08:29:11.678Z</time></trkpt><trkpt lat="48.4476167" lon="-4.0520917"><ele>156.66666666666666</ele><time>2026-04-26T08:29:12.676Z</time></trkpt><trkpt lat="48.4476733" lon="-4.0518217"><ele>157.33333333333331</ele><time>2026-04-26T08:29:13.676Z</time></trkpt><trkpt lat="48.4477283" lon="-4.05155"><ele>158.0</ele><time>2026-04-26T08:29:14.679Z</time></trkpt><trkpt lat="48.4477833" lon="-4.0512817"><ele>159.33333333333331</ele><time>2026-04-26T08:29:15.678Z</time></trkpt><trkpt lat="48.44784" lon="-4.051015"><ele>160.66666666666666</ele><time>2026-04-26T08:29:16.679Z</time></trkpt><trkpt lat="48.447895" lon="-4.0507483"><ele>162.0</ele><time>2026-04-26T08:29:17.675Z</time></trkpt><trkpt lat="48.4479483" lon="-4.05048"><ele>159.66666666666666</ele><time>2026-04-26T08:29:18.679Z</time></trkpt><trkpt lat="48.4479983" lon="-4.050205"><ele>157.33333333333331</ele><time>2026-04-26T08:29:19.674Z</time></trkpt><trkpt lat="48.4480433" lon="-4.0499233"><ele>155.0</ele><time>2026-04-26T08:29:20.675Z</time></trkpt><trkpt lat="48.4480867" lon="-4.0496383"><ele>155.0</ele><time>2026-04-26T08:29:21.675Z</time></trkpt><trkpt lat="48.4481267" lon="-4.0493533"><ele>155.0</ele><time>2026-04-26T08:29:22.675Z</time></trkpt><trkpt lat="48.4481667" lon="-4.0490733"><ele>155.0</ele><time>2026-04-26T08:29:23.683Z</time></trkpt><trkpt lat="48.44821" lon="-4.0488033"><ele>155.0</ele><time>2026-04-26T08:29:24.678Z</time></trkpt><trkpt lat="48.4482467" lon="-4.0485467"><ele>155.0</ele><time>2026-04-26T08:29:25.677Z</time></trkpt><trkpt lat="48.4482717" lon="-4.0483"><ele>155.0</ele><time>2026-04-26T08:29:26.679Z</time></trkpt><trkpt lat="48.44827" lon="-4.0480633"><ele>155.0</ele><time>2026-04-26T08:29:27.677Z</time></trkpt><trkpt lat="48.448245" lon="-4.0478317"><ele>155.0</ele><time>2026-04-26T08:29:28.678Z</time></trkpt><trkpt lat="48.4481983" lon="-4.0476117"><ele>155.0</ele><time>2026-04-26T08:29:29.677Z</time></trkpt><trkpt lat="48.448125" lon="-4.0473967"><ele>156.0</ele><time>2026-04-26T08:29:30.676Z</time></trkpt><trkpt lat="48.4480283" lon="-4.0471767"><ele>157.0</ele><time>2026-04-26T08:29:31.678Z</time></trkpt><trkpt lat="48.4479233" lon="-4.04696"><ele>158.0</ele><time>2026-04-26T08:29:32.679Z</time></trkpt><trkpt lat="48.4478183" lon="-4.046745"><ele>160.66666666666666</ele><time>2026-04-26T08:29:33.674Z</time></trkpt><trkpt lat="48.4477183" lon="-4.0465317"><ele>163.33333333333334</ele><time>2026-04-26T08:29:34.673Z</time></trkpt><trkpt lat="48.4476267" lon="-4.046315"><ele>166.0</ele><time>2026-04-26T08:29:35.681Z</time></trkpt><trkpt lat="48.4475417" lon="-4.04609"><ele>166.0</ele><time>2026-04-26T08:29:36.677Z</time></trkpt><trkpt lat="48.447465" lon="-4.0458667"><ele>166.0</ele><time>2026-04-26T08:29:37.683Z</time></trkpt><trkpt lat="48.4474067" lon="-4.04565"><ele>166.0</ele><time>2026-04-26T08:29:38.677Z</time></trkpt><trkpt lat="48.447375" lon="-4.0454383"><ele>166.66666666666669</ele><time>2026-04-26T08:29:39.673Z</time></trkpt><trkpt lat="48.44737" lon="-4.0452233"><ele>167.33333333333334</ele><time>2026-04-26T08:29:40.676Z</time></trkpt><trkpt lat="48.4473933" lon="-4.0449983"><ele>168.0</ele><time>2026-04-26T08:29:41.675Z</time></trkpt><trkpt lat="48.4474367" lon="-4.04476"><ele>168.66666666666666</ele><time>2026-04-26T08:29:42.681Z</time></trkpt><trkpt lat="48.4474917" lon="-4.04451"><ele>169.33333333333331</ele><time>2026-04-26T08:29:43.676Z</time></trkpt><trkpt lat="48.4475517" lon="-4.0442567"><ele>170.0</ele><time>2026-04-26T08:29:44.679Z</time></trkpt><trkpt lat="48.4476117" lon="-4.04401"><ele>170.66666666666666</ele><time>2026-04-26T08:29:45.674Z</time></trkpt><trkpt lat="48.4476733" lon="-4.0437683"><ele>171.33333333333334</ele><time>2026-04-26T08:29:46.673Z</time></trkpt><trkpt lat="48.4477333" lon="-4.043525"><ele>172.0</ele><time>2026-04-26T08:29:47.678Z</time></trkpt><trkpt lat="48.4477917" lon="-4.04328"><ele>172.33333333333334</ele><time>2026-04-26T08:29:48.676Z</time></trkpt><trkpt lat="48.4478467" lon="-4.0430383"><ele>172.66666666666666</ele><time>2026-04-26T08:29:49.677Z</time></trkpt><trkpt lat="48.4479" lon="-4.04281"><ele>173.0</ele><time>2026-04-26T08:29:50.675Z</time></trkpt><trkpt lat="48.44795" lon="-4.042595"><ele>172.5</ele><time>2026-04-26T08:29:51.677Z</time></trkpt><trkpt lat="48.4479967" lon="-4.0423917"><ele>172.0</ele><time>2026-04-26T08:29:52.678Z</time></trkpt><trkpt lat="48.4480417" lon="-4.0422017"><ele>171.5</ele><time>2026-04-26T08:29:53.677Z</time></trkpt><trkpt lat="48.4480867" lon="-4.0420217"><ele>171.0</ele><time>2026-04-26T08:29:54.673Z</time></trkpt><trkpt lat="48.4481267" lon="-4.041855"><ele>171.0</ele><time>2026-04-26T08:29:55.679Z</time></trkpt><trkpt lat="48.4481667" lon="-4.0416917"><ele>171.0</ele><time>2026-04-26T08:29:56.675Z</time></trkpt><trkpt lat="48.4482083" lon="-4.0415283"><ele>171.0</ele><time>2026-04-26T08:29:57.673Z</time></trkpt><trkpt lat="48.4482483" lon="-4.0413633"><ele>171.0</ele><time>2026-04-26T08:29:58.674Z</time></trkpt><trkpt lat="48.44828" lon="-4.0411933"><ele>171.0</ele><time>2026-04-26T08:29:59.674Z</time></trkpt><trkpt lat="48.4483" lon="-4.041015"><ele>171.0</ele><time>2026-04-26T08:30:00.68Z</time></trkpt><trkpt lat="48.4483083" lon="-4.0408267"><ele>171.0</ele><time>2026-04-26T08:30:01.675Z</time></trkpt><trkpt lat="48.448305" lon="-4.040635"><ele>171.0</ele><time>2026-04-26T08:30:02.674Z</time></trkpt><trkpt lat="48.44829" lon="-4.0404467"><ele>171.0</ele><time>2026-04-26T08:30:03.676Z</time></trkpt><trkpt lat="48.44826" lon="-4.0402617"><ele>171.0</ele><time>2026-04-26T08:30:04.675Z</time></trkpt><trkpt lat="48.4482167" lon="-4.0400817"><ele>171.0</ele><time>2026-04-26T08:30:05.675Z</time></trkpt><trkpt lat="48.4481667" lon="-4.0399017"><ele>171.0</ele><time>2026-04-26T08:30:06.676Z</time></trkpt><trkpt lat="48.4481117" lon="-4.0397233"><ele>171.5</ele><time>2026-04-26T08:30:07.673Z</time></trkpt><trkpt lat="48.44805" lon="-4.039545"><ele>172.0</ele><time>2026-04-26T08:30:08.677Z</time></trkpt><trkpt lat="48.4479867" lon="-4.0393683"><ele>172.5</ele><time>2026-04-26T08:30:09.683Z</time></trkpt><trkpt lat="48.447925" lon="-4.039195"><ele>173.0</ele><time>2026-04-26T08:30:10.673Z</time></trkpt><trkpt lat="48.447865" lon="-4.0390233"><ele>174.0</ele><time>2026-04-26T08:30:11.677Z</time></trkpt><trkpt lat="48.4477983" lon="-4.0388583"><ele>175.0</ele><time>2026-04-26T08:30:12.681Z</time></trkpt><trkpt lat="48.4477167" lon="-4.038705"><ele>176.0</ele><time>2026-04-26T08:30:13.675Z</time></trkpt><trkpt lat="48.4476233" lon="-4.0385683"><ele>177.0</ele><time>2026-04-26T08:30:14.675Z</time></trkpt><trkpt lat="48.44752" lon="-4.03845"><ele>177.0</ele><time>2026-04-26T08:30:15.677Z</time></trkpt><trkpt lat="48.4474017" lon="-4.038345"><ele>177.0</ele><time>2026-04-26T08:30:16.678Z</time></trkpt><trkpt lat="48.4472767" lon="-4.03826"><ele>177.0</ele><time>2026-04-26T08:30:17.67Z</time></trkpt><trkpt lat="48.44714" lon="-4.038205"><ele>177.0</ele><time>2026-04-26T08:30:18.677Z</time></trkpt><trkpt lat="48.4469933" lon="-4.0381767"><ele>177.0</ele><time>2026-04-26T08:30:19.674Z</time></trkpt><trkpt lat="48.44684" lon="-4.0381683"><ele>177.0</ele><time>2026-04-26T08:30:20.677Z</time></trkpt><trkpt lat="48.4466833" lon="-4.03817"><ele>177.0</ele><time>2026-04-26T08:30:21.681Z</time></trkpt><trkpt lat="48.4465183" lon="-4.0381717"><ele>177.0</ele><time>2026-04-26T08:30:22.678Z</time></trkpt><trkpt lat="48.4463533" lon="-4.0381667"><ele>177.0</ele><time>2026-04-26T08:30:23.68Z</time></trkpt><trkpt lat="48.4461883" lon="-4.0381467"><ele>177.0</ele><time>2026-04-26T08:30:24.676Z</time></trkpt><trkpt lat="48.4460233" lon="-4.0381083"><ele>177.66666666666666</ele><time>2026-04-26T08:30:25.673Z</time></trkpt><trkpt lat="48.4458567" lon="-4.0380533"><ele>178.33333333333331</ele><time>2026-04-26T08:30:26.676Z</time></trkpt><trkpt lat="48.4456883" lon="-4.0379883"><ele>179.0</ele><time>2026-04-26T08:30:27.674Z</time></trkpt><trkpt lat="48.4455183" lon="-4.03792"><ele>180.0</ele><time>2026-04-26T08:30:28.674Z</time></trkpt><trkpt lat="48.445345" lon="-4.0378517"><ele>181.0</ele><time>2026-04-26T08:30:29.674Z</time></trkpt><trkpt lat="48.44517" lon="-4.0377833"><ele>182.0</ele><time>2026-04-26T08:30:30.677Z</time></trkpt><trkpt lat="48.444995" lon="-4.0377117"><ele>182.0</ele><time>2026-04-26T08:30:31.674Z</time></trkpt><trkpt lat="48.4448267" lon="-4.0376417"><ele>182.0</ele><time>2026-04-26T08:30:32.676Z</time></trkpt><trkpt lat="48.444665" lon="-4.0375733"><ele>182.0</ele><time>2026-04-26T08:30:33.674Z</time></trkpt><trkpt lat="48.444505" lon="-4.037505"><ele>181.0</ele><time>2026-04-26T08:30:34.674Z</time></trkpt><trkpt lat="48.44435" lon="-4.03744"><ele>180.0</ele><time>2026-04-26T08:30:35.672Z</time></trkpt><trkpt lat="48.4441983" lon="-4.0373767"><ele>179.0</ele><time>2026-04-26T08:30:36.675Z</time></trkpt><trkpt lat="48.4440483" lon="-4.0373233"><ele>179.0</ele><time>2026-04-26T08:30:37.673Z</time></trkpt><trkpt lat="48.4438983" lon="-4.0372733"><ele>179.0</ele><time>2026-04-26T08:30:38.684Z</time></trkpt><trkpt lat="48.44375" lon="-4.03723"><ele>179.0</ele><time>2026-04-26T08:30:39.68Z</time></trkpt><trkpt lat="48.4435967" lon="-4.0371883"><ele>179.33333333333331</ele><time>2026-04-26T08:30:40.681Z</time></trkpt><trkpt lat="48.44344" lon="-4.037145"><ele>179.66666666666666</ele><time>2026-04-26T08:30:41.679Z</time></trkpt><trkpt lat="48.4432783" lon="-4.0371033"><ele>180.0</ele><time>2026-04-26T08:30:42.68Z</time></trkpt><trkpt lat="48.4431217" lon="-4.0370633"><ele>180.0</ele><time>2026-04-26T08:30:43.679Z</time></trkpt><trkpt lat="48.44297" lon="-4.0370233"><ele>180.0</ele><time>2026-04-26T08:30:44.679Z</time></trkpt><trkpt lat="48.4428183" lon="-4.0369867"><ele>180.0</ele><time>2026-04-26T08:30:45.679Z</time></trkpt><trkpt lat="48.4426733" lon="-4.0369533"><ele>180.0</ele><time>2026-04-26T08:30:46.681Z</time></trkpt><trkpt lat="48.4425333" lon="-4.03692"><ele>180.0</ele><time>2026-04-26T08:30:47.68Z</time></trkpt><trkpt lat="48.4424017" lon="-4.0368883"><ele>180.0</ele><time>2026-04-26T08:30:48.677Z</time></trkpt><trkpt lat="48.4422783" lon="-4.0368567"><ele>180.0</ele><time>2026-04-26T08:30:49.678Z</time></trkpt><trkpt lat="48.4421567" lon="-4.0368183"><ele>180.25</ele><time>2026-04-26T08:30:50.675Z</time></trkpt><trkpt lat="48.4420467" lon="-4.0367667"><ele>180.5</ele><time>2026-04-26T08:30:51.675Z</time></trkpt><trkpt lat="48.4419367" lon="-4.0366983"><ele>180.75</ele><time>2026-04-26T08:30:52.678Z</time></trkpt><trkpt lat="48.4418233" lon="-4.0366117"><ele>181.0</ele><time>2026-04-26T08:30:53.678Z</time></trkpt><trkpt lat="48.441715" lon="-4.0364983"><ele>179.5</ele><time>2026-04-26T08:30:54.68Z</time></trkpt><trkpt lat="48.44161" lon="-4.0363567"><ele>178.0</ele><time>2026-04-26T08:30:55.685Z</time></trkpt><trkpt lat="48.4415017" lon="-4.0362083"><ele>176.5</ele><time>2026-04-26T08:30:56.683Z</time></trkpt><trkpt lat="48.44139" lon="-4.0360517"><ele>175.0</ele><time>2026-04-26T08:30:57.677Z</time></trkpt><trkpt lat="48.4412817" lon="-4.0358917"><ele>173.33333333333334</ele><time>2026-04-26T08:30:58.677Z</time></trkpt><trkpt lat="48.4411717" lon="-4.03573"><ele>171.66666666666666</ele><time>2026-04-26T08:30:59.676Z</time></trkpt><trkpt lat="48.4410633" lon="-4.0355733"><ele>170.0</ele><time>2026-04-26T08:31:00.676Z</time></trkpt><trkpt lat="48.4409533" lon="-4.0354217"><ele>170.0</ele><time>2026-04-26T08:31:01.68Z</time></trkpt><trkpt lat="48.4408483" lon="-4.0352683"><ele>170.0</ele><time>2026-04-26T08:31:02.682Z</time></trkpt><trkpt lat="48.4407417" lon="-4.0351133"><ele>170.0</ele><time>2026-04-26T08:31:03.677Z</time></trkpt><trkpt lat="48.44063" lon="-4.0349633"><ele>170.0</ele><time>2026-04-26T08:31:04.672Z</time></trkpt><trkpt lat="48.4405167" lon="-4.0348083"><ele>169.0</ele><time>2026-04-26T08:31:05.684Z</time></trkpt><trkpt lat="48.4403983" lon="-4.0346483"><ele>168.0</ele><time>2026-04-26T08:31:06.679Z</time></trkpt><trkpt lat="48.44028" lon="-4.034475"><ele>167.0</ele><time>2026-04-26T08:31:07.676Z</time></trkpt><trkpt lat="48.4401683" lon="-4.0342983"><ele>165.66666666666666</ele><time>2026-04-26T08:31:08.68Z</time></trkpt><trkpt lat="48.4400567" lon="-4.0341217"><ele>164.33333333333334</ele><time>2026-04-26T08:31:09.674Z</time></trkpt><trkpt lat="48.4399467" lon="-4.0339483"><ele>163.0</ele><time>2026-04-26T08:31:10.683Z</time></trkpt><trkpt lat="48.4398317" lon="-4.0337717"><ele>163.0</ele><time>2026-04-26T08:31:11.678Z</time></trkpt><trkpt lat="48.4397167" lon="-4.0335883"><ele>163.0</ele><time>2026-04-26T08:31:12.675Z</time></trkpt><trkpt lat="48.4396" lon="-4.0334"><ele>163.0</ele><time>2026-04-26T08:31:13.681Z</time></trkpt><trkpt lat="48.4394833" lon="-4.0332133"><ele>162.66666666666669</ele><time>2026-04-26T08:31:14.676Z</time></trkpt><trkpt lat="48.439365" lon="-4.0330283"><ele>162.33333333333334</ele><time>2026-04-26T08:31:15.683Z</time></trkpt><trkpt lat="48.43925" lon="-4.0328433"><ele>162.0</ele><time>2026-04-26T08:31:16.673Z</time></trkpt><trkpt lat="48.4391333" lon="-4.0326667"><ele>162.0</ele><time>2026-04-26T08:31:17.677Z</time></trkpt><trkpt lat="48.4390167" lon="-4.03249"><ele>162.0</ele><time>2026-04-26T08:31:18.676Z</time></trkpt><trkpt lat="48.438895" lon="-4.032315"><ele>162.0</ele><time>2026-04-26T08:31:19.676Z</time></trkpt><trkpt lat="48.4387733" lon="-4.0321417"><ele>160.66666666666666</ele><time>2026-04-26T08:31:20.677Z</time></trkpt><trkpt lat="48.4386467" lon="-4.03198"><ele>159.33333333333331</ele><time>2026-04-26T08:31:21.679Z</time></trkpt><trkpt lat="48.43851" lon="-4.0318417"><ele>158.0</ele><time>2026-04-26T08:31:22.676Z</time></trkpt><trkpt lat="48.43836" lon="-4.0317367"><ele>158.0</ele><time>2026-04-26T08:31:23.679Z</time></trkpt><trkpt lat="48.4381983" lon="-4.03166"><ele>158.0</ele><time>2026-04-26T08:31:24.681Z</time></trkpt><trkpt lat="48.438025" lon="-4.031615"><ele>158.0</ele><time>2026-04-26T08:31:25.678Z</time></trkpt><trkpt lat="48.43784" lon="-4.0315883"><ele>157.33333333333331</ele><time>2026-04-26T08:31:26.683Z</time></trkpt><trkpt lat="48.4376483" lon="-4.0315717"><ele>156.66666666666666</ele><time>2026-04-26T08:31:27.679Z</time></trkpt><trkpt lat="48.4374517" lon="-4.03156"><ele>156.0</ele><time>2026-04-26T08:31:28.675Z</time></trkpt><trkpt lat="48.4372633" lon="-4.03154"><ele>157.33333333333334</ele><time>2026-04-26T08:31:29.681Z</time></trkpt><trkpt lat="48.43708" lon="-4.031495"><ele>158.66666666666669</ele><time>2026-04-26T08:31:30.678Z</time></trkpt><trkpt lat="48.4369017" lon="-4.0314"><ele>160.0</ele><time>2026-04-26T08:31:31.68Z</time></trkpt><trkpt lat="48.436735" lon="-4.0312483"><ele>160.0</ele><time>2026-04-26T08:31:32.676Z</time></trkpt><trkpt lat="48.4365783" lon="-4.03106"><ele>160.0</ele><time>2026-04-26T08:31:33.675Z</time></trkpt><trkpt lat="48.4364333" lon="-4.0308567"><ele>160.0</ele><time>2026-04-26T08:31:34.674Z</time></trkpt><trkpt lat="48.4362917" lon="-4.0306533"><ele>161.0</ele><time>2026-04-26T08:31:35.679Z</time></trkpt><trkpt lat="48.4361533" lon="-4.030455"><ele>162.0</ele><time>2026-04-26T08:31:36.68Z</time></trkpt><trkpt lat="48.436015" lon="-4.030265"><ele>163.0</ele><time>2026-04-26T08:31:37.675Z</time></trkpt><trkpt lat="48.4358783" lon="-4.0300767"><ele>163.33333333333334</ele><time>2026-04-26T08:31:38.684Z</time></trkpt><trkpt lat="48.435745" lon="-4.0298883"><ele>163.66666666666666</ele><time>2026-04-26T08:31:39.682Z</time></trkpt><trkpt lat="48.435615" lon="-4.029705"><ele>164.0</ele><time>2026-04-26T08:31:40.676Z</time></trkpt><trkpt lat="48.4354933" lon="-4.0295283"><ele>163.66666666666666</ele><time>2026-04-26T08:31:41.676Z</time></trkpt><trkpt lat="48.4353667" lon="-4.0293633"><ele>163.33333333333334</ele><time>2026-04-26T08:31:42.679Z</time></trkpt><trkpt lat="48.4352333" lon="-4.0292133"><ele>163.0</ele><time>2026-04-26T08:31:43.676Z</time></trkpt><trkpt lat="48.435095" lon="-4.0290983"><ele>162.33333333333334</ele><time>2026-04-26T08:31:44.684Z</time></trkpt><trkpt lat="48.4349417" lon="-4.0290083"><ele>161.66666666666666</ele><time>2026-04-26T08:31:45.68Z</time></trkpt><trkpt lat="48.4347733" lon="-4.0289217"><ele>161.0</ele><time>2026-04-26T08:31:46.679Z</time></trkpt><trkpt lat="48.4345917" lon="-4.0288267"><ele>160.33333333333331</ele><time>2026-04-26T08:31:47.679Z</time></trkpt><trkpt lat="48.4344083" lon="-4.0287333"><ele>159.66666666666666</ele><time>2026-04-26T08:31:48.677Z</time></trkpt><trkpt lat="48.4342217" lon="-4.028645"><ele>159.0</ele><time>2026-04-26T08:31:49.681Z</time></trkpt><trkpt lat="48.4340383" lon="-4.0285533"><ele>159.0</ele><time>2026-04-26T08:31:50.678Z</time></trkpt><trkpt lat="48.43386" lon="-4.0284617"><ele>159.0</ele><time>2026-04-26T08:31:51.674Z</time></trkpt><trkpt lat="48.4336883" lon="-4.0283733"><ele>159.0</ele><time>2026-04-26T08:31:52.676Z</time></trkpt><trkpt lat="48.4335183" lon="-4.0282833"><ele>157.66666666666666</ele><time>2026-04-26T08:31:53.675Z</time></trkpt><trkpt lat="48.4333467" lon="-4.0281867"><ele>156.33333333333331</ele><time>2026-04-26T08:31:54.678Z</time></trkpt><trkpt lat="48.4331767" lon="-4.0280667"><ele>155.0</ele><time>2026-04-26T08:31:55.679Z</time></trkpt><trkpt lat="48.433015" lon="-4.02793"><ele>154.66666666666666</ele><time>2026-04-26T08:31:56.679Z</time></trkpt><trkpt lat="48.4328567" lon="-4.02778"><ele>154.33333333333334</ele><time>2026-04-26T08:31:57.677Z</time></trkpt><trkpt lat="48.4327" lon="-4.0276283"><ele>154.0</ele><time>2026-04-26T08:31:58.674Z</time></trkpt><trkpt lat="48.4325483" lon="-4.0274767"><ele>154.33333333333334</ele><time>2026-04-26T08:31:59.681Z</time></trkpt><trkpt lat="48.4324" lon="-4.02734"><ele>154.66666666666666</ele><time>2026-04-26T08:32:00.678Z</time></trkpt><trkpt lat="48.4322617" lon="-4.0272367"><ele>155.0</ele><time>2026-04-26T08:32:01.679Z</time></trkpt><trkpt lat="48.4321183" lon="-4.027195"><ele>155.0</ele><time>2026-04-26T08:32:02.678Z</time></trkpt><trkpt lat="48.4319417" lon="-4.0271933"><ele>155.0</ele><time>2026-04-26T08:32:03.681Z</time></trkpt><trkpt lat="48.4317483" lon="-4.02718"><ele>155.0</ele><time>2026-04-26T08:32:04.677Z</time></trkpt><trkpt lat="48.4315667" lon="-4.0271483"><ele>155.0</ele><time>2026-04-26T08:32:05.677Z</time></trkpt><trkpt lat="48.43139" lon="-4.027085"><ele>155.0</ele><time>2026-04-26T08:32:06.679Z</time></trkpt><trkpt lat="48.4312233" lon="-4.027005"><ele>155.0</ele><time>2026-04-26T08:32:07.675Z</time></trkpt><trkpt lat="48.4310633" lon="-4.02692"><ele>157.0</ele><time>2026-04-26T08:32:08.677Z</time></trkpt><trkpt lat="48.4309183" lon="-4.0268133"><ele>159.0</ele><time>2026-04-26T08:32:09.674Z</time></trkpt><trkpt lat="48.4307833" lon="-4.02667"><ele>161.0</ele><time>2026-04-26T08:32:10.675Z</time></trkpt><trkpt lat="48.430665" lon="-4.0264883"><ele>161.0</ele><time>2026-04-26T08:32:11.678Z</time></trkpt><trkpt lat="48.430555" lon="-4.026295"><ele>161.0</ele><time>2026-04-26T08:32:12.678Z</time></trkpt><trkpt lat="48.4304283" lon="-4.0261133"><ele>161.0</ele><time>2026-04-26T08:32:13.681Z</time></trkpt><trkpt lat="48.4302833" lon="-4.0259367"><ele>161.66666666666666</ele><time>2026-04-26T08:32:14.683Z</time></trkpt><trkpt lat="48.4301283" lon="-4.0257683"><ele>162.33333333333334</ele><time>2026-04-26T08:32:15.679Z</time></trkpt><trkpt lat="48.429975" lon="-4.0256"><ele>163.0</ele><time>2026-04-26T08:32:16.68Z</time></trkpt><trkpt lat="48.4298383" lon="-4.0254283"><ele>163.0</ele><time>2026-04-26T08:32:17.677Z</time></trkpt><trkpt lat="48.4297167" lon="-4.02523"><ele>163.0</ele><time>2026-04-26T08:32:18.675Z</time></trkpt><trkpt lat="48.4296083" lon="-4.025005"><ele>163.0</ele><time>2026-04-26T08:32:19.678Z</time></trkpt><trkpt lat="48.4295117" lon="-4.0247733"><ele>163.33333333333334</ele><time>2026-04-26T08:32:20.679Z</time></trkpt><trkpt lat="48.429415" lon="-4.0245433"><ele>163.66666666666666</ele><time>2026-04-26T08:32:21.681Z</time></trkpt><trkpt lat="48.4293183" lon="-4.0243333"><ele>164.0</ele><time>2026-04-26T08:32:22.677Z</time></trkpt><trkpt lat="48.4291983" lon="-4.0241733"><ele>163.33333333333331</ele><time>2026-04-26T08:32:23.682Z</time></trkpt><trkpt lat="48.4290533" lon="-4.0240583"><ele>162.66666666666666</ele><time>2026-04-26T08:32:24.676Z</time></trkpt><trkpt lat="48.4288833" lon="-4.0239783"><ele>162.0</ele><time>2026-04-26T08:32:25.68Z</time></trkpt><trkpt lat="48.4287133" lon="-4.0239067"><ele>163.33333333333334</ele><time>2026-04-26T08:32:26.679Z</time></trkpt><trkpt lat="48.4285567" lon="-4.0238217"><ele>164.66666666666669</ele><time>2026-04-26T08:32:27.676Z</time></trkpt><trkpt lat="48.42841" lon="-4.0237083"><ele>166.0</ele><time>2026-04-26T08:32:28.677Z</time></trkpt><trkpt lat="48.428275" lon="-4.0235733"><ele>166.0</ele><time>2026-04-26T08:32:29.676Z</time></trkpt><trkpt lat="48.4281583" lon="-4.0234267"><ele>166.0</ele><time>2026-04-26T08:32:30.676Z</time></trkpt><trkpt lat="48.4280583" lon="-4.0232767"><ele>166.0</ele><time>2026-04-26T08:32:31.676Z</time></trkpt><trkpt lat="48.427975" lon="-4.023135"><ele>166.0</ele><time>2026-04-26T08:32:32.68Z</time></trkpt><trkpt lat="48.4279083" lon="-4.0230133"><ele>166.66666666666669</ele><time>2026-04-26T08:32:33.674Z</time></trkpt><trkpt lat="48.427855" lon="-4.0229217"><ele>167.33333333333334</ele><time>2026-04-26T08:32:34.677Z</time></trkpt><trkpt lat="48.4278" lon="-4.0228533"><ele>168.0</ele><time>2026-04-26T08:32:36.681Z</time></trkpt><trkpt lat="48.4277167" lon="-4.022785"><ele>168.66666666666666</ele><time>2026-04-26T08:32:39.679Z</time></trkpt><trkpt lat="48.427655" lon="-4.0227067"><ele>169.33333333333331</ele><time>2026-04-26T08:32:41.68Z</time></trkpt><trkpt lat="48.4276183" lon="-4.022625"><ele>170.0</ele><time>2026-04-26T08:32:43.68Z</time></trkpt><trkpt lat="48.4275733" lon="-4.0225367"><ele>170.0</ele><time>2026-04-26T08:32:46.682Z</time></trkpt><trkpt lat="48.4275667" lon="-4.0224283"><ele>170.0</ele><time>2026-04-26T08:34:11.673Z</time></trkpt><trkpt lat="48.4275267" lon="-4.0222617"><ele>170.0</ele><time>2026-04-26T08:34:13.674Z</time></trkpt><trkpt lat="48.42749" lon="-4.022155"><ele>170.0</ele><time>2026-04-26T08:34:14.676Z</time></trkpt><trkpt lat="48.4274483" lon="-4.0220417"><ele>170.0</ele><time>2026-04-26T08:34:15.682Z</time></trkpt><trkpt lat="48.4274017" lon="-4.0219267"><ele>170.0</ele><time>2026-04-26T08:34:16.67Z</time></trkpt><trkpt lat="48.427345" lon="-4.021815"><ele>170.0</ele><time>2026-04-26T08:34:17.677Z</time></trkpt><trkpt lat="48.4272867" lon="-4.0217133"><ele>170.0</ele><time>2026-04-26T08:34:18.678Z</time></trkpt><trkpt lat="48.4272267" lon="-4.0216183"><ele>170.0</ele><time>2026-04-26T08:34:19.676Z</time></trkpt><trkpt lat="48.4271733" lon="-4.021525"><ele>170.0</ele><time>2026-04-26T08:34:20.685Z</time></trkpt><trkpt lat="48.4271267" lon="-4.021435"><ele>170.0</ele><time>2026-04-26T08:34:21.676Z</time></trkpt><trkpt lat="48.4270867" lon="-4.021355"><ele>170.0</ele><time>2026-04-26T08:34:22.674Z</time></trkpt><trkpt lat="48.4270233" lon="-4.0212417"><ele>170.6</ele><time>2026-04-26T08:34:24.674Z</time></trkpt><trkpt lat="48.4269517" lon="-4.0212033"><ele>171.2</ele><time>2026-04-26T08:34:30.677Z</time></trkpt><trkpt lat="48.4268217" lon="-4.0212617"><ele>171.8</ele><time>2026-04-26T08:34:32.675Z</time></trkpt><trkpt lat="48.4267367" lon="-4.02128"><ele>172.4</ele><time>2026-04-26T08:34:33.676Z</time></trkpt><trkpt lat="48.4266483" lon="-4.0212883"><ele>173.0</ele><time>2026-04-26T08:34:34.673Z</time></trkpt><trkpt lat="48.4265517" lon="-4.0212917"><ele>173.0</ele><time>2026-04-26T08:34:35.673Z</time></trkpt><trkpt lat="48.4264517" lon="-4.02129"><ele>173.0</ele><time>2026-04-26T08:34:36.675Z</time></trkpt><trkpt lat="48.4263467" lon="-4.0212867"><ele>173.0</ele><time>2026-04-26T08:34:37.676Z</time></trkpt><trkpt lat="48.4262383" lon="-4.0212833"><ele>173.0</ele><time>2026-04-26T08:34:38.676Z</time></trkpt><trkpt lat="48.4261267" lon="-4.0212767"><ele>173.0</ele><time>2026-04-26T08:34:39.679Z</time></trkpt><trkpt lat="48.4260117" lon="-4.0212683"><ele>172.5</ele><time>2026-04-26T08:34:40.675Z</time></trkpt><trkpt lat="48.4258917" lon="-4.021255"><ele>172.0</ele><time>2026-04-26T08:34:41.675Z</time></trkpt><trkpt lat="48.42577" lon="-4.02124"><ele>171.5</ele><time>2026-04-26T08:34:42.676Z</time></trkpt><trkpt lat="48.425645" lon="-4.0212333"><ele>171.0</ele><time>2026-04-26T08:34:43.675Z</time></trkpt><trkpt lat="48.425515" lon="-4.02123"><ele>170.0</ele><time>2026-04-26T08:34:44.688Z</time></trkpt><trkpt lat="48.4253817" lon="-4.021225"><ele>169.0</ele><time>2026-04-26T08:34:45.676Z</time></trkpt><trkpt lat="48.4252433" lon="-4.0212217"><ele>168.0</ele><time>2026-04-26T08:34:46.674Z</time></trkpt><trkpt lat="48.4251033" lon="-4.0212283"><ele>167.0</ele><time>2026-04-26T08:34:47.68Z</time></trkpt><trkpt lat="48.424955" lon="-4.0212517"><ele>167.0</ele><time>2026-04-26T08:34:48.675Z</time></trkpt><trkpt lat="48.4248017" lon="-4.0212917"><ele>167.0</ele><time>2026-04-26T08:34:49.678Z</time></trkpt><trkpt lat="48.42464" lon="-4.02135"><ele>167.0</ele><time>2026-04-26T08:34:50.679Z</time></trkpt><trkpt lat="48.42447" lon="-4.0214233"><ele>167.0</ele><time>2026-04-26T08:34:51.675Z</time></trkpt><trkpt lat="48.424295" lon="-4.0215067"><ele>167.0</ele><time>2026-04-26T08:34:52.68Z</time></trkpt><trkpt lat="48.4241217" lon="-4.0215917"><ele>167.0</ele><time>2026-04-26T08:34:53.676Z</time></trkpt><trkpt lat="48.423955" lon="-4.021675"><ele>166.0</ele><time>2026-04-26T08:34:54.676Z</time></trkpt><trkpt lat="48.42379" lon="-4.0217617"><ele>165.0</ele><time>2026-04-26T08:34:55.681Z</time></trkpt><trkpt lat="48.4236217" lon="-4.021855"><ele>164.0</ele><time>2026-04-26T08:34:56.675Z</time></trkpt><trkpt lat="48.42345" lon="-4.0219583"><ele>164.0</ele><time>2026-04-26T08:34:57.674Z</time></trkpt><trkpt lat="48.4232767" lon="-4.02206"><ele>164.0</ele><time>2026-04-26T08:34:58.674Z</time></trkpt><trkpt lat="48.4231083" lon="-4.0221533"><ele>164.0</ele><time>2026-04-26T08:34:59.681Z</time></trkpt><trkpt lat="48.422945" lon="-4.02224"><ele>163.66666666666666</ele><time>2026-04-26T08:35:00.677Z</time></trkpt><trkpt lat="48.4227883" lon="-4.0223167"><ele>163.33333333333334</ele><time>2026-04-26T08:35:01.677Z</time></trkpt><trkpt lat="48.42264" lon="-4.0223867"><ele>163.0</ele><time>2026-04-26T08:35:02.675Z</time></trkpt><trkpt lat="48.4225083" lon="-4.0224567"><ele>162.60000000000002</ele><time>2026-04-26T08:35:03.677Z</time></trkpt><trkpt lat="48.4223933" lon="-4.022525"><ele>162.20000000000002</ele><time>2026-04-26T08:35:04.679Z</time></trkpt><trkpt lat="48.4222967" lon="-4.0225917"><ele>161.8</ele><time>2026-04-26T08:35:05.678Z</time></trkpt><trkpt lat="48.4222183" lon="-4.0226517"><ele>161.4</ele><time>2026-04-26T08:35:06.678Z</time></trkpt><trkpt lat="48.4221467" lon="-4.0226783"><ele>161.0</ele><time>2026-04-26T08:35:07.675Z</time></trkpt><trkpt lat="48.42208" lon="-4.0226733"><ele>160.83333333333331</ele><time>2026-04-26T08:35:08.676Z</time></trkpt><trkpt lat="48.4220117" lon="-4.0226533"><ele>160.66666666666666</ele><time>2026-04-26T08:35:09.678Z</time></trkpt><trkpt lat="48.421935" lon="-4.0226283"><ele>160.5</ele><time>2026-04-26T08:35:10.676Z</time></trkpt><trkpt lat="48.421845" lon="-4.022595"><ele>160.33333333333334</ele><time>2026-04-26T08:35:11.676Z</time></trkpt><trkpt lat="48.4217483" lon="-4.0225583"><ele>160.16666666666669</ele><time>2026-04-26T08:35:12.681Z</time></trkpt><trkpt lat="48.421645" lon="-4.0225183"><ele>160.0</ele><time>2026-04-26T08:35:13.68Z</time></trkpt><trkpt lat="48.4215317" lon="-4.0224817"><ele>160.0</ele><time>2026-04-26T08:35:14.68Z</time></trkpt><trkpt lat="48.4214083" lon="-4.0224483"><ele>160.0</ele><time>2026-04-26T08:35:15.678Z</time></trkpt><trkpt lat="48.4212767" lon="-4.0224217"><ele>160.0</ele><time>2026-04-26T08:35:16.674Z</time></trkpt><trkpt lat="48.4211417" lon="-4.0224067"><ele>160.0</ele><time>2026-04-26T08:35:17.677Z</time></trkpt><trkpt lat="48.421" lon="-4.0224017"><ele>160.0</ele><time>2026-04-26T08:35:18.679Z</time></trkpt><trkpt lat="48.4208533" lon="-4.0224183"><ele>160.0</ele><time>2026-04-26T08:35:19.676Z</time></trkpt><trkpt lat="48.4207033" lon="-4.022445"><ele>160.0</ele><time>2026-04-26T08:35:20.68Z</time></trkpt><trkpt lat="48.42055" lon="-4.0224783"><ele>158.33333333333334</ele><time>2026-04-26T08:35:21.676Z</time></trkpt><trkpt lat="48.420395" lon="-4.02251"><ele>156.66666666666666</ele><time>2026-04-26T08:35:22.681Z</time></trkpt><trkpt lat="48.4202367" lon="-4.022535"><ele>155.0</ele><time>2026-04-26T08:35:23.675Z</time></trkpt><trkpt lat="48.420075" lon="-4.02256"><ele>155.0</ele><time>2026-04-26T08:35:24.675Z</time></trkpt><trkpt lat="48.4199083" lon="-4.022595"><ele>155.0</ele><time>2026-04-26T08:35:25.675Z</time></trkpt><trkpt lat="48.4197417" lon="-4.02264"><ele>155.0</ele><time>2026-04-26T08:35:26.674Z</time></trkpt><trkpt lat="48.4195783" lon="-4.02269"><ele>154.33333333333331</ele><time>2026-04-26T08:35:27.676Z</time></trkpt><trkpt lat="48.4194183" lon="-4.02274"><ele>153.66666666666666</ele><time>2026-04-26T08:35:28.675Z</time></trkpt><trkpt lat="48.4192583" lon="-4.0227933"><ele>153.0</ele><time>2026-04-26T08:35:29.676Z</time></trkpt><trkpt lat="48.4190967" lon="-4.02285"><ele>153.0</ele><time>2026-04-26T08:35:30.674Z</time></trkpt><trkpt lat="48.418935" lon="-4.0229117"><ele>153.0</ele><time>2026-04-26T08:35:31.676Z</time></trkpt><trkpt lat="48.4187733" lon="-4.022975"><ele>153.0</ele><time>2026-04-26T08:35:32.677Z</time></trkpt><trkpt lat="48.41861" lon="-4.0230267"><ele>151.33333333333334</ele><time>2026-04-26T08:35:33.677Z</time></trkpt><trkpt lat="48.418445" lon="-4.02305"><ele>149.66666666666669</ele><time>2026-04-26T08:35:34.675Z</time></trkpt><trkpt lat="48.4182783" lon="-4.0230483"><ele>148.0</ele><time>2026-04-26T08:35:35.673Z</time></trkpt><trkpt lat="48.4181133" lon="-4.0230267"><ele>146.33333333333334</ele><time>2026-04-26T08:35:36.674Z</time></trkpt><trkpt lat="48.4179533" lon="-4.02299"><ele>144.66666666666666</ele><time>2026-04-26T08:35:37.676Z</time></trkpt><trkpt lat="48.4178017" lon="-4.0229383"><ele>143.0</ele><time>2026-04-26T08:35:38.678Z</time></trkpt><trkpt lat="48.4176567" lon="-4.0228783"><ele>143.0</ele><time>2026-04-26T08:35:39.672Z</time></trkpt><trkpt lat="48.4175217" lon="-4.02281"><ele>143.0</ele><time>2026-04-26T08:35:40.675Z</time></trkpt><trkpt lat="48.4173917" lon="-4.0227317"><ele>143.0</ele><time>2026-04-26T08:35:41.676Z</time></trkpt><trkpt lat="48.417265" lon="-4.0226467"><ele>143.0</ele><time>2026-04-26T08:35:42.674Z</time></trkpt><trkpt lat="48.4171367" lon="-4.022555"><ele>142.75</ele><time>2026-04-26T08:35:43.677Z</time></trkpt><trkpt lat="48.4170083" lon="-4.0224633"><ele>142.5</ele><time>2026-04-26T08:35:44.675Z</time></trkpt><trkpt lat="48.41688" lon="-4.0223767"><ele>142.25</ele><time>2026-04-26T08:35:45.677Z</time></trkpt><trkpt lat="48.4167517" lon="-4.0222983"><ele>142.0</ele><time>2026-04-26T08:35:46.676Z</time></trkpt><trkpt lat="48.416625" lon="-4.02223"><ele>142.0</ele><time>2026-04-26T08:35:47.677Z</time></trkpt><trkpt lat="48.4165083" lon="-4.0221633"><ele>142.0</ele><time>2026-04-26T08:35:48.678Z</time></trkpt><trkpt lat="48.416395" lon="-4.022105"><ele>142.0</ele><time>2026-04-26T08:35:49.677Z</time></trkpt><trkpt lat="48.4162833" lon="-4.022055"><ele>142.0</ele><time>2026-04-26T08:35:50.679Z</time></trkpt><trkpt lat="48.416175" lon="-4.0220117"><ele>141.79999999999998</ele><time>2026-04-26T08:35:51.675Z</time></trkpt><trkpt lat="48.4160733" lon="-4.0219783"><ele>141.6</ele><time>2026-04-26T08:35:52.678Z</time></trkpt><trkpt lat="48.4159767" lon="-4.02195"><ele>141.39999999999998</ele><time>2026-04-26T08:35:53.675Z</time></trkpt><trkpt lat="48.4158867" lon="-4.0219233"><ele>141.2</ele><time>2026-04-26T08:35:54.677Z</time></trkpt><trkpt lat="48.415805" lon="-4.0218967"><ele>141.0</ele><time>2026-04-26T08:35:55.677Z</time></trkpt><trkpt lat="48.4157317" lon="-4.02187"><ele>141.0</ele><time>2026-04-26T08:35:56.677Z</time></trkpt><trkpt lat="48.41567" lon="-4.0218417"><ele>141.0</ele><time>2026-04-26T08:35:57.677Z</time></trkpt><trkpt lat="48.41558" lon="-4.02178"><ele>141.0</ele><time>2026-04-26T08:35:59.68Z</time></trkpt><trkpt lat="48.41551" lon="-4.0216767"><ele>141.0</ele><time>2026-04-26T08:36:05.676Z</time></trkpt><trkpt lat="48.41554" lon="-4.021525"><ele>141.0</ele><time>2026-04-26T08:36:07.679Z</time></trkpt><trkpt lat="48.415585" lon="-4.0214267"><ele>141.0</ele><time>2026-04-26T08:36:08.678Z</time></trkpt><trkpt lat="48.415635" lon="-4.0213217"><ele>141.4</ele><time>2026-04-26T08:36:09.676Z</time></trkpt><trkpt lat="48.4156833" lon="-4.0211917"><ele>141.8</ele><time>2026-04-26T08:36:10.677Z</time></trkpt><trkpt lat="48.4157333" lon="-4.02105"><ele>142.20000000000002</ele><time>2026-04-26T08:36:11.676Z</time></trkpt><trkpt lat="48.4157833" lon="-4.0209"><ele>142.6</ele><time>2026-04-26T08:36:12.677Z</time></trkpt><trkpt lat="48.4158333" lon="-4.020725"><ele>143.0</ele><time>2026-04-26T08:36:13.678Z</time></trkpt><trkpt lat="48.4158833" lon="-4.020535"><ele>143.0</ele><time>2026-04-26T08:36:14.673Z</time></trkpt><trkpt lat="48.41593" lon="-4.0203333"><ele>143.0</ele><time>2026-04-26T08:36:15.673Z</time></trkpt><trkpt lat="48.4159717" lon="-4.0201133"><ele>143.0</ele><time>2026-04-26T08:36:16.678Z</time></trkpt><trkpt lat="48.41601" lon="-4.0198717"><ele>143.33333333333331</ele><time>2026-04-26T08:36:17.674Z</time></trkpt><trkpt lat="48.41604" lon="-4.0196167"><ele>143.66666666666666</ele><time>2026-04-26T08:36:18.679Z</time></trkpt><trkpt lat="48.4160617" lon="-4.019355"><ele>144.0</ele><time>2026-04-26T08:36:19.677Z</time></trkpt><trkpt lat="48.416085" lon="-4.0190817"><ele>144.66666666666666</ele><time>2026-04-26T08:36:20.676Z</time></trkpt><trkpt lat="48.4161083" lon="-4.01879"><ele>145.33333333333331</ele><time>2026-04-26T08:36:21.678Z</time></trkpt><trkpt lat="48.4161317" lon="-4.0184883"><ele>146.0</ele><time>2026-04-26T08:36:22.68Z</time></trkpt><trkpt lat="48.416155" lon="-4.018185"><ele>146.0</ele><time>2026-04-26T08:36:23.678Z</time></trkpt><trkpt lat="48.416175" lon="-4.017885"><ele>146.0</ele><time>2026-04-26T08:36:24.678Z</time></trkpt><trkpt lat="48.4161983" lon="-4.0175833"><ele>146.0</ele><time>2026-04-26T08:36:25.678Z</time></trkpt><trkpt lat="48.416215" lon="-4.0172817"><ele>146.0</ele><time>2026-04-26T08:36:26.678Z</time></trkpt><trkpt lat="48.416235" lon="-4.0169783"><ele>146.0</ele><time>2026-04-26T08:36:27.676Z</time></trkpt><trkpt lat="48.4162583" lon="-4.01668"><ele>146.0</ele><time>2026-04-26T08:36:28.678Z</time></trkpt><trkpt lat="48.41628" lon="-4.0163833"><ele>147.0</ele><time>2026-04-26T08:36:29.677Z</time></trkpt><trkpt lat="48.4163067" lon="-4.01609"><ele>148.0</ele><time>2026-04-26T08:36:30.675Z</time></trkpt><trkpt lat="48.4163267" lon="-4.0158"><ele>149.0</ele><time>2026-04-26T08:36:31.677Z</time></trkpt><trkpt lat="48.4163467" lon="-4.0155133"><ele>149.0</ele><time>2026-04-26T08:36:32.677Z</time></trkpt><trkpt lat="48.41637" lon="-4.0152283"><ele>149.0</ele><time>2026-04-26T08:36:33.678Z</time></trkpt><trkpt lat="48.4163933" lon="-4.014945"><ele>149.0</ele><time>2026-04-26T08:36:34.677Z</time></trkpt><trkpt lat="48.416415" lon="-4.01466"><ele>149.33333333333331</ele><time>2026-04-26T08:36:35.675Z</time></trkpt><trkpt lat="48.4164367" lon="-4.0143783"><ele>149.66666666666666</ele><time>2026-04-26T08:36:36.675Z</time></trkpt><trkpt lat="48.4164567" lon="-4.0140983"><ele>150.0</ele><time>2026-04-26T08:36:37.674Z</time></trkpt><trkpt lat="48.4164767" lon="-4.0138183"><ele>151.0</ele><time>2026-04-26T08:36:38.676Z</time></trkpt><trkpt lat="48.4164967" lon="-4.0135367"><ele>152.0</ele><time>2026-04-26T08:36:39.675Z</time></trkpt><trkpt lat="48.4165183" lon="-4.01326"><ele>153.0</ele><time>2026-04-26T08:36:40.676Z</time></trkpt><trkpt lat="48.41654" lon="-4.012985"><ele>154.0</ele><time>2026-04-26T08:36:41.675Z</time></trkpt><trkpt lat="48.41656" lon="-4.0127083"><ele>155.0</ele><time>2026-04-26T08:36:42.679Z</time></trkpt><trkpt lat="48.4165817" lon="-4.01243"><ele>156.0</ele><time>2026-04-26T08:36:43.677Z</time></trkpt><trkpt lat="48.4166" lon="-4.0121533"><ele>157.0</ele><time>2026-04-26T08:36:44.675Z</time></trkpt><trkpt lat="48.4166233" lon="-4.0118817"><ele>158.0</ele><time>2026-04-26T08:36:45.674Z</time></trkpt><trkpt lat="48.4166433" lon="-4.0116017"><ele>159.0</ele><time>2026-04-26T08:36:46.673Z</time></trkpt><trkpt lat="48.4166683" lon="-4.0113233"><ele>159.66666666666666</ele><time>2026-04-26T08:36:47.68Z</time></trkpt><trkpt lat="48.4166933" lon="-4.0110433"><ele>160.33333333333331</ele><time>2026-04-26T08:36:48.675Z</time></trkpt><trkpt lat="48.4167133" lon="-4.0107617"><ele>161.0</ele><time>2026-04-26T08:36:49.676Z</time></trkpt><trkpt lat="48.4167317" lon="-4.0104783"><ele>161.66666666666666</ele><time>2026-04-26T08:36:50.676Z</time></trkpt><trkpt lat="48.416745" lon="-4.0102033"><ele>162.33333333333334</ele><time>2026-04-26T08:36:51.673Z</time></trkpt><trkpt lat="48.4167483" lon="-4.0099183"><ele>163.0</ele><time>2026-04-26T08:36:52.673Z</time></trkpt><trkpt lat="48.4167417" lon="-4.0096333"><ele>164.33333333333334</ele><time>2026-04-26T08:36:53.678Z</time></trkpt><trkpt lat="48.41672" lon="-4.0093483"><ele>165.66666666666666</ele><time>2026-04-26T08:36:54.68Z</time></trkpt><trkpt lat="48.4166833" lon="-4.00907"><ele>167.0</ele><time>2026-04-26T08:36:55.678Z</time></trkpt><trkpt lat="48.4166417" lon="-4.0087933"><ele>166.66666666666666</ele><time>2026-04-26T08:36:56.677Z</time></trkpt><trkpt lat="48.4165867" lon="-4.0085117"><ele>166.33333333333334</ele><time>2026-04-26T08:36:57.677Z</time></trkpt><trkpt lat="48.4165083" lon="-4.0082483"><ele>166.0</ele><time>2026-04-26T08:36:58.678Z</time></trkpt><trkpt lat="48.4164083" lon="-4.0079917"><ele>167.33333333333334</ele><time>2026-04-26T08:36:59.681Z</time></trkpt><trkpt lat="48.4163" lon="-4.0077383"><ele>168.66666666666666</ele><time>2026-04-26T08:37:00.676Z</time></trkpt><trkpt lat="48.41617" lon="-4.0074917"><ele>170.0</ele><time>2026-04-26T08:37:01.674Z</time></trkpt><trkpt lat="48.41603" lon="-4.00725"><ele>170.0</ele><time>2026-04-26T08:37:02.675Z</time></trkpt><trkpt lat="48.4158867" lon="-4.007015"><ele>170.0</ele><time>2026-04-26T08:37:03.679Z</time></trkpt><trkpt lat="48.41574" lon="-4.0067833"><ele>170.0</ele><time>2026-04-26T08:37:04.677Z</time></trkpt><trkpt lat="48.4155883" lon="-4.0065533"><ele>168.66666666666666</ele><time>2026-04-26T08:37:05.674Z</time></trkpt><trkpt lat="48.41543" lon="-4.0063317"><ele>167.33333333333334</ele><time>2026-04-26T08:37:06.678Z</time></trkpt><trkpt lat="48.4152783" lon="-4.0061033"><ele>166.0</ele><time>2026-04-26T08:37:07.679Z</time></trkpt><trkpt lat="48.4151267" lon="-4.0058733"><ele>166.66666666666669</ele><time>2026-04-26T08:37:08.674Z</time></trkpt><trkpt lat="48.414985" lon="-4.0056317"><ele>167.33333333333334</ele><time>2026-04-26T08:37:09.677Z</time></trkpt><trkpt lat="48.4148433" lon="-4.0053833"><ele>168.0</ele><time>2026-04-26T08:37:10.675Z</time></trkpt><trkpt lat="48.414705" lon="-4.0051333"><ele>167.33333333333334</ele><time>2026-04-26T08:37:11.678Z</time></trkpt><trkpt lat="48.4145717" lon="-4.0048733"><ele>166.66666666666669</ele><time>2026-04-26T08:37:12.679Z</time></trkpt><trkpt lat="48.4144433" lon="-4.00461"><ele>166.0</ele><time>2026-04-26T08:37:13.673Z</time></trkpt><trkpt lat="48.4143167" lon="-4.0043417"><ele>166.0</ele><time>2026-04-26T08:37:14.676Z</time></trkpt><trkpt lat="48.414195" lon="-4.004065"><ele>166.0</ele><time>2026-04-26T08:37:15.676Z</time></trkpt><trkpt lat="48.4140833" lon="-4.0037817"><ele>166.0</ele><time>2026-04-26T08:37:16.673Z</time></trkpt><trkpt lat="48.4139717" lon="-4.0034933"><ele>166.66666666666669</ele><time>2026-04-26T08:37:17.676Z</time></trkpt><trkpt lat="48.4138683" lon="-4.0032"><ele>167.33333333333334</ele><time>2026-04-26T08:37:18.677Z</time></trkpt><trkpt lat="48.41377" lon="-4.0029"><ele>168.0</ele><time>2026-04-26T08:37:19.677Z</time></trkpt><trkpt lat="48.41368" lon="-4.002595"><ele>169.0</ele><time>2026-04-26T08:37:20.676Z</time></trkpt><trkpt lat="48.4135917" lon="-4.002285"><ele>170.0</ele><time>2026-04-26T08:37:21.677Z</time></trkpt><trkpt lat="48.4135067" lon="-4.0019683"><ele>169.5</ele><time>2026-04-26T08:37:22.674Z</time></trkpt><trkpt lat="48.41342" lon="-4.001655"><ele>169.0</ele><time>2026-04-26T08:37:23.679Z</time></trkpt><trkpt lat="48.4133283" lon="-4.001345"><ele>169.0</ele><time>2026-04-26T08:37:24.677Z</time></trkpt><trkpt lat="48.4132283" lon="-4.0010417"><ele>169.0</ele><time>2026-04-26T08:37:25.676Z</time></trkpt><trkpt lat="48.4131167" lon="-4.000745"><ele>169.0</ele><time>2026-04-26T08:37:26.682Z</time></trkpt><trkpt lat="48.4129933" lon="-4.0004583"><ele>169.0</ele><time>2026-04-26T08:37:27.675Z</time></trkpt><trkpt lat="48.4128667" lon="-4.000175"><ele>169.0</ele><time>2026-04-26T08:37:28.672Z</time></trkpt><trkpt lat="48.4127367" lon="-3.9998967"><ele>169.0</ele><time>2026-04-26T08:37:29.675Z</time></trkpt><trkpt lat="48.412605" lon="-3.99962"><ele>169.0</ele><time>2026-04-26T08:37:30.675Z</time></trkpt><trkpt lat="48.4124667" lon="-3.9993517"><ele>169.0</ele><time>2026-04-26T08:37:31.674Z</time></trkpt><trkpt lat="48.41232" lon="-3.99909"><ele>169.0</ele><time>2026-04-26T08:37:32.674Z</time></trkpt><trkpt lat="48.4121633" lon="-3.9988383"><ele>169.0</ele><time>2026-04-26T08:37:33.68Z</time></trkpt><trkpt lat="48.4120017" lon="-3.9985933"><ele>169.0</ele><time>2026-04-26T08:37:34.673Z</time></trkpt><trkpt lat="48.4118367" lon="-3.9983567"><ele>169.0</ele><time>2026-04-26T08:37:35.683Z</time></trkpt><trkpt lat="48.411665" lon="-3.9981333"><ele>170.0</ele><time>2026-04-26T08:37:36.677Z</time></trkpt><trkpt lat="48.4114867" lon="-3.9979183"><ele>171.0</ele><time>2026-04-26T08:37:37.677Z</time></trkpt><trkpt lat="48.4113067" lon="-3.997705"><ele>171.5</ele><time>2026-04-26T08:37:38.678Z</time></trkpt><trkpt lat="48.4111267" lon="-3.9974917"><ele>172.0</ele><time>2026-04-26T08:37:39.677Z</time></trkpt><trkpt lat="48.4109483" lon="-3.9972783"><ele>172.0</ele><time>2026-04-26T08:37:40.674Z</time></trkpt><trkpt lat="48.41077" lon="-3.997065"><ele>172.0</ele><time>2026-04-26T08:37:41.678Z</time></trkpt><trkpt lat="48.4105933" lon="-3.9968517"><ele>172.66666666666669</ele><time>2026-04-26T08:37:42.675Z</time></trkpt><trkpt lat="48.41042" lon="-3.996635"><ele>173.33333333333334</ele><time>2026-04-26T08:37:43.676Z</time></trkpt><trkpt lat="48.4102517" lon="-3.996415"><ele>174.0</ele><time>2026-04-26T08:37:44.676Z</time></trkpt><trkpt lat="48.4100883" lon="-3.9961883"><ele>174.0</ele><time>2026-04-26T08:37:45.676Z</time></trkpt><trkpt lat="48.409935" lon="-3.9959483"><ele>174.0</ele><time>2026-04-26T08:37:46.677Z</time></trkpt><trkpt lat="48.40979" lon="-3.9957"><ele>174.0</ele><time>2026-04-26T08:37:47.676Z</time></trkpt><trkpt lat="48.40966" lon="-3.9954367"><ele>174.66666666666666</ele><time>2026-04-26T08:37:48.679Z</time></trkpt><trkpt lat="48.4095417" lon="-3.9951633"><ele>175.33333333333331</ele><time>2026-04-26T08:37:49.681Z</time></trkpt><trkpt lat="48.4094333" lon="-3.99488"><ele>176.0</ele><time>2026-04-26T08:37:50.676Z</time></trkpt><trkpt lat="48.4093383" lon="-3.9945733"><ele>176.5</ele><time>2026-04-26T08:37:51.676Z</time></trkpt><trkpt lat="48.4092533" lon="-3.994245"><ele>177.0</ele><time>2026-04-26T08:37:52.676Z</time></trkpt><trkpt lat="48.4091633" lon="-3.993905"><ele>177.0</ele><time>2026-04-26T08:37:53.679Z</time></trkpt><trkpt lat="48.4090683" lon="-3.9935683"><ele>177.0</ele><time>2026-04-26T08:37:54.677Z</time></trkpt><trkpt lat="48.4089817" lon="-3.9932533"><ele>176.66666666666666</ele><time>2026-04-26T08:37:55.676Z</time></trkpt><trkpt lat="48.4089033" lon="-3.9929433"><ele>176.33333333333331</ele><time>2026-04-26T08:37:56.676Z</time></trkpt><trkpt lat="48.4088333" lon="-3.992635"><ele>176.0</ele><time>2026-04-26T08:37:57.674Z</time></trkpt><trkpt lat="48.4087717" lon="-3.99233"><ele>177.0</ele><time>2026-04-26T08:37:58.675Z</time></trkpt><trkpt lat="48.40872" lon="-3.9920267"><ele>178.0</ele><time>2026-04-26T08:37:59.677Z</time></trkpt><trkpt lat="48.4086717" lon="-3.9917217"><ele>179.0</ele><time>2026-04-26T08:38:00.676Z</time></trkpt><trkpt lat="48.40863" lon="-3.9914083"><ele>179.0</ele><time>2026-04-26T08:38:01.676Z</time></trkpt><trkpt lat="48.408595" lon="-3.9911017"><ele>179.0</ele><time>2026-04-26T08:38:02.678Z</time></trkpt><trkpt lat="48.4085633" lon="-3.9907933"><ele>179.0</ele><time>2026-04-26T08:38:03.679Z</time></trkpt><trkpt lat="48.4085367" lon="-3.9904833"><ele>179.0</ele><time>2026-04-26T08:38:04.678Z</time></trkpt><trkpt lat="48.4085167" lon="-3.99017"><ele>179.0</ele><time>2026-04-26T08:38:05.678Z</time></trkpt><trkpt lat="48.4085067" lon="-3.9898533"><ele>179.0</ele><time>2026-04-26T08:38:06.678Z</time></trkpt><trkpt lat="48.4085033" lon="-3.9895333"><ele>179.66666666666666</ele><time>2026-04-26T08:38:07.68Z</time></trkpt><trkpt lat="48.4085033" lon="-3.9892133"><ele>180.33333333333334</ele><time>2026-04-26T08:38:08.681Z</time></trkpt><trkpt lat="48.40851" lon="-3.9888917"><ele>181.0</ele><time>2026-04-26T08:38:09.68Z</time></trkpt><trkpt lat="48.4085233" lon="-3.98857"><ele>182.0</ele><time>2026-04-26T08:38:10.675Z</time></trkpt><trkpt lat="48.4085433" lon="-3.988245"><ele>183.0</ele><time>2026-04-26T08:38:11.678Z</time></trkpt><trkpt lat="48.4085683" lon="-3.98792"><ele>184.0</ele><time>2026-04-26T08:38:12.677Z</time></trkpt><trkpt lat="48.4086033" lon="-3.987595"><ele>184.66666666666669</ele><time>2026-04-26T08:38:13.675Z</time></trkpt><trkpt lat="48.4086467" lon="-3.9872667"><ele>185.33333333333334</ele><time>2026-04-26T08:38:14.676Z</time></trkpt><trkpt lat="48.4086933" lon="-3.9869417"><ele>186.0</ele><time>2026-04-26T08:38:15.676Z</time></trkpt><trkpt lat="48.4087467" lon="-3.98662"><ele>185.66666666666666</ele><time>2026-04-26T08:38:16.677Z</time></trkpt><trkpt lat="48.40881" lon="-3.9863"><ele>185.33333333333331</ele><time>2026-04-26T08:38:17.674Z</time></trkpt><trkpt lat="48.4088767" lon="-3.985985"><ele>185.0</ele><time>2026-04-26T08:38:18.678Z</time></trkpt><trkpt lat="48.40895" lon="-3.9856767"><ele>186.0</ele><time>2026-04-26T08:38:19.675Z</time></trkpt><trkpt lat="48.409025" lon="-3.98537"><ele>187.0</ele><time>2026-04-26T08:38:20.677Z</time></trkpt><trkpt lat="48.4091067" lon="-3.9850717"><ele>188.0</ele><time>2026-04-26T08:38:21.675Z</time></trkpt><trkpt lat="48.409195" lon="-3.9847783"><ele>188.33333333333331</ele><time>2026-04-26T08:38:22.679Z</time></trkpt><trkpt lat="48.4092883" lon="-3.984495"><ele>188.66666666666666</ele><time>2026-04-26T08:38:23.676Z</time></trkpt><trkpt lat="48.409385" lon="-3.984215"><ele>189.0</ele><time>2026-04-26T08:38:24.678Z</time></trkpt><trkpt lat="48.4094867" lon="-3.9839383"><ele>189.66666666666666</ele><time>2026-04-26T08:38:25.675Z</time></trkpt><trkpt lat="48.4095967" lon="-3.9836717"><ele>190.33333333333331</ele><time>2026-04-26T08:38:26.68Z</time></trkpt><trkpt lat="48.4097117" lon="-3.9834117"><ele>191.0</ele><time>2026-04-26T08:38:27.675Z</time></trkpt><trkpt lat="48.40983" lon="-3.9831517"><ele>193.0</ele><time>2026-04-26T08:38:28.671Z</time></trkpt><trkpt lat="48.4099517" lon="-3.9828967"><ele>195.0</ele><time>2026-04-26T08:38:29.677Z</time></trkpt><trkpt lat="48.41008" lon="-3.9826483"><ele>197.0</ele><time>2026-04-26T08:38:30.678Z</time></trkpt><trkpt lat="48.410215" lon="-3.9824033"><ele>197.0</ele><time>2026-04-26T08:38:31.676Z</time></trkpt><trkpt lat="48.4103567" lon="-3.9821533"><ele>197.0</ele><time>2026-04-26T08:38:32.675Z</time></trkpt><trkpt lat="48.4105067" lon="-3.9819"><ele>197.0</ele><time>2026-04-26T08:38:33.677Z</time></trkpt><trkpt lat="48.4106617" lon="-3.9816417"><ele>197.66666666666669</ele><time>2026-04-26T08:38:34.673Z</time></trkpt><trkpt lat="48.41081" lon="-3.98139"><ele>198.33333333333331</ele><time>2026-04-26T08:38:35.678Z</time></trkpt><trkpt lat="48.4109567" lon="-3.9811467"><ele>199.0</ele><time>2026-04-26T08:38:36.676Z</time></trkpt><trkpt lat="48.4110983" lon="-3.98091"><ele>199.0</ele><time>2026-04-26T08:38:37.673Z</time></trkpt><trkpt lat="48.4112417" lon="-3.9806833"><ele>199.0</ele><time>2026-04-26T08:38:38.678Z</time></trkpt><trkpt lat="48.4113833" lon="-3.980455"><ele>199.0</ele><time>2026-04-26T08:38:39.678Z</time></trkpt><trkpt lat="48.411525" lon="-3.9802283"><ele>199.33333333333331</ele><time>2026-04-26T08:38:40.677Z</time></trkpt><trkpt lat="48.4116667" lon="-3.9799933"><ele>199.66666666666669</ele><time>2026-04-26T08:38:41.678Z</time></trkpt><trkpt lat="48.4118067" lon="-3.9797517"><ele>200.0</ele><time>2026-04-26T08:38:42.678Z</time></trkpt><trkpt lat="48.4119417" lon="-3.9795033"><ele>200.0</ele><time>2026-04-26T08:38:43.675Z</time></trkpt><trkpt lat="48.41207" lon="-3.97924"><ele>200.0</ele><time>2026-04-26T08:38:44.675Z</time></trkpt><trkpt lat="48.4121817" lon="-3.97896"><ele>200.0</ele><time>2026-04-26T08:38:45.678Z</time></trkpt><trkpt lat="48.41228" lon="-3.9786683"><ele>201.0</ele><time>2026-04-26T08:38:46.676Z</time></trkpt><trkpt lat="48.4123633" lon="-3.978365"><ele>202.0</ele><time>2026-04-26T08:38:47.673Z</time></trkpt><trkpt lat="48.4124317" lon="-3.9780517"><ele>203.0</ele><time>2026-04-26T08:38:48.675Z</time></trkpt><trkpt lat="48.4124817" lon="-3.97773"><ele>204.33333333333334</ele><time>2026-04-26T08:38:49.674Z</time></trkpt><trkpt lat="48.4125117" lon="-3.9774"><ele>205.66666666666669</ele><time>2026-04-26T08:38:50.676Z</time></trkpt><trkpt lat="48.4125317" lon="-3.9770667"><ele>207.0</ele><time>2026-04-26T08:38:51.673Z</time></trkpt><trkpt lat="48.4125433" lon="-3.9767333"><ele>208.66666666666669</ele><time>2026-04-26T08:38:52.676Z</time></trkpt><trkpt lat="48.412555" lon="-3.9764017"><ele>210.33333333333334</ele><time>2026-04-26T08:38:53.68Z</time></trkpt><trkpt lat="48.412565" lon="-3.976075"><ele>212.0</ele><time>2026-04-26T08:38:54.683Z</time></trkpt><trkpt lat="48.4125767" lon="-3.9757517"><ele>214.0</ele><time>2026-04-26T08:38:55.677Z</time></trkpt><trkpt lat="48.412585" lon="-3.9754317"><ele>216.0</ele><time>2026-04-26T08:38:56.682Z</time></trkpt><trkpt lat="48.4125917" lon="-3.9751133"><ele>218.0</ele><time>2026-04-26T08:38:57.675Z</time></trkpt><trkpt lat="48.4126" lon="-3.9748017"><ele>218.0</ele><time>2026-04-26T08:38:58.678Z</time></trkpt><trkpt lat="48.41261" lon="-3.9744967"><ele>218.0</ele><time>2026-04-26T08:38:59.671Z</time></trkpt><trkpt lat="48.41262" lon="-3.9742117"><ele>218.0</ele><time>2026-04-26T08:39:00.674Z</time></trkpt><trkpt lat="48.4126283" lon="-3.973945"><ele>218.33333333333334</ele><time>2026-04-26T08:39:01.673Z</time></trkpt><trkpt lat="48.412635" lon="-3.973695"><ele>218.66666666666669</ele><time>2026-04-26T08:39:02.676Z</time></trkpt><trkpt lat="48.4126417" lon="-3.9734617"><ele>219.0</ele><time>2026-04-26T08:39:03.674Z</time></trkpt><trkpt lat="48.4126483" lon="-3.9732517"><ele>219.5</ele><time>2026-04-26T08:39:04.677Z</time></trkpt><trkpt lat="48.4126533" lon="-3.9730567"><ele>220.0</ele><time>2026-04-26T08:39:05.672Z</time></trkpt><trkpt lat="48.41266" lon="-3.9728733"><ele>220.5</ele><time>2026-04-26T08:39:06.676Z</time></trkpt><trkpt lat="48.4126733" lon="-3.9726967"><ele>221.0</ele><time>2026-04-26T08:39:07.676Z</time></trkpt><trkpt lat="48.412685" lon="-3.9725333"><ele>221.0</ele><time>2026-04-26T08:39:08.674Z</time></trkpt><trkpt lat="48.412695" lon="-3.9723683"><ele>221.0</ele><time>2026-04-26T08:39:09.676Z</time></trkpt><trkpt lat="48.4127033" lon="-3.9722017"><ele>221.0</ele><time>2026-04-26T08:39:10.676Z</time></trkpt><trkpt lat="48.4127067" lon="-3.9720283"><ele>221.0</ele><time>2026-04-26T08:39:11.677Z</time></trkpt><trkpt lat="48.4127117" lon="-3.971855"><ele>221.0</ele><time>2026-04-26T08:39:12.679Z</time></trkpt><trkpt lat="48.4127167" lon="-3.97168"><ele>221.0</ele><time>2026-04-26T08:39:13.675Z</time></trkpt><trkpt lat="48.41272" lon="-3.9715067"><ele>221.0</ele><time>2026-04-26T08:39:14.676Z</time></trkpt><trkpt lat="48.4127133" lon="-3.9713367"><ele>221.0</ele><time>2026-04-26T08:39:15.675Z</time></trkpt><trkpt lat="48.4127033" lon="-3.971165"><ele>221.0</ele><time>2026-04-26T08:39:16.674Z</time></trkpt><trkpt lat="48.4126833" lon="-3.9709967"><ele>221.0</ele><time>2026-04-26T08:39:17.675Z</time></trkpt><trkpt lat="48.4126567" lon="-3.9708333"><ele>221.0</ele><time>2026-04-26T08:39:18.674Z</time></trkpt><trkpt lat="48.41262" lon="-3.9706717"><ele>221.0</ele><time>2026-04-26T08:39:19.674Z</time></trkpt><trkpt lat="48.412575" lon="-3.9705133"><ele>221.5</ele><time>2026-04-26T08:39:20.678Z</time></trkpt><trkpt lat="48.4125233" lon="-3.9703583"><ele>222.0</ele><time>2026-04-26T08:39:21.674Z</time></trkpt><trkpt lat="48.412465" lon="-3.9702083"><ele>222.5</ele><time>2026-04-26T08:39:22.674Z</time></trkpt><trkpt lat="48.4124033" lon="-3.9700617"><ele>223.0</ele><time>2026-04-26T08:39:23.679Z</time></trkpt><trkpt lat="48.4123333" lon="-3.9699217"><ele>223.5</ele><time>2026-04-26T08:39:24.676Z</time></trkpt><trkpt lat="48.4122633" lon="-3.96978"><ele>224.0</ele><time>2026-04-26T08:39:25.677Z</time></trkpt><trkpt lat="48.4121867" lon="-3.9696417"><ele>224.5</ele><time>2026-04-26T08:39:26.678Z</time></trkpt><trkpt lat="48.4121067" lon="-3.9695017"><ele>225.0</ele><time>2026-04-26T08:39:27.678Z</time></trkpt><trkpt lat="48.412025" lon="-3.9693617"><ele>225.25</ele><time>2026-04-26T08:39:28.679Z</time></trkpt><trkpt lat="48.4119417" lon="-3.9692167"><ele>225.5</ele><time>2026-04-26T08:39:29.679Z</time></trkpt><trkpt lat="48.4118583" lon="-3.9690683"><ele>225.75</ele><time>2026-04-26T08:39:30.676Z</time></trkpt><trkpt lat="48.4117767" lon="-3.9689183"><ele>226.0</ele><time>2026-04-26T08:39:31.675Z</time></trkpt><trkpt lat="48.4116917" lon="-3.9687667"><ele>226.0</ele><time>2026-04-26T08:39:32.677Z</time></trkpt><trkpt lat="48.4116067" lon="-3.9686133"><ele>226.0</ele><time>2026-04-26T08:39:33.675Z</time></trkpt><trkpt lat="48.4115183" lon="-3.96846"><ele>226.0</ele><time>2026-04-26T08:39:34.676Z</time></trkpt><trkpt lat="48.41143" lon="-3.9682967"><ele>226.0</ele><time>2026-04-26T08:39:35.674Z</time></trkpt><trkpt lat="48.4113267" lon="-3.968105"><ele>225.66666666666666</ele><time>2026-04-26T08:39:36.678Z</time></trkpt><trkpt lat="48.4112017" lon="-3.96788"><ele>225.33333333333331</ele><time>2026-04-26T08:39:37.676Z</time></trkpt><trkpt lat="48.411065" lon="-3.9676267"><ele>225.0</ele><time>2026-04-26T08:39:38.678Z</time></trkpt><trkpt lat="48.4109267" lon="-3.9673633"><ele>224.5</ele><time>2026-04-26T08:39:39.677Z</time></trkpt><trkpt lat="48.410785" lon="-3.9670883"><ele>224.0</ele><time>2026-04-26T08:39:40.676Z</time></trkpt><trkpt lat="48.41065" lon="-3.9668117"><ele>224.0</ele><time>2026-04-26T08:39:41.676Z</time></trkpt><trkpt lat="48.4105267" lon="-3.9665217"><ele>224.0</ele><time>2026-04-26T08:39:42.677Z</time></trkpt><trkpt lat="48.4104117" lon="-3.966235"><ele>224.66666666666669</ele><time>2026-04-26T08:39:43.676Z</time></trkpt><trkpt lat="48.4103033" lon="-3.96595"><ele>225.33333333333331</ele><time>2026-04-26T08:39:44.673Z</time></trkpt><trkpt lat="48.4102" lon="-3.96567"><ele>226.0</ele><time>2026-04-26T08:39:45.676Z</time></trkpt><trkpt lat="48.4101033" lon="-3.96539"><ele>226.0</ele><time>2026-04-26T08:39:46.674Z</time></trkpt><trkpt lat="48.4100117" lon="-3.965105"><ele>226.0</ele><time>2026-04-26T08:39:47.678Z</time></trkpt><trkpt lat="48.4099267" lon="-3.9648133"><ele>226.0</ele><time>2026-04-26T08:39:48.677Z</time></trkpt><trkpt lat="48.4098417" lon="-3.96452"><ele>226.0</ele><time>2026-04-26T08:39:49.68Z</time></trkpt><trkpt lat="48.4097633" lon="-3.964225"><ele>226.0</ele><time>2026-04-26T08:39:50.68Z</time></trkpt><trkpt lat="48.40968" lon="-3.9639233"><ele>226.0</ele><time>2026-04-26T08:39:51.677Z</time></trkpt><trkpt lat="48.4095983" lon="-3.9636233"><ele>226.33333333333331</ele><time>2026-04-26T08:39:52.676Z</time></trkpt><trkpt lat="48.4095183" lon="-3.9633233"><ele>226.66666666666669</ele><time>2026-04-26T08:39:53.676Z</time></trkpt><trkpt lat="48.4094367" lon="-3.9630267"><ele>227.0</ele><time>2026-04-26T08:39:54.68Z</time></trkpt><trkpt lat="48.409355" lon="-3.9627333"><ele>227.66666666666669</ele><time>2026-04-26T08:39:55.675Z</time></trkpt><trkpt lat="48.4092767" lon="-3.9624417"><ele>228.33333333333331</ele><time>2026-04-26T08:39:56.676Z</time></trkpt><trkpt lat="48.4092017" lon="-3.96215"><ele>229.0</ele><time>2026-04-26T08:39:57.673Z</time></trkpt><trkpt lat="48.4091317" lon="-3.96186"><ele>229.66666666666666</ele><time>2026-04-26T08:39:58.672Z</time></trkpt><trkpt lat="48.409065" lon="-3.9615667"><ele>230.33333333333331</ele><time>2026-04-26T08:39:59.672Z</time></trkpt><trkpt lat="48.4090017" lon="-3.9612783"><ele>231.0</ele><time>2026-04-26T08:40:00.672Z</time></trkpt><trkpt lat="48.4089367" lon="-3.96099"><ele>232.0</ele><time>2026-04-26T08:40:01.677Z</time></trkpt><trkpt lat="48.408875" lon="-3.960715"><ele>233.0</ele><time>2026-04-26T08:40:02.678Z</time></trkpt><trkpt lat="48.40881" lon="-3.9604533"><ele>234.0</ele><time>2026-04-26T08:40:03.676Z</time></trkpt><trkpt lat="48.408745" lon="-3.9601933"><ele>235.33333333333331</ele><time>2026-04-26T08:40:04.68Z</time></trkpt><trkpt lat="48.4086767" lon="-3.9599367"><ele>236.66666666666666</ele><time>2026-04-26T08:40:05.675Z</time></trkpt><trkpt lat="48.408605" lon="-3.95968"><ele>238.0</ele><time>2026-04-26T08:40:06.674Z</time></trkpt><trkpt lat="48.4085233" lon="-3.9594283"><ele>239.0</ele><time>2026-04-26T08:40:07.675Z</time></trkpt><trkpt lat="48.40843" lon="-3.9591817"><ele>240.0</ele><time>2026-04-26T08:40:08.677Z</time></trkpt><trkpt lat="48.4083333" lon="-3.9589317"><ele>241.0</ele><time>2026-04-26T08:40:09.676Z</time></trkpt><trkpt lat="48.4082333" lon="-3.95868"><ele>241.0</ele><time>2026-04-26T08:40:10.676Z</time></trkpt><trkpt lat="48.408135" lon="-3.9584267"><ele>241.0</ele><time>2026-04-26T08:40:11.678Z</time></trkpt><trkpt lat="48.4080333" lon="-3.958175"><ele>241.0</ele><time>2026-04-26T08:40:12.679Z</time></trkpt><trkpt lat="48.40793" lon="-3.9579233"><ele>240.33333333333331</ele><time>2026-04-26T08:40:13.678Z</time></trkpt><trkpt lat="48.4078233" lon="-3.9576683"><ele>239.66666666666669</ele><time>2026-04-26T08:40:14.679Z</time></trkpt><trkpt lat="48.407715" lon="-3.957415"><ele>239.0</ele><time>2026-04-26T08:40:15.678Z</time></trkpt><trkpt lat="48.407605" lon="-3.95716"><ele>238.33333333333334</ele><time>2026-04-26T08:40:16.676Z</time></trkpt><trkpt lat="48.4074967" lon="-3.9569083"><ele>237.66666666666669</ele><time>2026-04-26T08:40:17.674Z</time></trkpt><trkpt lat="48.4073883" lon="-3.9566617"><ele>237.0</ele><time>2026-04-26T08:40:18.687Z</time></trkpt><trkpt lat="48.4072817" lon="-3.9564133"><ele>236.66666666666669</ele><time>2026-04-26T08:40:19.673Z</time></trkpt><trkpt lat="48.407175" lon="-3.956165"><ele>236.33333333333334</ele><time>2026-04-26T08:40:20.679Z</time></trkpt><trkpt lat="48.4070717" lon="-3.9559183"><ele>236.0</ele><time>2026-04-26T08:40:21.676Z</time></trkpt><trkpt lat="48.4069633" lon="-3.955675"><ele>235.66666666666669</ele><time>2026-04-26T08:40:22.678Z</time></trkpt><trkpt lat="48.406855" lon="-3.9554333"><ele>235.33333333333331</ele><time>2026-04-26T08:40:23.677Z</time></trkpt><trkpt lat="48.4067467" lon="-3.9551867"><ele>235.0</ele><time>2026-04-26T08:40:24.677Z</time></trkpt><trkpt lat="48.4066383" lon="-3.95494"><ele>235.0</ele><time>2026-04-26T08:40:25.677Z</time></trkpt><trkpt lat="48.4065267" lon="-3.9546933"><ele>235.0</ele><time>2026-04-26T08:40:26.681Z</time></trkpt><trkpt lat="48.4064183" lon="-3.9544483"><ele>235.0</ele><time>2026-04-26T08:40:27.678Z</time></trkpt><trkpt lat="48.4063117" lon="-3.9542117"><ele>236.0</ele><time>2026-04-26T08:40:28.675Z</time></trkpt><trkpt lat="48.4061983" lon="-3.953975"><ele>237.0</ele><time>2026-04-26T08:40:29.677Z</time></trkpt><trkpt lat="48.4060817" lon="-3.9537433"><ele>238.0</ele><time>2026-04-26T08:40:30.678Z</time></trkpt><trkpt lat="48.405965" lon="-3.95351"><ele>238.33333333333331</ele><time>2026-04-26T08:40:31.675Z</time></trkpt><trkpt lat="48.4058533" lon="-3.9532717"><ele>238.66666666666669</ele><time>2026-04-26T08:40:32.676Z</time></trkpt><trkpt lat="48.405755" lon="-3.9530233"><ele>239.0</ele><time>2026-04-26T08:40:33.674Z</time></trkpt><trkpt lat="48.405675" lon="-3.952765"><ele>240.0</ele><time>2026-04-26T08:40:34.677Z</time></trkpt><trkpt lat="48.405605" lon="-3.9524983"><ele>241.0</ele><time>2026-04-26T08:40:35.675Z</time></trkpt><trkpt lat="48.40554" lon="-3.9522267"><ele>242.0</ele><time>2026-04-26T08:40:36.679Z</time></trkpt><trkpt lat="48.4054867" lon="-3.9519533"><ele>243.33333333333334</ele><time>2026-04-26T08:40:37.676Z</time></trkpt><trkpt lat="48.4054433" lon="-3.9516767"><ele>244.66666666666669</ele><time>2026-04-26T08:40:38.675Z</time></trkpt><trkpt lat="48.4054033" lon="-3.951395"><ele>246.0</ele><time>2026-04-26T08:40:39.677Z</time></trkpt><trkpt lat="48.4053633" lon="-3.9511183"><ele>247.0</ele><time>2026-04-26T08:40:40.678Z</time></trkpt><trkpt lat="48.4053317" lon="-3.9508383"><ele>248.0</ele><time>2026-04-26T08:40:41.681Z</time></trkpt><trkpt lat="48.4052967" lon="-3.9505567"><ele>249.0</ele><time>2026-04-26T08:40:42.677Z</time></trkpt><trkpt lat="48.40526" lon="-3.9502733"><ele>249.0</ele><time>2026-04-26T08:40:43.675Z</time></trkpt><trkpt lat="48.4052217" lon="-3.9499917"><ele>249.0</ele><time>2026-04-26T08:40:44.675Z</time></trkpt><trkpt lat="48.4051817" lon="-3.9497083"><ele>249.0</ele><time>2026-04-26T08:40:45.673Z</time></trkpt><trkpt lat="48.4051433" lon="-3.9494283"><ele>249.66666666666669</ele><time>2026-04-26T08:40:46.674Z</time></trkpt><trkpt lat="48.4051033" lon="-3.94915"><ele>250.33333333333334</ele><time>2026-04-26T08:40:47.673Z</time></trkpt><trkpt lat="48.4050567" lon="-3.94887"><ele>251.0</ele><time>2026-04-26T08:40:48.673Z</time></trkpt><trkpt lat="48.405015" lon="-3.9486017"><ele>252.0</ele><time>2026-04-26T08:40:49.676Z</time></trkpt><trkpt lat="48.40497" lon="-3.9483333"><ele>253.0</ele><time>2026-04-26T08:40:50.677Z</time></trkpt><trkpt lat="48.4049233" lon="-3.9480633"><ele>254.0</ele><time>2026-04-26T08:40:51.677Z</time></trkpt><trkpt lat="48.404875" lon="-3.94779"><ele>254.0</ele><time>2026-04-26T08:40:52.677Z</time></trkpt><trkpt lat="48.4048317" lon="-3.947515"><ele>254.0</ele><time>2026-04-26T08:40:53.7Z</time></trkpt><trkpt lat="48.4047867" lon="-3.94724"><ele>254.0</ele><time>2026-04-26T08:40:54.677Z</time></trkpt><trkpt lat="48.4047383" lon="-3.9469633"><ele>253.66666666666669</ele><time>2026-04-26T08:40:55.679Z</time></trkpt><trkpt lat="48.4046883" lon="-3.9466883"><ele>253.33333333333331</ele><time>2026-04-26T08:40:56.679Z</time></trkpt><trkpt lat="48.40463" lon="-3.946415"><ele>253.0</ele><time>2026-04-26T08:40:57.676Z</time></trkpt><trkpt lat="48.4045667" lon="-3.9461333"><ele>252.33333333333331</ele><time>2026-04-26T08:40:58.674Z</time></trkpt><trkpt lat="48.4044983" lon="-3.9458567"><ele>251.66666666666669</ele><time>2026-04-26T08:40:59.677Z</time></trkpt><trkpt lat="48.4044167" lon="-3.9455817"><ele>251.0</ele><time>2026-04-26T08:41:00.678Z</time></trkpt><trkpt lat="48.4043267" lon="-3.9453133"><ele>251.0</ele><time>2026-04-26T08:41:01.675Z</time></trkpt><trkpt lat="48.4042283" lon="-3.94505"><ele>251.0</ele><time>2026-04-26T08:41:02.674Z</time></trkpt><trkpt lat="48.4041183" lon="-3.9447933"><ele>251.0</ele><time>2026-04-26T08:41:03.675Z</time></trkpt><trkpt lat="48.4039933" lon="-3.9445483"><ele>250.0</ele><time>2026-04-26T08:41:04.678Z</time></trkpt><trkpt lat="48.4038633" lon="-3.9443083"><ele>249.0</ele><time>2026-04-26T08:41:05.676Z</time></trkpt><trkpt lat="48.4037317" lon="-3.94407"><ele>248.0</ele><time>2026-04-26T08:41:06.68Z</time></trkpt><trkpt lat="48.4035983" lon="-3.9438317"><ele>248.0</ele><time>2026-04-26T08:41:07.679Z</time></trkpt><trkpt lat="48.4034667" lon="-3.943595"><ele>248.0</ele><time>2026-04-26T08:41:08.674Z</time></trkpt><trkpt lat="48.4033367" lon="-3.9433567"><ele>248.0</ele><time>2026-04-26T08:41:09.676Z</time></trkpt><trkpt lat="48.4032117" lon="-3.9431183"><ele>247.66666666666669</ele><time>2026-04-26T08:41:10.673Z</time></trkpt><trkpt lat="48.4031" lon="-3.9428783"><ele>247.33333333333331</ele><time>2026-04-26T08:41:11.673Z</time></trkpt><trkpt lat="48.4030083" lon="-3.9426317"><ele>247.0</ele><time>2026-04-26T08:41:12.675Z</time></trkpt><trkpt lat="48.40295" lon="-3.9423717"><ele>248.33333333333331</ele><time>2026-04-26T08:41:13.679Z</time></trkpt><trkpt lat="48.4029117" lon="-3.9421083"><ele>249.66666666666669</ele><time>2026-04-26T08:41:14.677Z</time></trkpt><trkpt lat="48.4028867" lon="-3.9418317"><ele>251.0</ele><time>2026-04-26T08:41:15.677Z</time></trkpt><trkpt lat="48.4028567" lon="-3.9415517"><ele>252.0</ele><time>2026-04-26T08:41:16.675Z</time></trkpt><trkpt lat="48.40283" lon="-3.9412717"><ele>253.0</ele><time>2026-04-26T08:41:17.675Z</time></trkpt><trkpt lat="48.4028033" lon="-3.9409917"><ele>254.0</ele><time>2026-04-26T08:41:18.676Z</time></trkpt><trkpt lat="48.4027733" lon="-3.9407133"><ele>255.0</ele><time>2026-04-26T08:41:19.677Z</time></trkpt><trkpt lat="48.4027433" lon="-3.9404283"><ele>256.0</ele><time>2026-04-26T08:41:20.676Z</time></trkpt><trkpt lat="48.4027083" lon="-3.9401467"><ele>257.0</ele><time>2026-04-26T08:41:21.675Z</time></trkpt><trkpt lat="48.4026833" lon="-3.93987"><ele>257.6666666666667</ele><time>2026-04-26T08:41:22.676Z</time></trkpt><trkpt lat="48.4026683" lon="-3.939595"><ele>258.3333333333333</ele><time>2026-04-26T08:41:23.675Z</time></trkpt><trkpt lat="48.4026667" lon="-3.9393133"><ele>259.0</ele><time>2026-04-26T08:41:24.678Z</time></trkpt><trkpt lat="48.4026883" lon="-3.9390367"><ele>260.0</ele><time>2026-04-26T08:41:25.678Z</time></trkpt><trkpt lat="48.4027333" lon="-3.9387633"><ele>261.0</ele><time>2026-04-26T08:41:26.675Z</time></trkpt><trkpt lat="48.402795" lon="-3.9384867"><ele>262.0</ele><time>2026-04-26T08:41:27.676Z</time></trkpt><trkpt lat="48.4028667" lon="-3.938205"><ele>263.0</ele><time>2026-04-26T08:41:28.676Z</time></trkpt><trkpt lat="48.4029383" lon="-3.9379167"><ele>264.0</ele><time>2026-04-26T08:41:29.675Z</time></trkpt><trkpt lat="48.4030083" lon="-3.937625"><ele>265.0</ele><time>2026-04-26T08:41:30.678Z</time></trkpt><trkpt lat="48.4030783" lon="-3.9373367"><ele>266.66666666666663</ele><time>2026-04-26T08:41:31.676Z</time></trkpt><trkpt lat="48.40315" lon="-3.93705"><ele>268.3333333333333</ele><time>2026-04-26T08:41:32.677Z</time></trkpt><trkpt lat="48.4032217" lon="-3.9367667"><ele>270.0</ele><time>2026-04-26T08:41:33.677Z</time></trkpt><trkpt lat="48.4032933" lon="-3.936485"><ele>271.0</ele><time>2026-04-26T08:41:34.677Z</time></trkpt><trkpt lat="48.403365" lon="-3.936205"><ele>272.0</ele><time>2026-04-26T08:41:35.673Z</time></trkpt><trkpt lat="48.40344" lon="-3.935925"><ele>273.0</ele><time>2026-04-26T08:41:36.678Z</time></trkpt><trkpt lat="48.4035117" lon="-3.9356467"><ele>274.0</ele><time>2026-04-26T08:41:37.674Z</time></trkpt><trkpt lat="48.4035833" lon="-3.9353683"><ele>275.0</ele><time>2026-04-26T08:41:38.675Z</time></trkpt><trkpt lat="48.4036567" lon="-3.9350933"><ele>276.0</ele><time>2026-04-26T08:41:39.679Z</time></trkpt><trkpt lat="48.4037333" lon="-3.9348133"><ele>276.0</ele><time>2026-04-26T08:41:40.675Z</time></trkpt><trkpt lat="48.4038083" lon="-3.9345333"><ele>276.0</ele><time>2026-04-26T08:41:41.681Z</time></trkpt><trkpt lat="48.4038783" lon="-3.9342517"><ele>276.0</ele><time>2026-04-26T08:41:42.677Z</time></trkpt><trkpt lat="48.403955" lon="-3.9339717"><ele>276.0</ele><time>2026-04-26T08:41:43.679Z</time></trkpt><trkpt lat="48.4040317" lon="-3.9336967"><ele>276.0</ele><time>2026-04-26T08:41:44.679Z</time></trkpt><trkpt lat="48.40411" lon="-3.93342"><ele>276.0</ele><time>2026-04-26T08:41:45.679Z</time></trkpt><trkpt lat="48.4041867" lon="-3.93314"><ele>276.6666666666667</ele><time>2026-04-26T08:41:46.675Z</time></trkpt><trkpt lat="48.4042517" lon="-3.9328567"><ele>277.33333333333337</ele><time>2026-04-26T08:41:47.673Z</time></trkpt><trkpt lat="48.40431" lon="-3.9325667"><ele>278.0</ele><time>2026-04-26T08:41:48.677Z</time></trkpt><trkpt lat="48.4043517" lon="-3.9322717"><ele>279.33333333333337</ele><time>2026-04-26T08:41:49.675Z</time></trkpt><trkpt lat="48.4043733" lon="-3.9319717"><ele>280.6666666666667</ele><time>2026-04-26T08:41:50.676Z</time></trkpt><trkpt lat="48.4043783" lon="-3.931675"><ele>282.0</ele><time>2026-04-26T08:41:51.677Z</time></trkpt><trkpt lat="48.4043733" lon="-3.9313733"><ele>283.3333333333333</ele><time>2026-04-26T08:41:52.673Z</time></trkpt><trkpt lat="48.40436" lon="-3.9310633"><ele>284.66666666666663</ele><time>2026-04-26T08:41:53.674Z</time></trkpt><trkpt lat="48.4043467" lon="-3.9307517"><ele>286.0</ele><time>2026-04-26T08:41:54.676Z</time></trkpt><trkpt lat="48.4043317" lon="-3.9304433"><ele>286.3333333333333</ele><time>2026-04-26T08:41:55.673Z</time></trkpt><trkpt lat="48.4043167" lon="-3.9301383"><ele>286.6666666666667</ele><time>2026-04-26T08:41:56.678Z</time></trkpt><trkpt lat="48.4043067" lon="-3.9298367"><ele>287.0</ele><time>2026-04-26T08:41:57.677Z</time></trkpt><trkpt lat="48.4042933" lon="-3.929535"><ele>285.0</ele><time>2026-04-26T08:41:58.678Z</time></trkpt><trkpt lat="48.40428" lon="-3.9292333"><ele>283.0</ele><time>2026-04-26T08:41:59.677Z</time></trkpt><trkpt lat="48.4042683" lon="-3.9289317"><ele>281.0</ele><time>2026-04-26T08:42:00.674Z</time></trkpt><trkpt lat="48.4042533" lon="-3.9286317"><ele>280.6666666666667</ele><time>2026-04-26T08:42:01.677Z</time></trkpt><trkpt lat="48.4042383" lon="-3.9283317"><ele>280.3333333333333</ele><time>2026-04-26T08:42:02.677Z</time></trkpt><trkpt lat="48.4042267" lon="-3.9280333"><ele>280.0</ele><time>2026-04-26T08:42:03.675Z</time></trkpt><trkpt lat="48.4042217" lon="-3.9277417"><ele>281.0</ele><time>2026-04-26T08:42:04.679Z</time></trkpt><trkpt lat="48.40423" lon="-3.9274533"><ele>282.0</ele><time>2026-04-26T08:42:05.675Z</time></trkpt><trkpt lat="48.4042583" lon="-3.9271667"><ele>283.0</ele><time>2026-04-26T08:42:06.675Z</time></trkpt><trkpt lat="48.4043133" lon="-3.926885"><ele>284.66666666666663</ele><time>2026-04-26T08:42:07.676Z</time></trkpt><trkpt lat="48.4043917" lon="-3.926605"><ele>286.3333333333333</ele><time>2026-04-26T08:42:08.679Z</time></trkpt><trkpt lat="48.4044733" lon="-3.9263167"><ele>288.0</ele><time>2026-04-26T08:42:09.674Z</time></trkpt><trkpt lat="48.404555" lon="-3.9260217"><ele>289.6666666666667</ele><time>2026-04-26T08:42:10.679Z</time></trkpt><trkpt lat="48.40464" lon="-3.9257233"><ele>291.33333333333337</ele><time>2026-04-26T08:42:11.675Z</time></trkpt><trkpt lat="48.4047233" lon="-3.9254267"><ele>293.0</ele><time>2026-04-26T08:42:12.677Z</time></trkpt><trkpt lat="48.4048083" lon="-3.9251333"><ele>289.33333333333337</ele><time>2026-04-26T08:42:13.676Z</time></trkpt><trkpt lat="48.4048917" lon="-3.9248383"><ele>285.6666666666667</ele><time>2026-04-26T08:42:14.676Z</time></trkpt><trkpt lat="48.4049767" lon="-3.9245467"><ele>282.0</ele><time>2026-04-26T08:42:15.677Z</time></trkpt><trkpt lat="48.4050617" lon="-3.9242583"><ele>284.3333333333333</ele><time>2026-04-26T08:42:16.675Z</time></trkpt><trkpt lat="48.4051433" lon="-3.9239717"><ele>286.66666666666663</ele><time>2026-04-26T08:42:17.688Z</time></trkpt><trkpt lat="48.4052217" lon="-3.923685"><ele>289.0</ele><time>2026-04-26T08:42:18.677Z</time></trkpt><trkpt lat="48.4053017" lon="-3.923395"><ele>291.3333333333333</ele><time>2026-04-26T08:42:19.684Z</time></trkpt><trkpt lat="48.40538" lon="-3.923105"><ele>293.6666666666667</ele><time>2026-04-26T08:42:20.674Z</time></trkpt><trkpt lat="48.405455" lon="-3.9228133"><ele>296.0</ele><time>2026-04-26T08:42:21.678Z</time></trkpt><trkpt lat="48.4055283" lon="-3.9225183"><ele>291.6666666666667</ele><time>2026-04-26T08:42:22.671Z</time></trkpt><trkpt lat="48.4055967" lon="-3.922225"><ele>287.3333333333333</ele><time>2026-04-26T08:42:23.678Z</time></trkpt><trkpt lat="48.405665" lon="-3.92193"><ele>283.0</ele><time>2026-04-26T08:42:24.678Z</time></trkpt><trkpt lat="48.405735" lon="-3.9216383"><ele>283.0</ele><time>2026-04-26T08:42:25.674Z</time></trkpt><trkpt lat="48.4058033" lon="-3.921345"><ele>283.0</ele><time>2026-04-26T08:42:26.678Z</time></trkpt><trkpt lat="48.4058767" lon="-3.9210517"><ele>283.0</ele><time>2026-04-26T08:42:27.678Z</time></trkpt><trkpt lat="48.4059567" lon="-3.920765"><ele>285.0</ele><time>2026-04-26T08:42:28.677Z</time></trkpt><trkpt lat="48.4060467" lon="-3.9204833"><ele>287.0</ele><time>2026-04-26T08:42:29.678Z</time></trkpt><trkpt lat="48.40614" lon="-3.920205"><ele>289.0</ele><time>2026-04-26T08:42:30.675Z</time></trkpt><trkpt lat="48.4062333" lon="-3.9199333"><ele>287.66666666666663</ele><time>2026-04-26T08:42:31.676Z</time></trkpt><trkpt lat="48.4063283" lon="-3.9196667"><ele>286.3333333333333</ele><time>2026-04-26T08:42:32.678Z</time></trkpt><trkpt lat="48.4064183" lon="-3.919405"><ele>285.0</ele><time>2026-04-26T08:42:33.677Z</time></trkpt><trkpt lat="48.4065033" lon="-3.9191383"><ele>285.0</ele><time>2026-04-26T08:42:34.679Z</time></trkpt><trkpt lat="48.4065783" lon="-3.9188683"><ele>285.0</ele><time>2026-04-26T08:42:35.678Z</time></trkpt><trkpt lat="48.4066417" lon="-3.9185917"><ele>285.0</ele><time>2026-04-26T08:42:36.677Z</time></trkpt><trkpt lat="48.406695" lon="-3.9183117"><ele>287.6666666666667</ele><time>2026-04-26T08:42:37.678Z</time></trkpt><trkpt lat="48.40674" lon="-3.9180283"><ele>290.33333333333337</ele><time>2026-04-26T08:42:38.676Z</time></trkpt><trkpt lat="48.40678" lon="-3.9177433"><ele>293.0</ele><time>2026-04-26T08:42:39.673Z</time></trkpt><trkpt lat="48.4068183" lon="-3.917455"><ele>294.6666666666667</ele><time>2026-04-26T08:42:40.678Z</time></trkpt><trkpt lat="48.4068567" lon="-3.917165"><ele>296.3333333333333</ele><time>2026-04-26T08:42:41.677Z</time></trkpt><trkpt lat="48.4068917" lon="-3.9168767"><ele>298.0</ele><time>2026-04-26T08:42:42.675Z</time></trkpt><trkpt lat="48.4069283" lon="-3.91659"><ele>299.0</ele><time>2026-04-26T08:42:43.675Z</time></trkpt><trkpt lat="48.4069683" lon="-3.916305"><ele>300.0</ele><time>2026-04-26T08:42:44.675Z</time></trkpt><trkpt lat="48.4070183" lon="-3.9160233"><ele>301.0</ele><time>2026-04-26T08:42:45.675Z</time></trkpt><trkpt lat="48.4070733" lon="-3.9157433"><ele>303.3333333333333</ele><time>2026-04-26T08:42:46.676Z</time></trkpt><trkpt lat="48.4071317" lon="-3.9154617"><ele>305.6666666666667</ele><time>2026-04-26T08:42:47.678Z</time></trkpt><trkpt lat="48.4071933" lon="-3.91518"><ele>308.0</ele><time>2026-04-26T08:42:48.675Z</time></trkpt><trkpt lat="48.407255" lon="-3.9148967"><ele>305.6666666666667</ele><time>2026-04-26T08:42:49.679Z</time></trkpt><trkpt lat="48.40732" lon="-3.9146117"><ele>303.3333333333333</ele><time>2026-04-26T08:42:50.678Z</time></trkpt><trkpt lat="48.4073833" lon="-3.9143267"><ele>301.0</ele><time>2026-04-26T08:42:51.676Z</time></trkpt><trkpt lat="48.4074467" lon="-3.9140433"><ele>301.0</ele><time>2026-04-26T08:42:52.675Z</time></trkpt><trkpt lat="48.4075117" lon="-3.91376"><ele>301.0</ele><time>2026-04-26T08:42:53.675Z</time></trkpt><trkpt lat="48.4075733" lon="-3.91348"><ele>301.0</ele><time>2026-04-26T08:42:54.674Z</time></trkpt><trkpt lat="48.4076367" lon="-3.9132"><ele>303.3333333333333</ele><time>2026-04-26T08:42:55.677Z</time></trkpt><trkpt lat="48.4077017" lon="-3.9129217"><ele>305.6666666666667</ele><time>2026-04-26T08:42:56.676Z</time></trkpt><trkpt lat="48.40777" lon="-3.912645"><ele>308.0</ele><time>2026-04-26T08:42:57.678Z</time></trkpt><trkpt lat="48.4078417" lon="-3.9123733"><ele>309.33333333333337</ele><time>2026-04-26T08:42:58.675Z</time></trkpt><trkpt lat="48.407915" lon="-3.9121"><ele>310.6666666666667</ele><time>2026-04-26T08:42:59.677Z</time></trkpt><trkpt lat="48.40799" lon="-3.911825"><ele>312.0</ele><time>2026-04-26T08:43:00.677Z</time></trkpt><trkpt lat="48.4080667" lon="-3.9115467"><ele>310.0</ele><time>2026-04-26T08:43:01.677Z</time></trkpt><trkpt lat="48.408145" lon="-3.9112667"><ele>308.0</ele><time>2026-04-26T08:43:02.675Z</time></trkpt><trkpt lat="48.408225" lon="-3.9109833"><ele>306.0</ele><time>2026-04-26T08:43:03.676Z</time></trkpt><trkpt lat="48.4083033" lon="-3.9106983"><ele>306.0</ele><time>2026-04-26T08:43:04.673Z</time></trkpt><trkpt lat="48.4083833" lon="-3.9104117"><ele>306.0</ele><time>2026-04-26T08:43:05.68Z</time></trkpt><trkpt lat="48.4084617" lon="-3.910125"><ele>306.0</ele><time>2026-04-26T08:43:06.675Z</time></trkpt><trkpt lat="48.4085433" lon="-3.90984"><ele>307.6666666666667</ele><time>2026-04-26T08:43:07.676Z</time></trkpt><trkpt lat="48.4086217" lon="-3.909555"><ele>309.33333333333337</ele><time>2026-04-26T08:43:08.679Z</time></trkpt><trkpt lat="48.4087017" lon="-3.9092733"><ele>311.0</ele><time>2026-04-26T08:43:09.675Z</time></trkpt><trkpt lat="48.4087817" lon="-3.9089933"><ele>309.6666666666667</ele><time>2026-04-26T08:43:10.68Z</time></trkpt><trkpt lat="48.40886" lon="-3.90872"><ele>308.3333333333333</ele><time>2026-04-26T08:43:11.676Z</time></trkpt><trkpt lat="48.4089367" lon="-3.90845"><ele>307.0</ele><time>2026-04-26T08:43:12.678Z</time></trkpt><trkpt lat="48.4090083" lon="-3.90818"><ele>307.0</ele><time>2026-04-26T08:43:13.677Z</time></trkpt><trkpt lat="48.4090817" lon="-3.907905"><ele>307.0</ele><time>2026-04-26T08:43:14.679Z</time></trkpt><trkpt lat="48.40916" lon="-3.90763"><ele>307.0</ele><time>2026-04-26T08:43:15.678Z</time></trkpt><trkpt lat="48.409245" lon="-3.90736"><ele>308.66666666666663</ele><time>2026-04-26T08:43:16.677Z</time></trkpt><trkpt lat="48.4093367" lon="-3.9070967"><ele>310.3333333333333</ele><time>2026-04-26T08:43:17.674Z</time></trkpt><trkpt lat="48.4094383" lon="-3.9068417"><ele>312.0</ele><time>2026-04-26T08:43:18.675Z</time></trkpt><trkpt lat="48.409545" lon="-3.906595"><ele>312.0</ele><time>2026-04-26T08:43:19.678Z</time></trkpt><trkpt lat="48.40966" lon="-3.906355"><ele>312.0</ele><time>2026-04-26T08:43:20.674Z</time></trkpt><trkpt lat="48.4097767" lon="-3.9061217"><ele>312.0</ele><time>2026-04-26T08:43:21.68Z</time></trkpt><trkpt lat="48.4098933" lon="-3.9058967"><ele>312.0</ele><time>2026-04-26T08:43:22.677Z</time></trkpt><trkpt lat="48.41001" lon="-3.905685"><ele>312.0</ele><time>2026-04-26T08:43:23.674Z</time></trkpt><trkpt lat="48.4101217" lon="-3.9054867"><ele>312.0</ele><time>2026-04-26T08:43:24.674Z</time></trkpt><trkpt lat="48.41023" lon="-3.905305"><ele>312.0</ele><time>2026-04-26T08:43:25.673Z</time></trkpt><trkpt lat="48.41033" lon="-3.9051333"><ele>312.0</ele><time>2026-04-26T08:43:26.676Z</time></trkpt><trkpt lat="48.4104217" lon="-3.9049683"><ele>312.0</ele><time>2026-04-26T08:43:27.681Z</time></trkpt><trkpt lat="48.4105083" lon="-3.9048117"><ele>312.0</ele><time>2026-04-26T08:43:28.679Z</time></trkpt><trkpt lat="48.4105917" lon="-3.9046633"><ele>311.0</ele><time>2026-04-26T08:43:29.675Z</time></trkpt><trkpt lat="48.4106717" lon="-3.9045233"><ele>310.0</ele><time>2026-04-26T08:43:30.678Z</time></trkpt><trkpt lat="48.4107483" lon="-3.9043933"><ele>309.0</ele><time>2026-04-26T08:43:31.678Z</time></trkpt><trkpt lat="48.41082" lon="-3.9042717"><ele>308.0</ele><time>2026-04-26T08:43:32.676Z</time></trkpt><trkpt lat="48.4108883" lon="-3.9041667"><ele>307.0</ele><time>2026-04-26T08:43:33.676Z</time></trkpt><trkpt lat="48.4109533" lon="-3.9040883"><ele>319.0</ele><time>2026-04-26T08:43:34.674Z</time></trkpt><trkpt lat="48.41101" lon="-3.9040233"><ele>319.0</ele><time>2026-04-26T08:43:35.677Z</time></trkpt><trkpt lat="48.411105" lon="-3.9039233"><ele>319.0</ele><time>2026-04-26T08:43:37.674Z</time></trkpt><trkpt lat="48.4111683" lon="-3.9038333"><ele>319.0</ele><time>2026-04-26T08:43:39.674Z</time></trkpt><trkpt lat="48.4112117" lon="-3.9037583"><ele>319.0</ele><time>2026-04-26T08:43:41.678Z</time></trkpt></trkseg></trk></gpx>